[[{"header":{"parameterUnit":"m.s-1","parameterCategory":1,"la1":30.6,"la2":28.766,"lo1":-90.7593,"lo2":-88.6598,"dy":0.0162,"dx":0.0183,"nx":116,"ny":114,"refTime":"2024-06-03T18:00:00:Z","depth":0,"parameterNumber":2,"parameterNumberName":"U-component_of_WINDS"},"data":[0.0,0.0,0.0,0.0,0.0,0.0,0.0,0.0,0.0,0.0,0.0,0.0,0.0,0.0,0.0,0.0,0.0,0.0,0.0,0.0,0.0,0.0,0.0,0.0,0.0,0.0,0.0,0.0,0.0,0.0,0.0,0.0,0.0,0.0,0.0,0.0,0.0,0.0,0.0,0.0,0.0,0.0,0.0,0.0,0.0,0.0,0.0,0.0,0.0,0.0,0.0,0.0,0.0,0.0,0.0,0.0,0.0,0.0,0.0,0.0,0.0,0.0,0.0,0.0,0.0,0.0,0.0,0.0,0.0,0.0,0.0,0.0,0.0,0.0,0.0,0.0,0.0,0.0,0.0,0.0,0.0,0.0,0.0,0.0,0.0,0.0,0.0,0.0,0.0,0.0,0.0,0.0,0.0,0.0,0.0,0.0,0.0,0.0,0.0,0.0,0.0,0.0,0.0,0.0,0.0,0.0,0.0,0.0,0.0,0.0,0.0,0.0,0.0,0.0,0.0,0.0,0.0,0.0,0.0,0.0,0.0,0.0,0.0,0.0,0.0,0.0,0.0,0.0,0.0,0.0,0.0,0.0,0.0,0.0,0.0,0.0,0.0,0.0,0.0,0.0,0.0,0.0,0.0,0.0,0.0,0.0,0.0,0.0,0.0,0.0,0.0,0.0,0.0,0.0,0.0,0.0,0.0,0.0,0.0,0.0,0.0,0.0,0.0,0.0,0.0,0.0,0.0,0.0,0.0,0.0,0.0,0.0,0.0,0.0,0.0,0.0,0.0,0.0,0.0,0.0,0.0,0.0,0.0,0.0,0.0,0.0,0.0,0.0,0.0,0.0,0.0,0.0,0.0,0.0,0.0,0.0,0.0,0.0,0.0,0.0,0.0,0.0,0.0,0.0,0.0,0.0,0.0,0.0,0.0,0.0,0.0,0.0,0.0,0.0,0.0,0.0,0.0,0.0,0.0,0.0,0.0,0.0,0.0,0.0,0.0,0.0,0.0,0.0,0.0,0.0,0.0,0.0,0.0,0.0,0.0,0.0,0.0,0.0,0.0,0.0,0.0,0.0,0.0,0.0,0.0,0.0,0.0,0.0,0.0,0.0,0.0,0.0,0.0,0.0,0.0,0.0,0.0,0.0,0.0,0.0,0.0,0.0,0.0,0.0,0.0,0.0,0.0,0.0,0.0,0.0,0.0,0.0,0.0,0.0,0.0,0.0,0.0,0.0,0.0,0.0,0.0,0.0,0.0,0.0,0.0,0.0,0.0,0.0,0.0,0.0,0.0,0.0,0.0,0.0,0.0,0.0,0.0,0.0,0.0,0.0,0.0,0.0,0.0,0.0,0.0,0.0,0.0,0.0,0.0,0.0,0.0,0.0,0.0,0.0,0.0,0.0,0.0,0.0,0.0,0.0,0.0,0.0,0.0,0.0,0.0,0.0,0.0,0.0,0.0,0.0,0.0,0.0,0.0,0.0,0.0,0.0,0.0,0.0,0.0,0.0,0.0,0.0,0.0,0.0,0.0,0.0,0.0,0.0,0.0,0.0,0.0,0.0,0.0,0.0,0.0,0.0,0.0,0.0,0.0,0.0,0.0,0.0,0.0,0.0,0.0,0.0,0.0,0.0,0.0,0.0,0.0,0.0,0.0,0.0,0.0,0.0,0.0,0.0,0.0,0.0,0.0,0.0,0.0,0.0,0.0,0.0,0.0,0.0,0.0,0.0,0.0,0.0,0.0,0.0,0.0,0.0,0.0,0.0,0.0,0.0,0.0,0.0,0.0,0.0,0.0,0.0,0.0,0.0,0.0,0.0,0.0,0.0,0.0,0.0,0.0,0.0,0.0,0.0,0.0,0.0,0.0,0.0,0.0,0.0,0.0,0.0,0.0,0.0,0.0,0.0,0.0,0.0,0.0,0.0,0.0,0.0,0.0,0.0,0.0,0.0,0.0,0.0,0.0,0.0,0.0,0.0,0.0,0.0,0.0,0.0,0.0,0.0,0.0,0.0,0.0,0.0,0.0,0.0,0.0,0.0,0.0,0.0,0.0,0.0,0.0,0.0,0.0,0.0,0.0,0.0,0.0,0.0,0.0,0.0,0.0,0.0,0.0,0.0,0.0,0.0,0.0,0.0,0.0,0.0,0.0,0.0,0.0,0.0,0.0,0.0,0.0,0.0,0.0,0.0,0.0,0.0,0.0,0.0,0.0,0.0,0.0,0.0,0.0,0.0,0.0,0.0,0.0,0.0,0.0,0.0,0.0,0.0,0.0,0.0,0.0,0.0,0.0,0.0,0.0,0.0,0.0,0.0,0.0,0.0,0.0,0.0,0.0,0.0,0.0,0.0,0.0,0.0,0.0,0.0,0.0,0.0,0.0,0.0,0.0,0.0,0.0,0.0,0.0,0.0,0.0,0.0,0.0,0.0,0.0,0.0,0.0,0.0,0.0,0.0,0.0,0.0,0.0,0.0,0.0,0.0,0.0,0.0,0.0,0.0,0.0,0.0,0.0,0.0,0.0,0.0,0.0,0.0,0.0,0.0,0.0,0.0,0.0,0.0,0.0,0.0,0.0,0.0,0.0,0.0,0.0,0.0,0.0,0.0,0.0,0.0,0.0,0.0,0.0,0.0,0.0,0.0,0.0,0.0,0.0,0.0,0.0,0.0,0.0,0.0,0.0,0.0,0.0,0.0,0.0,0.0,0.0,0.0,0.0,0.0,0.0,0.0,0.0,0.0,0.0,0.0,0.0,0.0,0.0,0.0,0.0,0.0,0.0,0.0,0.0,0.0,0.0,0.0,0.0,0.0,0.0,0.0,0.0,0.0,0.0,0.0,0.0,0.0,0.0,0.0,0.0,0.0,0.0,0.0,0.0,0.0,0.0,0.0,0.0,0.0,0.0,0.0,0.0,0.0,0.0,0.0,0.0,0.0,0.0,0.0,0.0,0.0,0.0,0.0,0.0,0.0,0.0,0.0,0.0,0.0,0.0,0.0,0.0,0.0,0.0,0.0,0.0,0.0,0.0,0.0,0.0,0.0,0.0,0.0,0.0,0.0,0.0,0.0,0.0,0.0,0.0,0.0,0.0,0.0,0.0,0.0,0.0,0.0,0.0,0.0,0.0,0.0,0.0,0.0,0.0,0.0,0.0,0.0,0.0,0.0,0.0,0.0,0.0,0.0,0.0,0.0,0.0,0.0,0.0,0.0,0.0,0.0,0.0,0.0,0.0,0.0,0.0,0.0,0.0,0.0,0.0,0.0,0.0,0.0,0.0,0.0,0.0,0.0,0.0,0.0,0.0,0.0,0.0,0.0,0.0,0.0,0.0,0.0,0.0,0.0,0.0,0.0,0.0,0.0,0.0,0.0,0.0,0.0,0.0,0.0,0.0,0.0,0.0,0.0,0.0,0.0,0.0,0.0,0.0,0.0,0.0,0.0,0.0,0.0,0.0,0.0,0.0,0.0,0.0,0.0,0.0,0.0,0.0,0.0,0.0,0.0,0.0,0.0,0.0,0.0,0.0,0.0,0.0,0.0,0.0,0.0,0.0,0.0,0.0,0.0,0.0,0.0,0.0,0.0,0.0,0.0,0.0,0.0,0.0,0.0,0.0,0.0,0.0,0.0,0.0,0.0,0.0,0.0,0.0,0.0,0.0,0.0,0.0,0.0,0.0,0.0,0.0,0.0,0.0,0.0,0.0,0.0,0.0,0.0,0.0,0.0,0.0,0.0,0.0,0.0,0.0,0.0,0.0,0.0,0.0,0.0,0.0,0.0,0.0,0.0,0.0,0.0,0.0,0.0,0.0,0.0,0.0,0.0,0.0,0.0,0.0,0.0,0.0,0.0,0.0,0.0,0.0,0.0,0.0,0.0,0.0,0.0,0.0,0.0,0.0,0.0,0.0,0.0,0.0,0.0,0.0,0.0,0.0,0.0,0.0,0.0,0.0,0.0,0.0,0.0,0.0,0.0,0.0,0.0,0.0,0.0,0.0,0.0,0.0,0.0,0.0,0.0,0.0,0.0,0.0,0.0,0.0,0.0,0.0,0.0,0.0,0.0,0.0,0.0,0.0,0.0,0.0,0.0,0.0,0.0,0.0,0.0,0.0,0.0,0.0,0.0,0.0,0.0,0.0,0.0,0.0,0.0,0.0,0.0,0.0,0.0,0.0,0.0,0.0,0.0,0.0,0.0,0.0,0.0,0.0,0.0,0.0,0.0,0.0,0.0,0.0,0.0,0.0,0.0,0.0,0.0,0.0,0.0,0.0,0.0,0.0,0.0,0.0,0.0,0.0,0.0,0.0,0.0,0.0,0.0,0.0,0.0,0.0,0.0,0.0,0.0,0.0,0.0,0.0,0.0,0.0,0.0,0.0,0.0,0.0,0.0,0.0,0.0,0.0,0.0,0.0,0.0,0.0,0.0,0.0,0.0,0.0,0.0,0.0,0.0,0.0,0.0,0.0,0.0,0.0,0.0,0.0,0.0,0.0,0.0,0.0,0.0,0.0,0.0,0.0,0.0,0.0,0.0,0.0,0.0,0.0,0.0,0.0,0.0,0.0,0.0,0.0,0.0,0.0,0.0,0.0,0.0,0.0,0.0,0.0,0.0,0.0,0.0,0.0,0.0,0.0,0.0,0.0,0.0,0.0,0.0,0.0,0.0,0.0,0.0,0.0,0.0,0.0,0.0,0.0,0.0,0.0,0.0,0.0,0.0,0.0,0.0,0.0,0.0,0.0,0.0,0.0,0.0,0.0,0.0,0.0,0.0,0.0,0.0,0.0,0.0,0.0,0.0,0.0,0.0,0.0,0.0,0.0,0.0,0.0,0.0,0.0,0.0,0.0,0.0,0.0,0.0,0.0,0.0,0.0,0.0,0.0,0.0,0.0,0.0,0.0,0.0,0.0,0.0,0.0,0.0,0.0,0.0,0.0,0.0,0.0,0.0,0.0,0.0,0.0,0.0,0.0,0.0,0.0,0.0,0.0,0.0,0.0,0.0,0.0,0.0,0.0,0.0,0.0,0.0,0.0,0.0,0.0,0.0,0.0,0.0,0.0,0.0,0.0,0.0,0.0,0.0,0.0,0.0,0.0,0.0,0.0,0.0,0.0,0.0,0.0,0.0,0.0,0.0,0.0,0.0,0.0,0.0,0.0,0.0,0.0,0.0,0.0,0.0,0.0,0.0,0.0,0.0,0.0,0.0,0.0,0.0,0.0,0.0,0.0,0.0,0.0,0.0,0.0,0.0,0.0,0.0,0.0,0.0,0.0,0.0,0.0,0.0,0.0,0.0,0.0,0.0,0.0,0.0,0.0,0.0,0.0,0.0,0.0,0.0,0.0,0.0,0.0,0.0,0.0,0.0,0.0,0.0,0.0,0.0,0.0,0.0,0.0,0.0,0.0,0.0,0.0,0.0,0.0,0.0,0.0,0.0,0.0,0.0,0.0,0.0,0.0,0.0,0.0,0.0,0.0,0.0,0.0,0.0,0.0,0.0,0.0,0.0,0.0,0.0,0.0,0.0,0.0,0.0,0.0,0.0,0.0,0.0,0.0,0.0,0.0,0.0,0.0,0.0,0.0,0.0,0.0,0.0,0.0,0.0,0.0,0.0,0.0,0.0,0.0,0.0,0.0,0.0,0.0,0.0,0.0,0.0,0.0,0.0,0.0,0.0,0.0,0.0,0.0,0.0,0.0,0.0,0.0,0.0,0.0,0.0,0.0,0.0,0.0,0.0,0.0,0.0,0.0,0.0,0.0,0.0,0.0,0.0,0.0,0.0,0.0,0.0,0.0,0.0,0.0,0.0,0.0,0.0,0.0,0.0,0.0,0.0,0.0,0.0,0.0,0.0,0.0,0.0,0.0,0.0,0.0,0.0,0.0,0.0,0.0,0.0,0.0,0.0,0.0,0.0,0.0,0.0,0.0,0.0,0.0,0.0,0.0,0.0,0.0,0.0,0.0,0.0,0.0,0.0,0.0,0.0,0.0,0.0,0.0,0.0,0.0,0.0,0.0,0.0,0.0,0.0,0.0,0.0,0.0,0.0,0.0,0.0,0.0,0.0,0.0,0.0,0.0,0.0,0.0,0.0,0.0,0.0,0.0,0.0,0.0,0.0,-2.8461,-2.8678,0.0,0.0,0.0,0.0,0.0,0.0,0.0,0.0,0.0,0.0,0.0,0.0,0.0,0.0,0.0,0.0,0.0,0.0,0.0,0.0,0.0,0.0,0.0,-1.9366,-2.0522,-2.0395,-2.026,-2.0327,-2.0655,0.0,0.0,0.0,0.0,0.0,-1.9719,-1.8815,-1.7928,-1.7044,-1.6591,-1.5918,-1.4976,-1.4594,-1.4563,-1.4869,0.0,0.0,0.0,0.0,0.0,0.0,0.0,0.0,0.0,0.0,0.0,0.0,0.0,0.0,0.0,0.0,0.0,0.0,0.0,0.0,0.0,0.0,0.0,0.0,0.0,0.0,0.0,0.0,0.0,0.0,0.0,0.0,0.0,0.0,0.0,0.0,0.0,0.0,0.0,0.0,0.0,0.0,0.0,0.0,0.0,0.0,0.0,0.0,0.0,0.0,0.0,0.0,0.0,0.0,0.0,0.0,0.0,0.0,0.0,0.0,0.0,0.0,0.0,0.0,0.0,0.0,0.0,0.0,0.0,0.0,-2.9863,-2.9571,0.0,0.0,0.0,0.0,0.0,0.0,0.0,0.0,0.0,0.0,0.0,0.0,0.0,0.0,0.0,0.0,0.0,0.0,0.0,0.0,0.0,-1.8917,-1.903,-2.0329,-2.1444,-2.2118,-2.1678,-2.1635,-2.2245,-2.2029,0.0,0.0,0.0,-2.163,-2.1274,-2.0529,-1.9375,-1.7838,-1.8034,-1.7193,-1.5412,-1.4476,-1.4638,-1.5623,-1.4957,0.0,0.0,0.0,0.0,0.0,0.0,0.0,0.0,0.0,0.0,0.0,0.0,0.0,0.0,0.0,0.0,0.0,0.0,0.0,0.0,0.0,0.0,0.0,0.0,0.0,0.0,0.0,0.0,0.0,0.0,0.0,0.0,0.0,0.0,0.0,0.0,0.0,0.0,0.0,0.0,0.0,0.0,0.0,0.0,0.0,0.0,0.0,0.0,0.0,0.0,0.0,0.0,0.0,0.0,0.0,0.0,0.0,0.0,0.0,0.0,0.0,0.0,0.0,-3.1182,-3.1199,-3.1202,-3.1199,-3.1216,-3.1219,-3.1219,-3.0359,-2.9008,-2.9565,0.0,0.0,0.0,0.0,0.0,0.0,0.0,0.0,0.0,0.0,0.0,0.0,0.0,0.0,0.0,0.0,0.0,0.0,0.0,-1.9018,-1.9538,-2.0956,-2.2056,-2.2513,-2.2753,-2.2937,-2.3052,-2.3003,0.0,0.0,-2.2729,-2.2363,-2.1972,-2.1038,-2.0241,-1.9679,-1.7868,-1.6367,-1.5127,-1.4303,-1.4502,-1.5477,-1.452,-1.5018,-1.642,0.0,0.0,0.0,0.0,0.0,0.0,0.0,0.0,0.0,0.0,0.0,0.0,0.0,0.0,0.0,0.0,0.0,0.0,0.0,0.0,0.0,0.0,0.0,0.0,0.0,0.0,0.0,0.0,0.0,0.0,0.0,0.0,0.0,0.0,0.0,0.0,0.0,0.0,0.0,0.0,0.0,-2.3611,-2.3595,0.0,0.0,0.0,0.0,0.0,0.0,0.0,0.0,0.0,0.0,0.0,0.0,0.0,-2.7938,-3.0585,-3.0588,-3.0806,-3.1206,-3.121,-3.1218,-3.1196,-3.1218,-3.1218,-3.1196,-3.1196,0.0,-3.0706,-2.9188,0.0,0.0,0.0,0.0,0.0,0.0,0.0,0.0,0.0,0.0,0.0,0.0,0.0,0.0,0.0,0.0,0.0,0.0,0.0,0.0,0.0,-2.0889,-2.1938,-2.2761,-2.2391,-2.2614,-2.3744,-2.3164,-2.3107,-2.3798,-2.3382,-2.3176,-2.3163,-2.2263,-2.1273,-2.0293,-1.7821,-1.6412,-1.5933,-1.4853,-1.4585,-1.5,-1.3949,-1.4128,-1.5131,-1.4834,0.0,0.0,0.0,0.0,0.0,0.0,0.0,0.0,0.0,0.0,0.0,0.0,0.0,0.0,0.0,0.0,0.0,0.0,0.0,0.0,0.0,0.0,0.0,0.0,0.0,0.0,0.0,0.0,0.0,0.0,0.0,0.0,0.0,0.0,0.0,0.0,0.0,0.0,0.0,-2.3594,-2.3579,-2.3576,-2.4404,-2.5405,0.0,0.0,0.0,0.0,0.0,0.0,0.0,0.0,0.0,-2.6692,-2.8339,-2.9867,-3.1182,-3.1181,-3.1206,-3.1206,-3.1196,-3.119,-3.119,-3.119,-3.119,-3.119,-3.119,-3.119,-3.1117,-2.9905,-2.9522,-2.9632,0.0,0.0,0.0,0.0,-2.7636,-2.653,0.0,0.0,0.0,0.0,0.0,0.0,0.0,0.0,0.0,0.0,0.0,0.0,-2.0177,-2.0855,-2.1693,-2.2749,-2.2058,-2.221,-2.3712,-2.3182,-2.3204,-2.4118,-2.3895,-2.386,-2.4116,-2.3119,-2.1755,-2.0058,-1.7972,-1.6816,-1.6488,-1.5235,-1.4719,-1.4796,-1.361,-1.3516,-1.4271,-1.4258,-1.3731,0.0,0.0,0.0,0.0,0.0,0.0,0.0,0.0,0.0,0.0,0.0,0.0,0.0,0.0,0.0,0.0,0.0,0.0,0.0,0.0,0.0,0.0,0.0,0.0,0.0,0.0,0.0,0.0,0.0,0.0,0.0,0.0,0.0,0.0,0.0,0.0,0.0,0.0,-2.4385,-2.4392,-2.4397,-2.4394,-2.4985,0.0,0.0,0.0,0.0,0.0,0.0,-2.6716,-2.7429,-2.7832,-2.7835,-3.001,-3.1185,-3.1198,-3.1201,-3.119,-3.119,-3.119,-3.119,-3.119,-3.119,-3.119,-3.119,-3.119,-3.119,-3.1151,-3.0393,-2.9892,-2.9585,-2.9271,-2.8952,-2.8642,-2.9035,-2.8213,-2.7056,0.0,0.0,0.0,0.0,0.0,0.0,0.0,0.0,0.0,0.0,0.0,-1.9915,-2.0937,-2.1139,-2.155,-2.2354,-2.2393,-2.2383,0.0,-2.3208,-2.3659,-2.3726,-2.4132,-2.4365,-2.4379,-2.3033,-2.1185,-1.8879,-1.8419,-1.7571,-1.6277,-1.5088,-1.4782,-1.5196,-1.3742,-1.3691,-1.4614,-1.3474,-1.2953,-1.2868,0.0,0.0,0.0,0.0,0.0,0.0,0.0,0.0,0.0,0.0,0.0,0.0,0.0,0.0,0.0,0.0,0.0,0.0,0.0,0.0,0.0,0.0,0.0,0.0,0.0,0.0,0.0,0.0,0.0,0.0,0.0,0.0,0.0,0.0,0.0,0.0,0.0,0.0,0.0,-2.6531,-2.6554,0.0,0.0,0.0,0.0,-2.6805,-2.6712,-2.672,-2.67,-2.9425,-3.0962,-3.098,-3.11,-3.1215,-3.1173,-3.119,-3.119,-3.119,-3.119,-3.119,-3.119,-3.119,-3.119,-3.119,-3.119,-3.119,-3.1112,-2.9935,-2.9761,-3.0123,-2.9012,-2.8888,-2.9268,-2.8717,-2.8465,-2.8323,0.0,0.0,0.0,0.0,0.0,-1.5485,-1.7398,-1.7965,-1.8502,-1.9522,-1.9703,-1.9895,-2.0298,-2.0299,-2.0641,-2.1495,-2.1049,-2.1184,-2.2273,-2.2756,-2.2993,-2.2991,-2.3689,-2.3649,-2.2754,-2.1516,-2.0352,-1.926,-1.8185,-1.7304,-1.6607,-1.5374,-1.4791,-1.4735,-1.3636,-1.3391,-1.3716,-1.3123,-1.2894,-1.2886,-1.2909,-1.255,0.0,0.0,0.0,0.0,0.0,0.0,0.0,0.0,0.0,0.0,0.0,0.0,0.0,0.0,0.0,0.0,0.0,0.0,0.0,0.0,0.0,0.0,0.0,0.0,0.0,0.0,0.0,0.0,0.0,0.0,0.0,0.0,0.0,0.0,0.0,0.0,0.0,-2.6703,-2.6701,0.0,-2.6689,-2.7195,-2.8099,-2.9472,-2.9605,-2.9593,-2.9617,-3.0622,-3.1189,-3.1206,-3.1184,-3.1201,-3.119,-3.119,-3.119,-3.119,-3.119,-3.119,-3.119,-3.119,-3.119,-3.119,-3.119,-3.119,-3.1112,-2.9892,-2.954,-2.9629,-2.8826,-2.8415,-2.8222,-2.7993,-2.7894,-2.7894,0.0,0.0,0.0,0.0,-1.4713,-1.5941,-1.7822,-1.8568,-1.9164,-1.9829,-1.9935,-1.9921,-1.9778,-1.9632,-1.9799,-2.0404,-1.9838,-1.9954,-2.1169,-2.1774,-2.2185,-2.2422,-2.3651,-2.3616,-2.2029,-2.1262,-2.0403,-1.9435,-1.819,-1.7342,-1.6919,-1.5605,-1.4744,-1.4219,-1.3541,-1.3219,-1.3241,-1.3835,-1.3622,-1.2919,-1.2877,-1.289,-1.289,0.0,0.0,0.0,0.0,0.0,0.0,0.0,0.0,0.0,0.0,0.0,0.0,0.0,0.0,0.0,0.0,0.0,0.0,0.0,0.0,0.0,0.0,0.0,0.0,0.0,0.0,0.0,0.0,0.0,0.0,0.0,0.0,0.0,0.0,-2.6691,-2.6691,-2.6703,-2.7588,-2.7811,-2.6807,-2.7633,-2.9051,-3.1045,-3.1192,-3.1192,-3.1215,-3.1215,-3.1189,-3.119,-3.119,-3.119,-3.119,-3.119,-3.119,-3.119,-3.119,-3.119,-3.119,-3.119,-3.119,-3.119,-3.119,-3.1095,-3.0838,-3.0038,-2.9451,-2.9042,-2.8415,-2.7944,-2.7625,-2.7625,-2.7625,-2.7625,0.0,0.0,0.0,-1.4262,-1.5032,-1.6132,-1.8554,-1.9535,-1.9973,-1.9916,-2.0004,-1.9905,-1.9511,-1.9181,-1.9047,-1.9103,-1.8777,-1.8702,-1.9042,-2.027,-2.129,-2.2005,-2.3919,-2.4149,-2.2376,-2.23,-2.1312,-1.9298,-1.8467,-1.7778,-1.714,-1.563,-1.4516,-1.3743,-1.3311,-1.3134,-1.3316,-1.5459,-1.5056,-1.2875,-1.2905,-1.2943,-1.2998,0.0,0.0,0.0,0.0,0.0,0.0,0.0,0.0,0.0,0.0,0.0,0.0,0.0,0.0,0.0,0.0,0.0,0.0,0.0,0.0,0.0,0.0,0.0,0.0,0.0,0.0,0.0,0.0,0.0,0.0,0.0,0.0,0.0,-2.6691,-2.6725,-2.6759,-2.6736,-2.9384,-3.0038,-2.7125,-2.9495,-3.1206,-3.1223,-3.1223,-3.119,-3.119,-3.119,-3.119,-3.119,-3.119,-3.119,-3.119,-3.119,-3.119,-3.119,-3.119,-3.119,-3.119,-3.119,-3.119,-3.119,-3.119,-3.0878,-3.0293,-3.0293,-2.9585,-2.8415,-2.786,-2.7625,-2.7625,-2.7625,-2.7625,-2.7625,0.0,0.0,-1.1651,-1.376,-1.5054,-1.655,-1.8698,-1.9748,-2.0172,-1.9869,-1.9555,-1.9197,-1.8744,-1.7683,-1.6982,-1.702,-1.5948,-1.5502,-1.5981,-1.7295,-1.8876,-2.0704,-2.0274,-2.0253,-2.0862,-2.0351,-1.978,-1.9149,-1.8111,-1.7216,-1.6428,-1.477,-1.3729,-1.323,-1.1714,-1.1453,-1.2246,-1.3412,-1.3499,-1.2919,-1.2889,-1.3627,-1.4562,0.0,0.0,0.0,0.0,0.0,0.0,0.0,0.0,0.0,0.0,0.0,0.0,0.0,0.0,0.0,0.0,0.0,0.0,0.0,0.0,0.0,0.0,0.0,0.0,0.0,0.0,0.0,0.0,0.0,0.0,0.0,-2.6691,-2.6691,-2.6691,-2.764,-2.8218,-2.7832,-2.9809,-3.0859,-3.0027,-3.073,-3.1181,-3.1184,-3.1213,-3.119,-3.119,-3.119,-3.119,-3.119,-3.119,-3.119,-3.119,-3.119,-3.119,-3.119,-3.119,-3.119,-3.119,-3.119,-3.119,-3.119,-3.119,-3.0878,-3.0251,-2.9805,-2.918,-2.8463,-2.8319,-2.8008,-2.7625,-2.7625,-2.7625,-2.7625,0.0,-1.0154,-1.1523,-1.383,-1.525,-1.6781,-1.8821,-1.98,-2.0088,-1.956,-1.9249,-1.8605,-1.744,-1.6402,-1.5587,-1.4977,-1.4148,-1.3697,-1.3794,-1.453,-1.5394,-1.6394,-1.5973,-1.5933,-1.6478,-1.7493,-1.6401,-1.3105,-1.6504,-1.5843,-1.1474,-1.3461,-1.3928,-1.2998,-1.1936,-1.1364,-1.117,-1.1177,-1.116,-1.1071,-0.9848,-1.0998,-1.328,-1.2297,-1.337,-1.5171,-1.3491,-1.2919,-1.3088,-1.4534,0.0,0.0,0.0,0.0,0.0,0.0,0.0,0.0,0.0,0.0,0.0,0.0,0.0,0.0,0.0,0.0,0.0,0.0,0.0,0.0,0.0,0.0,0.0,0.0,-2.6691,-2.6691,-2.6691,-2.7471,-2.8082,-2.8176,-2.998,-3.1222,-3.121,-3.121,-3.1206,-3.119,-3.119,-3.119,-3.119,-3.119,-3.119,-3.119,-3.119,-3.119,-3.119,-3.119,-3.119,-3.119,-3.119,-3.119,-3.119,-3.119,-3.119,-3.119,-3.0918,-3.0477,-2.9892,-2.9271,-2.8685,-2.814,0.0,0.0,0.0,0.0,-2.7625,-2.7625,0.0,-1.0501,-1.1598,-1.4239,-1.5541,-1.6888,-1.8882,-1.9726,-1.9862,-1.9153,-1.8709,-1.7681,-1.564,-1.4744,-1.3797,-1.2538,-1.2295,-1.1974,0.0,0.0,0.0,-1.0277,-1.0915,-1.0997,-1.0343,-1.3382,-1.1561,-0.4599,-1.2947,-1.2643,-0.4382,-1.0403,-1.2482,-1.1137,-1.1259,-1.0749,-0.9635,-0.8644,-0.8435,-0.8538,-0.5648,-0.6879,-1.0389,-1.0404,-1.2147,-1.4518,-1.3326,-1.2915,-1.2912,-1.2902,0.0,0.0,0.0,0.0,0.0,0.0,0.0,0.0,0.0,0.0,0.0,0.0,0.0,0.0,0.0,0.0,0.0,0.0,0.0,0.0,0.0,0.0,0.0,0.0,-2.6691,-2.6691,-2.6691,-2.6691,-2.7063,-2.8047,-2.9879,-3.1065,-3.1189,-3.1206,-3.119,-3.119,-3.119,-3.119,-3.119,-3.119,0.0,0.0,0.0,-3.119,-3.119,-3.119,-3.119,-3.119,-3.119,-3.119,-3.119,-3.119,-3.119,-3.1151,-3.0559,-2.9935,-2.9361,-2.8732,-2.814,-2.7625,-2.7625,-2.7625,-2.7625,-2.7625,-2.7625,-2.7625,0.0,-1.0767,-1.1932,-1.4287,-1.5541,-1.6888,-1.8882,-1.9769,-1.9837,-1.8896,-1.6648,-1.4574,-1.3111,-1.0109,-0.809,-0.7821,-0.6687,-0.5793,0.0,0.0,-0.3364,-0.4908,-0.4322,-0.4277,-0.4962,-0.5768,-0.5227,-0.334,-0.3584,-0.2754,-0.0897,0.0294,0.0672,0.031,0.0234,-0.2169,-0.6051,-0.4976,-0.6174,-0.8566,-0.5662,-0.637,-0.9157,-0.9173,-0.9514,-1.0303,-1.2245,-1.2906,-1.29,-1.29,-1.2887,-1.2913,-1.2909,0.0,0.0,0.0,0.0,0.0,0.0,0.0,0.0,0.0,0.0,0.0,0.0,0.0,0.0,0.0,0.0,0.0,0.0,0.0,0.0,-2.6708,-2.6691,-2.6691,-2.6691,-2.6691,-2.6979,-2.7774,-2.911,-3.0302,-3.11,-3.1206,-3.119,-3.119,-3.119,-3.119,-3.119,-3.119,-3.119,-3.119,-3.119,-3.119,-3.119,-3.119,-3.119,-3.119,-3.119,0.0,-3.119,-3.119,-3.119,-3.1151,-3.0559,-2.9935,-2.9361,-2.8732,-2.814,-2.7625,-2.7625,-2.7625,-2.7625,-2.7625,-2.7625,-2.7625,-1.0763,-1.1145,-1.1902,-1.4154,-1.5371,-1.655,-1.8063,-1.9209,-1.9776,-1.9405,-1.7805,-1.5978,-1.4097,-1.0931,-0.8351,-0.6848,-0.4291,0.0,0.0,0.087,0.2023,0.1896,0.2471,0.2739,0.2743,0.0704,0.1697,0.5913,0.3411,0.5278,1.1191,1.2546,1.3114,1.2902,1.2411,0.8332,0.198,0.3918,0.2078,-0.2,-0.0573,-0.2675,-0.6827,-0.8257,-0.8825,-0.8965,-1.0347,-1.1738,-1.2899,-1.289,-1.291,-1.3137,-1.4323,-1.5542,-1.6908,0.0,0.0,0.0,0.0,0.0,0.0,0.0,0.0,0.0,0.0,0.0,0.0,0.0,0.0,-2.4795,-2.5776,0.0,-2.669,-2.6708,-2.6691,-2.6691,-2.6691,-2.6691,-2.6843,-2.7215,-2.8277,-2.9239,-3.0017,-3.0794,-3.119,-3.119,-3.119,-3.119,-3.119,-3.119,-3.119,-3.119,-3.119,-3.119,-3.119,-3.119,-3.119,-3.119,-3.119,-3.1055,-3.074,-3.074,-3.0559,-3.0251,-2.9673,-2.9225,-2.8919,-2.8319,-2.786,-2.756,-2.7188,-2.7306,-2.7625,-2.7625,-2.7625,-2.7625,-1.1259,-1.1259,-1.1767,-1.387,-1.5125,-1.6145,-1.7036,-1.8399,-1.9478,-1.9881,-1.8403,-1.6561,-1.4707,-1.1306,-0.8051,0.0,0.0,0.0,0.0,0.5179,0.7317,0.8751,0.9117,0.9745,1.082,0.7566,0.9103,1.5684,1.0286,1.2569,2.1956,2.1972,2.2069,2.2184,2.1198,1.714,1.1186,1.2588,1.0707,0.6815,0.6297,0.3197,-0.1468,-0.4927,-0.6967,-0.8047,-0.86,-1.0198,-1.2195,-1.2738,-1.2909,-1.3212,-1.5199,-1.5779,-1.6153,-1.7937,-1.9123,0.0,0.0,0.0,0.0,0.0,0.0,0.0,0.0,-2.4883,-2.4957,-2.5143,-2.6017,-2.6707,-2.6703,-2.6707,-2.6691,-2.6691,-2.6758,-2.6791,-2.6725,-2.6758,-2.6791,-2.6725,-2.7687,-2.8527,-2.8958,-3.0328,-3.119,-3.119,-3.119,-3.119,-3.119,-3.119,-3.119,-3.119,-3.119,-3.119,-3.119,-3.119,-3.119,-3.119,-3.119,-3.0878,-3.0293,-3.0293,-2.9995,-2.9361,-2.8622,-2.8143,-2.7849,-2.7378,-2.7188,-2.7137,-2.6496,-2.6654,-2.7188,-2.7188,-2.724,-2.7357,0.0,-1.073,-1.1592,-1.3369,-1.4763,-1.5802,-1.6344,-1.7527,-1.8679,-1.9605,-1.4289,-1.0557,-1.0924,-0.5176,-0.0395,0.0,0.0,0.0,0.8417,1.1937,1.3993,1.4236,1.527,1.6327,1.7317,1.6565,1.7017,1.8807,1.9165,1.9795,2.0735,2.2484,2.281,2.1874,2.0492,1.9623,1.9051,1.5529,1.4469,1.497,1.2822,1.1548,1.0392,0.502,-0.032,-0.5304,-0.7883,-0.9022,-0.9621,-1.21,-1.2916,-1.2957,-1.32,-1.328,-1.333,-1.358,-1.6555,-1.9355,-1.7408,-1.7375,-1.8574,-2.1236,-2.2684,-2.3462,0.0,-2.3785,-2.4053,-2.499,-2.6005,-2.6689,-2.6691,-2.6708,-2.6691,-2.6691,-2.6987,-2.7115,-2.6758,-2.6987,-2.7083,-2.6758,-2.801,-2.8924,-2.8975,-3.0328,-3.119,-3.119,-3.119,-3.119,-3.119,-3.119,-3.119,-3.119,-3.119,-3.119,-3.119,-3.119,-3.119,-3.119,-3.119,-3.0878,-3.0293,-3.0293,-2.9995,-2.9316,-2.8066,-2.6865,-2.5769,-2.5673,-2.5673,-2.5618,-2.5563,-2.5563,-2.5673,-2.5673,-2.6054,-2.651,0.0,-1.0608,-1.1127,-1.1534,-1.3136,-1.4426,-1.4649,-1.6246,-1.8094,-1.9937,-1.3303,-0.8727,-0.9509,-0.1079,0.4916,0.5548,0.0,0.0,1.0871,1.4677,1.6943,1.7075,1.7841,1.8776,1.9824,1.9337,1.9743,2.105,2.1731,2.2224,2.2569,2.3472,2.3779,2.3555,2.2736,2.2086,2.1493,1.9928,1.891,1.8287,1.7244,1.6883,1.6385,1.1282,0.7825,0.4556,-0.3403,-0.6311,0.0,0.0,-1.0485,-1.0769,-1.2423,-1.291,-1.3183,-1.4591,-1.6372,-1.7659,-1.6767,-1.8055,-1.9854,-2.0584,-2.1931,-2.3167,-2.354,-2.3864,-2.43,-2.5019,-2.5989,-2.672,-2.6708,-2.6691,-2.6691,-2.6691,-2.6841,-2.6906,-2.6725,-2.6841,-2.6906,-2.6725,-2.8044,-2.9011,-2.9011,-2.9939,-3.0734,-3.1157,-3.119,-3.1055,-3.0699,-3.0658,-3.0518,-3.0166,-3.0166,-3.0166,-3.0166,-3.0166,-3.0166,-3.0166,-3.0166,-2.9848,-2.9271,-2.9271,-2.8686,-2.767,-2.6672,-2.5903,-2.5398,-2.5398,-2.5398,-2.5342,-2.4951,-2.5007,-2.5356,-2.4983,-2.5061,-2.5233,0.0,-1.0108,-1.0147,-0.9446,-1.0868,-1.2313,-1.2957,-1.4699,-1.6833,-1.9343,-1.4892,-0.8996,-0.2508,0.4487,0.8928,0.9447,0.0,0.0,0.0,1.7221,1.9262,1.9568,2.018,2.0973,2.1907,2.1496,2.2004,2.3491,2.3712,2.4274,2.5104,2.5221,2.5352,2.5468,2.5152,2.4249,2.3006,2.2807,2.1923,2.0725,2.1372,2.1325,2.0462,1.711,1.5864,1.4284,0.2302,-0.2527,0.0,0.0,-0.6946,-0.7942,-0.9947,-1.1666,-1.3232,-1.499,-1.5665,-1.595,-1.6573,-1.8122,-1.964,-1.9979,-2.101,-2.2135,-2.3053,-2.3682,-2.4241,-2.4938,-2.5733,-2.6362,-2.664,-2.6691,-2.6691,-2.6691,-2.6774,-2.6825,-2.6725,-2.6791,-2.6893,-2.6979,-2.7994,-2.8839,-2.9245,-2.9973,-3.0632,-3.1157,-3.119,-3.1015,-3.0559,-3.0559,-3.0351,-2.9892,-2.9717,-2.9629,-2.9629,-2.9496,-2.9406,-2.9406,-2.9178,-2.8763,-2.8176,-2.7834,-2.7012,-2.5837,-2.5342,-2.4951,-2.4781,-2.4526,-2.4399,-2.4341,-2.3598,-2.3541,-2.3826,-2.3221,-2.3513,-2.4095,0.0,0.0,-0.8415,-0.728,-0.7887,-0.9325,-1.161,-1.2818,-1.4487,-1.7247,-1.939,-1.1256,1.36,1.2866,1.1694,1.4709,0.0,0.0,1.8839,2.058,2.1738,2.2259,2.3157,2.3914,2.4467,2.4463,2.5126,2.6476,2.6611,2.709,2.7889,2.7944,2.7701,2.7193,2.6877,2.6023,2.4715,2.3034,2.2605,2.3285,2.5578,2.529,2.3478,2.3317,2.3296,2.1588,0.8824,0.0,0.0,0.0,-0.2233,-0.4659,-0.4729,-0.8519,0.0,-1.3014,-1.3541,-1.4633,-1.6714,-1.6916,-1.7076,-1.9339,-1.9936,-2.0396,-2.1996,-2.2807,-2.3528,-2.4599,-2.5022,-2.5544,-2.6522,-2.6691,-2.6691,-2.6691,-2.7036,-2.7147,-2.6758,-2.7036,-2.739,-2.7724,-2.7789,-2.8397,-2.9939,-3.0734,-3.1173,-3.119,-3.119,-3.119,-3.119,-3.119,-3.1151,-3.1151,-3.0576,-3.0251,-3.0251,-2.9673,-2.9406,-2.9406,-2.8685,-2.8038,-2.741,-2.6105,-2.5063,-2.435,-2.435,-2.3884,-2.3125,-2.231,-2.2002,-2.1939,-2.1037,-2.0477,-1.998,-1.9482,-2.1046,-2.3247,0.0,0.0,0.0,-0.758,-0.7642,-0.8261,-0.9342,-1.0809,-1.1417,-1.0281,-0.9149,0.0,0.0,0.0,0.0,0.0,1.8455,1.9175,2.018,2.2705,2.4192,2.4192,2.5355,2.6073,2.625,2.6269,2.6681,2.7535,2.7622,2.7809,2.8063,2.808,2.7984,2.7744,2.7462,2.7191,2.694,2.6711,2.5627,2.4232,2.5983,2.6292,2.5497,2.4112,2.3606,2.3049,0.0,0.0,0.0,0.7039,0.5845,0.3616,-0.03,-0.5512,-1.0553,-1.235,-1.3481,-1.4244,-1.4989,-1.6361,-1.7682,-1.8143,-1.9146,-2.0259,-2.116,-2.151,-2.1958,-2.3007,-2.3911,-2.4832,-2.5729,-2.6335,-2.6791,-2.7051,-2.7004,-2.6841,-2.6725,-2.725,-2.7658,-2.7791,-2.8721,-2.955,-3.0057,-3.0328,-3.0666,-3.1157,-3.119,-3.1015,-3.0601,-3.0601,-3.0251,-2.9451,-2.9225,-2.8904,-2.8528,-2.8304,-2.8222,-2.8222,-2.747,-2.6724,-2.6051,-2.5106,-2.4509,-2.4234,-2.3148,-2.2555,-2.2249,-2.1365,-2.1049,-2.1014,-2.0347,-2.0059,-1.9812,-1.8991,-1.9298,-2.0041,0.0,0.0,0.0,0.0,0.0,0.0,0.0,0.0,0.0,0.0,0.0,0.0,0.0,0.0,0.0,0.0,0.0,2.1859,0.0,0.0,2.5361,2.5654,2.6479,2.7075,2.738,2.738,2.788,2.8884,2.8984,2.9313,2.9899,2.9898,2.9819,2.9647,2.9473,2.9309,2.9233,2.9779,2.8712,2.6787,2.7861,2.83,2.8156,2.6842,2.566,0.0,0.0,0.0,0.0,1.5262,1.4094,1.2153,0.8947,0.3316,-0.2842,-0.6117,-0.8376,-1.0287,-1.2684,-1.4807,-1.6338,-1.6453,-1.7475,-1.8688,-1.9597,-1.995,-2.046,-2.1732,-2.314,-2.439,-2.534,-2.6369,-2.7282,-2.784,-2.7575,-2.7401,-2.7691,-2.7896,-2.8185,-2.8569,-2.9516,-3.0209,-3.048,-3.0497,-3.0683,-3.1157,-3.119,-3.0935,-3.0335,-3.0293,-2.9865,-2.8873,-2.8606,-2.8319,-2.791,-2.7444,-2.6916,-2.6428,-2.5946,-2.5342,-2.4553,-2.38,-2.3446,-2.3386,-2.2039,-2.1428,-2.1365,-2.0462,-2.004,-1.9843,-1.9232,-1.8835,-1.8459,-1.7857,-1.7524,-1.7399,0.0,0.0,0.0,0.0,0.0,0.0,0.0,0.0,0.0,0.0,0.0,0.0,0.0,0.0,0.0,0.0,0.0,0.0,0.0,0.0,0.0,2.6718,2.6754,2.7159,2.8025,2.8044,2.8854,3.0513,3.0685,3.1538,3.3043,3.314,3.2985,3.2615,3.26,3.2147,3.1439,3.2004,3.1646,3.0777,3.1142,3.1291,3.1339,3.1287,0.0,0.0,0.0,0.0,0.0,2.3866,2.2014,2.0018,2.1711,1.6607,0.9228,0.525,0.1249,-0.3292,-0.9643,-1.2091,-1.3148,-1.437,-1.5045,-1.5825,-1.7343,-1.8124,-1.9008,-2.087,-2.2663,-2.4198,-2.5334,-2.6792,-2.8117,-2.8953,-2.8732,-2.8693,-2.9469,-2.8951,-2.8905,-2.9959,-3.0142,-3.0429,-3.1083,-3.1151,-3.1151,-3.1112,-3.1151,-3.0878,-3.0293,-3.0251,-2.9995,-2.9361,-2.8779,-2.8463,-2.8415,-2.7108,-2.5728,-2.4292,-2.4221,-2.3813,-2.3017,-2.2187,-2.1815,-2.1753,-2.091,-2.0526,-2.0462,-1.9596,-1.894,-1.8478,-1.7641,-1.6797,-1.6064,-1.6035,-1.5702,-1.5459,0.0,0.0,0.0,0.0,0.0,0.0,0.0,0.0,0.0,0.0,0.0,0.0,0.0,0.0,0.0,0.0,0.0,0.0,0.0,0.0,0.0,0.0,0.0,2.9021,2.989,2.991,0.0,0.0,0.0,3.1791,3.221,3.2791,3.2968,3.2807,3.2611,3.2653,3.2868,3.2817,3.2648,3.2411,0.0,3.2787,3.3071,0.0,0.0,0.0,0.0,0.0,0.0,2.7623,2.4089,1.9901,2.0994,1.8249,1.4408,1.3349,0.6602,-0.0881,-0.26,-0.7402,-1.2064,-1.2598,-1.3598,-1.4792,-1.6026,-1.6634,-1.7693,-2.0326,-2.2102,-2.3851,-2.5876,-2.7361,-2.8459,-2.913,-2.9022,-2.8917,-2.9123,-2.9462,-2.9763,-3.0057,-3.0581,-3.0813,-3.0543,-3.0518,-3.0335,-2.9892,-3.0267,-3.0251,-2.9673,-2.9629,-2.9361,-2.8732,-2.8606,-2.8012,-2.7019,-2.6108,-2.5231,-2.4292,-2.3644,-2.293,-2.2199,-2.1302,-2.091,-2.091,-2.0009,-1.9628,-1.953,-1.8375,-1.779,-1.7621,-1.6776,-1.5942,-1.5142,-1.4837,-1.4234,-1.37,0.0,0.0,0.0,0.0,0.0,0.0,0.0,0.0,0.0,0.0,0.0,0.0,0.0,0.0,0.0,0.0,0.0,0.0,0.0,0.0,0.0,0.0,0.0,2.9674,3.0568,3.0964,0.0,0.0,0.0,0.0,0.0,3.2848,3.2948,3.2766,3.2611,3.2594,3.2683,3.2381,0.0,0.0,0.0,0.0,0.0,0.0,0.0,0.0,0.0,0.0,0.0,2.825,2.5361,2.1969,2.1153,1.9929,1.8436,1.638,1.1677,0.6175,0.1786,-0.4294,-0.946,-0.9682,-1.1689,-1.385,-1.4815,-1.5874,-1.7313,-1.9841,-2.1976,-2.4015,-2.5957,-2.7402,-2.863,-2.9786,-2.9584,-2.9502,-3.0133,-3.027,-3.0384,-3.0548,-3.0954,-3.1055,-3.074,-3.0435,-3.0038,-2.9451,-2.9717,-2.9629,-2.9042,-2.8717,-2.8242,-2.7665,-2.7333,-2.6649,-2.5563,-2.5119,-2.4496,-2.3767,-2.3255,-2.264,-2.1877,-2.0974,-2.0398,-2.0009,-1.911,-1.8388,-1.7836,-1.7092,-1.6393,-1.5698,-1.5168,-1.4639,-1.4022,-1.3752,-1.3466,-1.3211,0.0,0.0,0.0,0.0,0.0,0.0,0.0,0.0,0.0,0.0,0.0,0.0,0.0,0.0,0.0,0.0,0.0,0.0,0.0,0.0,0.0,0.0,0.0,2.962,3.0583,3.1343,3.1733,0.0,0.0,0.0,0.0,0.0,0.0,0.0,0.0,0.0,0.0,0.0,0.0,0.0,0.0,0.0,0.0,0.0,0.0,0.0,0.0,0.0,0.0,0.0,2.615,2.4713,2.1713,2.1245,2.0976,1.6712,1.5639,1.3839,0.4487,-0.1809,-0.6067,-0.7572,-1.0532,-1.3242,-1.4024,-1.5632,-1.7518,-1.9676,-2.2126,-2.4376,-2.6057,-2.7487,-2.8878,-3.0481,-3.0314,-3.0377,-3.1539,-3.111,-3.0827,-3.1145,-3.1106,-3.105,-3.1095,-3.0517,-2.9874,-2.9217,-2.9127,-2.8902,-2.8415,-2.759,-2.6879,-2.639,-2.5618,-2.4951,-2.4292,-2.4176,-2.3767,-2.3078,-2.2884,-2.2372,-2.1678,-2.0579,-1.9661,-1.889,-1.7988,-1.6936,-1.5887,-1.5788,-1.4911,-1.3667,-1.3567,-1.3244,-1.2891,-1.2891,-1.2962,-1.3108,0.0,0.0,0.0,0.0,0.0,0.0,0.0,0.0,0.0,0.0,-0.1227,0.2769,0.0,0.0,0.0,0.0,0.0,0.0,0.0,0.0,0.0,0.0,0.0,2.9526,3.0576,3.0751,3.0841,3.0838,0.0,0.0,0.0,0.0,0.0,0.0,0.0,0.0,0.0,0.0,0.0,0.0,0.0,0.0,0.0,0.0,0.0,0.0,0.0,0.0,0.0,0.0,2.7099,2.4943,2.2102,2.0758,1.9853,1.8027,1.5578,1.232,0.6963,0.2243,-0.3114,-1.1455,-1.34,-1.3583,-1.4596,-1.6014,-1.7854,-2.0724,-2.2547,-2.4509,-2.7317,-2.8942,-2.9973,-3.0378,-3.1001,-3.1414,-3.1334,-3.1172,-3.1099,-3.1173,-3.0666,-3.032,-3.0468,-2.9791,-2.8955,-2.7903,-2.7812,-2.7798,-2.778,-2.6453,-2.57,-2.5618,-2.4908,-2.4452,-2.4292,-2.3649,-2.3245,-2.3065,-2.1678,-2.0974,-2.0782,-1.8372,-1.7239,-1.7023,-1.5806,-1.5155,-1.4909,-1.4292,-1.402,-1.3933,-1.3331,-1.2805,-1.236,-1.236,-1.1955,-1.1511,0.0,0.0,0.0,0.0,0.0,0.0,0.0,-0.8941,-0.8973,-0.8699,-0.6896,-0.4823,-0.2676,0.1336,0.5405,0.0,0.0,0.0,0.0,0.0,0.0,0.0,0.0,2.9051,2.9698,3.0324,3.0466,3.0081,0.0,0.0,2.9962,3.0377,3.0271,2.9724,0.0,0.0,0.0,0.0,0.0,0.0,0.0,0.0,0.0,0.0,0.0,0.0,0.0,0.0,0.0,0.0,2.9214,2.6791,2.3438,2.1991,2.1151,1.9137,1.7523,1.4987,0.8223,0.3266,-0.1838,-0.9527,-1.2984,-1.453,-1.4922,-1.6767,-1.9128,-2.1638,-2.3796,-2.6108,-2.8957,-2.9904,-3.0581,-3.1542,-3.1859,-3.1945,-3.1775,-3.1642,-3.1449,-3.123,-3.0548,-3.0128,-3.0195,-2.8993,-2.7843,-2.6927,-2.6023,-2.5639,-2.6056,-2.4749,-2.3742,-2.3369,-2.3059,-2.2832,-2.2832,-2.2288,-2.1872,-2.1675,-2.0973,-1.9975,-1.8783,-1.7539,-1.6486,-1.5549,-1.4833,-1.4105,-1.3513,-1.3115,-1.2716,-1.222,-1.1907,-1.157,-1.1404,-1.1502,-1.1062,-1.0511,0.0,0.0,0.0,0.0,0.0,0.0,0.0,-0.9246,-0.9452,-1.0798,-1.0598,-1.0387,-1.0574,-0.6063,-0.1496,0.0,0.0,0.0,0.0,0.0,0.0,0.0,0.0,2.7961,2.8203,0.0,0.0,2.9425,2.9697,0.0,0.0,0.0,0.0,0.0,2.7599,2.7256,2.6319,0.0,0.0,0.0,0.0,2.9813,0.0,0.0,0.0,0.0,0.0,0.0,0.0,0.0,3.1172,2.8955,2.5328,2.3819,2.2972,2.0744,1.988,1.7852,0.9436,0.3668,-0.1335,-0.6931,-1.1984,-1.5674,-1.58,-1.8026,-2.062,-2.2755,-2.5187,-2.7613,-2.9992,-3.0387,-3.0884,-3.2411,-3.2479,-3.2363,-3.2447,-3.2241,-3.1793,-3.1151,-3.0564,-3.0187,-3.0108,-2.8672,-2.7322,-2.6411,-2.4269,-2.3299,-2.4005,-2.3133,-2.2268,-2.1549,-2.1493,-2.1493,-2.1493,-2.1064,-2.07,-2.0377,-2.0154,-1.9009,-1.707,-1.6821,-1.5791,-1.4283,-1.3792,-1.3029,-1.2086,-1.2012,-1.1504,-1.0719,-1.0719,-1.056,-1.0451,-1.0797,-1.0343,-0.971,0.0,0.0,0.0,0.0,0.0,0.0,0.0,-1.049,-1.0673,-1.3154,-1.1015,-1.0298,-1.3099,-1.1751,-0.8702,0.0,0.0,0.0,0.0,0.0,0.0,0.0,0.0,0.0,0.0,0.0,0.0,2.8871,2.8085,0.0,0.0,0.0,0.0,0.0,0.0,2.6401,2.6236,2.5386,0.0,0.0,0.0,0.0,0.0,0.0,0.0,0.0,0.0,3.4737,3.4986,3.3121,3.19,3.0665,2.7691,2.5539,2.4019,2.3654,2.1728,1.8228,1.1402,0.489,-0.1343,-0.6901,-1.2361,-1.6779,-1.8147,-1.9988,-2.2067,-2.432,-2.6283,-2.8004,-2.9279,-3.0102,-3.0852,-3.1759,-3.2373,-3.281,-3.301,-3.2915,-3.2282,-3.0907,-3.0681,-3.0504,-3.0146,-2.9453,-2.8313,-2.6604,-2.3089,-2.1275,-2.175,-2.2322,-2.2268,-2.1549,-2.1493,-2.1493,-2.1493,-2.0827,-2.0413,-2.0366,-1.8912,-1.774,-1.6766,-1.5145,-1.3933,-1.3005,-1.1815,-1.1206,-1.11,-1.09,-1.0863,-1.0955,-1.0955,-1.0562,-0.9978,-1.0314,-0.9769,-0.8942,0.0,0.0,0.0,0.0,0.0,0.0,-1.1669,-1.1828,-1.212,-1.2822,-1.2944,-1.3307,-1.4084,-1.4615,-1.3597,-1.0324,0.0,0.0,0.0,0.0,0.0,0.0,0.0,0.0,0.0,0.0,2.4571,2.4228,2.3396,0.0,0.0,0.0,0.0,0.0,0.0,2.282,2.2178,2.1396,0.0,0.0,0.0,0.0,0.0,0.0,0.0,0.0,0.0,0.0,3.4532,3.4584,3.2706,3.0193,2.9505,2.6462,2.3385,2.4423,2.3476,2.0782,1.4672,0.6649,-0.074,-0.3973,-1.2074,-1.9341,-1.9538,-2.1691,-2.4157,-2.6001,-2.7765,-2.9399,-3.0821,-3.1351,-3.1968,-3.3278,-3.3576,-3.3736,-3.4033,-3.3808,-3.3271,-3.2282,-3.1444,-3.0816,-3.0504,-2.8998,-2.7004,-2.4405,-2.2462,-2.094,-1.9848,-2.0093,-2.0147,-1.9794,-1.94,-1.9124,-1.9124,-1.8691,-1.8356,-1.8067,-1.749,-1.6336,-1.4728,-1.4064,-1.3048,-1.1741,-1.105,-1.0735,-1.0722,-1.0672,-1.0728,-1.0929,-1.0315,-1.0,-0.984,-0.9581,-0.8797,-0.795,0.0,0.0,0.0,0.0,0.0,-1.208,-1.2188,-1.2833,-1.3248,-1.3259,-1.4515,-1.5337,-1.5219,-1.6523,-1.6739,-1.5079,-1.4037,0.0,0.0,0.0,0.0,0.0,0.0,0.0,0.0,0.0,1.8449,1.9252,1.8362,1.8715,0.0,0.0,2.0322,2.0067,0.0,0.0,0.0,0.0,0.0,0.0,0.0,0.0,0.0,0.0,0.0,0.0,0.0,0.0,0.0,0.0,0.0,3.0174,2.8677,0.0,0.0,2.2842,2.1312,1.8179,1.4242,0.6712,-0.1451,-0.7391,-1.5553,-2.2035,-2.1874,-2.3828,-2.6122,-2.766,-2.9331,-3.0784,-3.1658,-3.2206,-3.2909,-3.4039,-3.4215,-3.4389,-3.4817,-3.4614,-3.4091,-3.3199,-3.2418,-3.1685,-3.0884,-2.8497,-2.594,-2.3403,-2.2148,-2.0861,-1.9364,-1.8691,-1.8394,-1.8394,-1.7841,-1.7578,-1.7578,-1.7209,-1.6817,-1.6503,-1.6146,-1.5032,-1.3255,-1.3129,-1.2251,-1.0855,-1.0648,-1.0474,-1.029,-1.029,-1.0255,-1.0166,-0.9553,-0.92,-0.909,-0.867,-0.7864,-0.7072,0.0,0.0,0.0,0.0,0.0,0.0,-1.3141,-1.3313,-1.3925,-1.5389,-1.5197,-1.5464,-1.6881,-1.7671,-1.7949,-1.7588,-1.6847,0.0,0.0,0.0,0.0,0.0,0.0,0.0,0.0,0.0,0.9568,1.4685,1.3393,1.5262,2.0013,1.9683,1.9519,1.9483,0.0,0.0,0.0,0.0,0.0,0.0,0.0,0.0,0.0,0.0,0.0,0.0,0.0,0.0,0.0,0.0,0.0,0.0,0.0,0.0,0.0,0.0,1.3894,0.8158,0.8553,0.4425,-0.3878,-2.0102,-2.4264,-2.464,-2.5697,-2.6625,-2.7718,-2.9269,-3.0957,-3.1914,-3.1074,-3.2215,-3.3282,-3.3301,-3.3871,-3.4521,-3.5193,-3.5226,-3.4633,-3.3181,-3.3619,-3.3283,-3.1288,-2.8208,-2.5791,-2.4577,-2.2153,-2.0718,-2.0652,-1.874,-1.7633,-1.7633,-1.7578,-1.7578,-1.7578,-1.6877,-1.6492,-1.6492,-1.4982,-1.3803,-1.2948,-1.2212,-1.1351,-1.0624,-1.0624,-1.0193,-0.9499,-0.9499,-0.9094,-0.8418,-0.8702,-0.8208,-0.736,-0.7706,-0.7173,-0.6335,0.0,0.0,0.0,0.0,0.0,0.0,0.0,-1.4456,-1.5132,-1.5536,-1.6554,-1.7242,-1.7243,-1.8521,-1.9566,-1.9889,-1.872,0.0,0.0,0.0,0.0,0.0,0.0,0.0,0.0,0.0,-0.159,0.333,0.2577,0.3279,0.5371,0.5272,0.5266,0.5294,0.5631,0.5739,0.0,0.0,0.0,0.0,0.0,0.0,0.0,0.0,0.0,0.0,0.0,0.0,0.0,0.0,0.0,0.0,0.0,0.0,0.0,0.1103,0.2373,0.4098,0.4251,-0.0784,-0.7485,-1.3315,-2.0585,-2.6274,-2.6119,-2.7305,-2.8973,-3.0802,-3.1616,-3.2084,-3.2411,-3.2883,-3.3432,-3.4022,-3.4294,-3.474,-3.5597,-3.5415,-3.498,-3.4371,-3.3167,-3.1648,-2.9782,-2.8059,-2.6002,-2.3419,-2.2458,-2.1217,-1.9454,-1.8205,-1.7578,-1.7578,-1.6631,-1.6083,-1.6083,-1.5323,-1.4914,-1.4914,-1.3906,-1.294,-1.2143,-1.1896,-1.1351,-1.0568,-1.0043,-0.97,-0.9449,-0.8927,-0.8709,-0.8625,-0.8043,-0.7716,-0.7542,-0.7,-0.6567,-0.6338,0.0,0.0,0.0,0.0,0.0,0.0,0.0,-1.5429,-1.6065,-1.6237,-1.764,-1.8529,-1.8287,-1.9693,-2.09,-2.1605,-2.0757,0.0,0.0,0.0,0.0,0.0,0.0,0.0,0.0,-1.1653,-1.0431,-0.7466,-0.7609,-0.7627,-0.7538,-0.8299,-0.8598,-0.8568,-0.7814,-0.7311,0.0,0.0,0.0,0.0,0.0,0.0,0.0,0.0,0.0,0.0,0.0,0.0,0.0,0.0,0.0,0.0,0.0,0.0,0.0,0.0,-1.066,-0.8165,-0.6658,-1.1092,-1.6308,-1.703,-2.2601,-2.7846,-2.7702,-2.8688,-2.995,-3.1151,-3.1923,-3.2467,-3.2675,-3.3464,-3.4179,-3.4392,-3.4689,-3.5057,-3.5561,-3.5384,-3.5113,-3.4889,-3.3028,-3.111,-2.9513,-2.769,-2.5611,-2.3162,-2.2273,-2.1151,-1.9556,-1.8553,-1.7907,-1.7633,-1.6187,-1.5225,-1.4932,-1.4451,-1.4034,-1.3726,-1.294,-1.2266,-1.1772,-1.1469,-1.0912,-1.006,-0.9664,-0.9153,0.0,-0.8155,-0.7929,-0.7816,-0.7151,-0.7071,-0.7176,-0.6567,-0.6338,-0.6338,0.0,0.0,0.0,0.0,0.0,0.0,0.0,-1.62,-1.6765,-1.7282,-1.8472,-1.94,-1.9927,-2.1052,-2.2055,-2.2693,0.0,0.0,0.0,0.0,0.0,0.0,0.0,0.0,0.0,-1.6816,-1.6941,-1.7022,-1.6459,-1.6821,-1.7894,-1.9715,-2.0653,-2.0715,-1.9488,-1.8584,0.0,0.0,0.0,0.0,0.0,0.0,0.0,0.0,0.0,0.0,0.0,0.0,0.0,0.0,0.0,0.0,0.0,0.0,0.0,0.0,0.0,0.0,0.0,-2.4464,-2.8126,-2.8427,-2.8756,-2.9226,-3.0047,-3.0413,0.0,-3.0665,-3.2007,-3.296,-3.2195,-3.4001,-3.5338,-3.4524,-3.502,-3.5435,-3.5247,-3.5155,-3.5022,-3.4786,-3.2973,-3.1313,-3.0142,-2.7162,-2.4753,-2.3561,-2.172,-2.0706,-2.0655,-1.9376,-1.8286,-1.7633,-1.6187,-1.4991,-1.4213,-1.4145,-1.3726,-1.2887,-1.2081,-1.171,-1.1578,-1.0863,-1.004,-0.9221,-0.9285,-0.85,-0.7095,-0.7208,-0.687,-0.6338,-0.6338,-0.6338,-0.6338,-0.6338,-0.6338,-0.6338,0.0,0.0,0.0,0.0,0.0,0.0,0.0,0.0,0.0,0.0,-1.943,-2.0513,-2.0578,-2.171,-2.274,0.0,0.0,0.0,0.0,0.0,0.0,0.0,0.0,0.0,0.0,-2.0378,-2.0404,-2.0366,-1.9707,-1.9767,-2.0351,-2.0322,-2.0962,-2.2122,-2.058,0.0,0.0,0.0,0.0,0.0,0.0,0.0,0.0,0.0,0.0,0.0,-2.4462,-2.3936,0.0,0.0,0.0,0.0,0.0,0.0,0.0,0.0,-2.7119,-2.7918,-2.7232,0.0,-2.7567,-2.7659,-2.8376,-2.9185,0.0,-2.9917,-3.0381,-3.1259,-3.2265,-3.3114,-3.3577,-3.468,-3.5464,-3.5252,-3.5366,-3.5488,-3.5506,-3.4759,-3.4231,-3.4346,-3.1542,-2.9522,-2.9297,-2.6076,-2.3454,-2.2163,-2.1248,-2.0476,-2.0024,-1.8614,-1.7797,-1.7633,-1.6187,-1.4991,-1.4213,-1.3614,-1.2879,-1.2081,-1.1288,-1.0541,-0.9901,-0.9716,-0.9134,-0.8312,-0.7829,-0.746,-0.7103,-0.6689,-0.6454,-0.6338,-0.6338,-0.6338,-0.6338,-0.6338,-0.6338,-0.6264,0.0,0.0,0.0,0.0,0.0,0.0,0.0,0.0,0.0,0.0,0.0,0.0,0.0,0.0,0.0,0.0,0.0,0.0,0.0,0.0,0.0,0.0,0.0,0.0,-2.1632,-2.2248,-2.2228,-2.1588,-2.1825,-2.1734,-2.1432,-2.1581,-2.2089,-2.2961,-2.2283,0.0,0.0,0.0,0.0,0.0,0.0,0.0,0.0,0.0,0.0,0.0,-2.5837,-2.6605,0.0,-2.8563,-2.9402,-2.9956,0.0,0.0,0.0,0.0,-2.9062,-2.9111,-2.9206,-2.902,-2.8822,-2.902,-2.9897,-3.0749,-3.0888,-3.0852,-3.095,-3.1558,0.0,-3.29,-3.3493,-3.4532,-3.5367,-3.5482,-3.5494,-3.548,-3.5429,-3.445,-3.3652,-3.3499,-3.0993,-2.8975,-2.8157,-2.561,-2.335,-2.1772,-2.1118,-2.0321,-1.9331,-1.8555,-1.7797,-1.7146,-1.6312,-1.5206,-1.3666,-1.3252,-1.2197,-1.0647,-1.0225,-0.9524,-0.8683,-0.8683,-0.8221,-0.7396,-0.7194,-0.6865,-0.6467,-0.6359,-0.6338,-0.6338,-0.6338,-0.6338,-0.6338,-0.6268,-0.6271,-0.6271,0.0,0.0,0.0,0.0,0.0,0.0,0.0,0.0,0.0,0.0,0.0,0.0,0.0,0.0,0.0,0.0,0.0,0.0,0.0,0.0,0.0,0.0,0.0,-2.1988,-2.1991,-2.3047,-2.3173,-2.2269,-2.3173,-2.3153,-2.232,-2.3077,-2.3516,-2.3608,-2.4356,-2.4648,0.0,0.0,0.0,0.0,0.0,0.0,0.0,0.0,0.0,0.0,0.0,0.0,0.0,-2.8988,-2.971,-3.0382,-3.0618,0.0,0.0,0.0,0.0,0.0,-2.9551,-3.0132,-3.081,-3.0904,-3.1743,-3.2534,-3.2584,0.0,0.0,0.0,0.0,0.0,-3.2795,-3.4079,-3.5195,-3.5463,-3.5494,-3.5382,-3.5029,-3.408,-3.3179,-3.2512,-3.0698,-2.8847,-2.7238,-2.5425,-2.3627,-2.1819,-2.1161,-2.0181,-1.8768,-1.8608,-1.7841,-1.6358,-1.6312,-1.5187,-1.2818,-1.2948,-1.1764,-0.9274,-0.9274,-0.8748,-0.7832,-0.7832,-0.7307,-0.6544,-0.6753,-0.6489,-0.5823,-0.6108,-0.624,-0.6338,-0.6338,-0.6264,-0.6264,-0.6274,-0.6119,-0.5883,0.0,0.0,0.0,0.0,0.0,0.0,0.0,0.0,0.0,0.0,0.0,0.0,0.0,0.0,0.0,0.0,0.0,0.0,0.0,0.0,0.0,0.0,-2.3968,-2.3288,-2.3222,-2.3435,-2.3963,-2.4919,-2.3963,-2.4009,-2.4976,-2.447,-2.4482,-2.4997,-2.6536,-2.7003,-2.6727,0.0,0.0,0.0,-2.9831,0.0,0.0,0.0,0.0,0.0,0.0,0.0,0.0,-2.9078,-2.9759,-3.0549,-3.0598,0.0,0.0,0.0,0.0,0.0,-2.9988,-3.1183,-3.2229,-3.0977,-3.1429,-3.224,-3.2447,-3.1735,0.0,0.0,0.0,-3.2336,-3.2598,-3.4,-3.5182,-3.5463,-3.5493,-3.5142,-3.4143,-3.3418,-3.269,-3.1853,-2.9612,-2.7903,-2.7401,-2.51,-2.3098,-2.1805,-2.1161,-2.0181,-1.8768,-1.8124,-1.7047,-1.5543,-1.5545,-1.4433,-1.202,-1.2634,-1.1764,-0.9274,-0.9274,-0.8484,-0.6915,-0.6915,-0.6396,-0.5631,-0.5751,-0.5828,-0.5817,-0.5989,-0.6142,-0.6338,-0.6338,-0.6268,-0.6278,-0.6278,-0.5168,-0.383,0.0,0.0,0.0,0.0,0.0,0.0,0.0,0.0,0.0,0.0,0.0,0.0,0.0,0.0,0.0,0.0,0.0,0.0,0.0,0.0,0.0,-2.6414,-2.5571,-2.4859,-2.4429,-2.4752,-2.4889,-2.4739,-2.4496,-2.4529,-2.4808,-2.5116,-2.5524,-2.6068,-2.7242,-2.7666,-2.7554,0.0,0.0,0.0,0.0,0.0,0.0,0.0,0.0,0.0,0.0,0.0,0.0,0.0,-2.9874,-3.0462,-3.0568,0.0,0.0,0.0,0.0,0.0,-2.9943,-3.1124,-3.2269,-3.146,-3.26,-3.3971,-3.4083,-3.3387,-3.2695,0.0,-3.2765,-3.2953,-3.3249,-3.416,-3.503,-3.543,-3.5107,-3.4634,-3.4137,-3.3048,-3.193,-3.0865,-2.9299,-2.7751,-2.6345,-2.48,-2.3286,-2.1838,-2.1161,-2.0181,-1.8768,-1.7588,-1.6444,-1.536,-1.4532,-1.3356,-1.1834,-1.2143,-1.1329,-0.9274,-0.8812,-0.7962,-0.6654,-0.6203,-0.5749,-0.5435,-0.5521,-0.5671,-0.5813,-0.5966,-0.6125,-0.6271,-0.6271,-0.6278,-0.6288,-0.6302,-0.4238,-0.1253,0.0,0.0,0.0,0.0,0.0,0.0,0.0,0.0,0.0,0.0,0.0,0.0,0.0,0.0,0.0,0.0,0.0,0.0,0.0,0.0,-2.7313,-2.7259,-2.6783,-2.6076,-2.5237,-2.5527,-2.5249,-2.4324,-2.4509,-2.4548,-2.4434,-2.5872,-2.6809,-2.7278,-2.8048,-2.8494,-2.8733,-2.9915,0.0,0.0,0.0,0.0,0.0,0.0,0.0,0.0,0.0,0.0,0.0,0.0,0.0,0.0,0.0,0.0,0.0,-3.0606,-3.0507,-3.0299,-2.9896,-3.0875,-3.1937,-3.173,0.0,-3.4923,-3.533,-3.4496,-3.3674,-3.3767,-3.3615,-3.3464,-3.3492,-3.3895,-3.4339,-3.4742,-3.4301,-3.3854,-3.3703,-3.2589,-3.1308,-3.0037,-2.9152,-2.7881,-2.5801,-2.4736,-2.3541,-2.1983,-2.1197,-2.0118,-1.8555,-1.7114,-1.5924,-1.4789,-1.3648,-1.252,-1.1531,-1.1516,-1.0766,-0.9274,-0.842,-0.7567,-0.6654,-0.5815,-0.5428,-0.5435,-0.5488,-0.564,-0.5817,-0.5862,-0.6101,-0.6281,-0.5721,-0.5889,-0.6064,-0.4086,-0.1333,0.1885,0.0,0.0,0.0,0.0,0.0,0.0,0.0,0.0,0.0,0.0,0.0,0.0,0.0,0.0,0.0,0.0,0.0,0.0,0.0,0.0,-2.7252,-2.7125,-2.7059,-2.6477,-2.5237,-2.4569,-2.4515,-2.5019,-2.3792,-2.3872,-2.5343,-2.7255,-2.8425,-2.8947,-2.9774,-3.0486,-3.1158,-3.1264,-3.1709,0.0,0.0,0.0,0.0,0.0,0.0,0.0,0.0,0.0,0.0,0.0,0.0,0.0,0.0,0.0,-3.0606,-3.0606,-3.0507,-3.0343,-3.0061,-3.0838,-3.168,-3.1401,-3.2064,-3.3231,-3.4773,-3.3488,-3.2312,-3.3549,-3.3691,-3.3333,-3.2492,-3.2557,-3.2768,-3.2801,-3.2912,-3.2732,-3.2,-3.1773,-3.1181,-2.9708,-2.8998,-2.8123,-2.6905,-2.5199,-2.3694,-2.2538,-2.1445,-1.9902,-1.7786,-1.6847,-1.5408,-1.3235,-1.3061,-1.2274,-1.0681,-1.0634,-1.0186,-0.9274,-0.842,-0.7567,-0.6654,-0.5815,-0.5428,-0.5428,-0.5439,-0.5549,-0.5686,-0.5696,-0.5949,-0.6132,-0.4144,-0.455,-0.5364,0.2511,0.5605,0.5605,0.0,0.0,0.0,0.0,0.0,0.0,0.0,0.0,0.0,0.0,0.0,0.0,0.0,0.0,0.0,0.0,0.0,0.0,0.0,0.0,-2.7607,-2.754,-2.7523,-2.71,-2.6139,-2.5392,-2.4928,-2.4712,-2.4458,-2.4618,-2.5274,-2.7682,-2.8918,-2.916,-3.0419,-3.088,-3.0725,-3.1668,-3.1969,-3.1794,0.0,0.0,0.0,0.0,0.0,0.0,0.0,0.0,0.0,0.0,-3.019,-3.0436,-3.0568,-3.0605,-3.0606,-3.0606,-3.0507,-3.0343,-3.0075,-3.0706,-3.1422,-3.1325,-3.1318,0.0,0.0,-3.3085,-3.2542,-3.2764,-3.2909,-3.2865,-3.2511,-3.2739,-3.2921,-3.2801,-3.2421,-3.2046,-3.173,-3.1237,-3.0554,-2.9614,-2.8959,-2.8141,-2.7009,-2.4917,-2.331,-2.2582,-2.1046,-1.9619,-1.8328,-1.7059,-1.5561,-1.3725,-1.2219,-1.0885,-0.9786,-0.9244,-0.879,-0.8484,-0.7632,-0.7046,-0.6654,-0.5815,-0.5428,-0.5428,-0.5369,-0.5494,-0.5627,-0.4334,-0.4839,-0.5711,0.0388,0.2272,0.1724,0.3606,0.5188,0.6146,0.0,0.0,0.0,0.0,0.0,0.0,0.0,0.0,0.0,0.0,0.0,0.0,0.0,0.0,0.0,0.0,0.0,0.0,0.0,-2.7046,-2.7588,-2.7964,-2.7981,-2.7827,-2.7444,-2.6482,-2.562,-2.4831,-2.5369,-2.569,-2.5861,-2.8308,-2.9448,-2.9502,-3.083,-3.1088,-3.0657,-3.1703,-3.1846,0.0,0.0,0.0,0.0,0.0,0.0,0.0,0.0,0.0,0.0,0.0,-3.0263,-3.0428,-3.0568,-3.0605,-3.0606,-3.0606,-3.0707,-3.0744,-3.0266,-3.0729,-3.1303,-3.1073,0.0,0.0,-3.1859,-3.2217,-3.232,-3.2393,-3.2263,-3.2141,-3.2298,-3.2181,-3.2079,-3.2045,-3.162,-3.1295,-3.1295,-3.0794,-3.019,-2.9557,-2.8959,-2.808,-2.6722,-2.4589,-2.2994,-2.2267,-2.0492,-1.915,-1.8382,-1.6648,-1.51,-1.3775,-1.141,-0.9882,-0.9274,-0.8156,-0.7642,-0.7722,-0.6732,-0.6465,-0.6654,-0.5818,-0.5432,-0.5369,-0.5379,-0.5474,-0.5487,-0.4106,-0.3043,-0.1761,0.4064,0.6325,0.6155,0.4623,0.5012,0.6288,0.0,0.0,0.0,0.0,0.0,0.0,0.0,0.0,0.0,0.0,0.0,0.0,0.0,0.0,0.0,0.0,0.0,0.0,-2.5509,-2.6268,-2.7197,-2.833,-2.8397,-2.8572,-2.8983,-2.7561,-2.6428,-2.5592,-2.6411,-2.6968,-2.7339,-2.9284,-3.021,-3.0246,-3.1035,-3.1384,-3.1384,-3.1384,0.0,0.0,0.0,0.0,0.0,0.0,0.0,0.0,0.0,0.0,0.0,0.0,-3.0491,-3.0606,-3.0606,-3.0605,-3.0606,-3.0606,-3.1169,-3.1593,-3.0648,-3.0922,-3.1311,-3.0583,-3.0196,-3.0075,-3.0343,-3.0704,-3.1343,-3.2615,-3.1863,-3.1142,-3.161,-3.0598,-2.9819,-3.0155,-3.0315,-3.0398,-3.0398,-3.0398,-3.0157,-2.9576,-2.8959,-2.789,-2.6092,-2.4311,-2.282,-2.168,-1.9775,-1.8394,-1.7633,-1.5399,-1.3784,-1.3009,-1.0584,-0.9274,-0.9274,-0.7567,-0.6806,-0.7047,-0.5911,-0.5826,-0.6654,-0.5763,-0.5379,-0.5379,-0.5389,-0.542,-0.5367,-0.5294,-0.0749,0.625,0.6329,0.6315,0.6295,0.6281,0.6278,0.6278,0.0,0.0,0.0,0.0,0.0,0.0,0.0,0.0,0.0,0.0,0.0,0.0,0.0,0.0,0.0,0.0,0.0,0.0,0.0,-2.4729,-2.5647,-2.6788,-2.6853,-2.7278,-2.8216,-2.8351,-2.7487,-2.5592,-2.6078,-2.6639,-2.7339,-2.9284,-3.021,-3.0228,-3.1256,-3.127,-3.0619,0.0,0.0,0.0,-3.1385,0.0,0.0,0.0,0.0,0.0,0.0,0.0,0.0,0.0,0.0,0.0,-3.0606,-3.1015,-3.1397,-3.0775,-3.0994,-3.1251,-3.036,-3.0289,-3.0385,-3.0174,-3.0061,-3.0075,-3.0343,-3.0347,-3.0428,-3.0962,-3.0801,-3.0649,-3.093,-3.0625,-3.0353,-3.0396,-3.0389,-3.0398,-3.0398,-3.0032,-2.9693,-2.9523,-2.8558,-2.7363,-2.6044,-2.4311,-2.26,-2.0933,-1.9506,-1.8167,-1.6866,-1.5071,-1.3399,-1.2143,-0.9636,-0.806,-0.7502,-0.6346,-0.5833,-0.5911,-0.4289,-0.4289,-0.5778,-0.5519,-0.4706,-0.3551,-0.4852,-0.5426,-0.4944,0.0587,0.3277,0.4231,0.5736,0.6288,0.6281,0.6271,0.6268,0.6268,0.0,0.0,0.0,0.0,0.0,0.0,0.0,0.0,0.0,0.0,0.0,0.0,0.0,0.0,0.0,0.0,0.0,0.0,0.0,0.0,-2.4765,-2.6359,-2.644,-2.7017,-2.8308,-2.8496,-2.8036,-2.6952,-2.7429,-2.7858,-2.8286,-2.945,-2.9996,-3.0036,-3.0667,-3.0611,-3.0055,-3.0686,0.0,0.0,-3.0725,-3.0673,-3.0263,0.0,0.0,0.0,0.0,0.0,0.0,0.0,0.0,0.0,-3.0606,0.0,-3.131,-3.0751,-3.1061,-3.137,-3.0462,-3.0417,-3.0566,-3.0266,-3.0092,-3.0028,-3.0209,-3.0222,-3.024,-3.0388,-3.0385,-3.045,-3.0723,-3.0581,-3.0462,-3.0533,-3.0458,-3.0367,-3.0254,-2.9813,-2.9362,-2.9018,-2.8171,-2.677,-2.4632,-2.3468,-2.1872,-1.9509,-1.8419,-1.7147,-1.5581,-1.3992,-1.2361,-1.0739,-0.8692,-0.7377,-0.6876,-0.5907,-0.5386,-0.5393,-0.2811,-0.147,-0.1204,-0.4102,-0.4033,-0.1672,-0.1897,-0.2007,-0.1566,0.4022,0.5542,0.4535,0.5802,0.6274,0.6271,0.6264,0.6338,0.6338,0.0,0.0,0.0,0.0,0.0,0.0,0.0,0.0,0.0,0.0,0.0,0.0,0.0,0.0,0.0,0.0,0.0,0.0,0.0,0.0,-2.4453,-2.6641,-2.6908,-2.7633,-2.8975,-2.8356,-2.836,-2.904,-2.9577,-2.9771,-2.9678,-2.9621,-2.9583,-2.9564,0.0,-2.9487,-2.947,-2.958,-2.96,-2.9583,-2.9693,-2.9731,-2.9731,-2.9765,0.0,0.0,0.0,0.0,0.0,0.0,0.0,0.0,-3.06,-3.0691,-3.0777,-3.0641,-3.1235,-3.1734,-3.0735,-3.0969,-3.1329,-3.0662,-3.0248,-3.0037,-3.0028,-3.0279,-3.0521,-3.0562,-3.045,-3.0451,-3.0818,-3.0527,-3.0302,-3.0559,-3.0453,-3.0267,-3.0028,-2.9647,-2.9097,-2.8286,-2.7708,-2.5999,-2.2541,-2.2101,-2.0731,-1.7632,-1.6743,-1.5658,-1.3888,-1.2316,-1.0746,-0.9186,-0.7722,-0.6841,-0.6705,-0.5855,-0.5403,-0.5346,-0.1404,0.221,0.5138,-0.1608,-0.275,0.0602,0.2489,0.3341,0.3495,0.5495,0.6325,0.6278,0.6278,0.6271,0.6338,0.6338,0.6338,0.6338,0.0,0.0,0.0,0.0,0.0,0.0,0.0,0.0,0.0,0.0,0.0,0.0,0.0,0.0,0.0,0.0,0.0,0.0,0.0,0.0,-2.4799,-2.6177,-2.7725,-2.8675,-2.8994,-2.9457,-2.9554,-2.931,-2.8773,-2.8834,-2.9455,-2.893,0.0,-2.8659,0.0,-2.7896,-2.7794,-2.8628,-2.8878,-2.8751,-2.9611,-2.9939,-2.9954,-3.0169,-3.0286,0.0,0.0,0.0,0.0,0.0,0.0,0.0,-3.0581,-3.1046,-3.1445,-3.0793,-3.104,-3.1352,-3.0492,-3.0414,-3.0537,-3.0382,-3.0366,-3.0393,-3.0328,-3.0443,-3.0542,-3.0393,-3.0585,-3.0778,-3.0751,-3.0622,-3.0525,-3.0517,-3.0267,-3.0075,-3.0013,-2.9116,-2.8391,-2.8229,-2.6642,-2.4668,-2.244,-2.1398,-1.9485,-1.6017,-1.5658,-1.4576,-1.2332,-1.0608,-0.9452,-0.8807,-0.6815,-0.5096,-0.3678,-0.4782,-0.541,-0.5343,0.1138,0.4654,0.5276,0.2345,0.214,0.4244,0.4962,0.5297,0.54,0.6043,0.6325,0.6264,0.6264,0.6264,0.6338,0.6338,0.6338,0.6338,0.0,0.0,0.0,0.0,0.0,0.0,0.0,0.0,0.0,0.0,0.0,0.0,0.0,0.0,0.0,0.0,0.0,0.0,0.0,0.0,-2.5087,-2.6609,-2.8182,-2.8994,-2.8994,-2.942,-2.954,-2.9412,-2.9026,-2.9156,0.0,0.0,0.0,-2.9332,0.0,-2.8211,0.0,-2.8337,-2.833,-2.8288,-2.9267,-2.9659,-2.9717,-3.0258,-3.0451,-3.0441,-3.0414,0.0,0.0,0.0,0.0,0.0,0.0,0.0,-3.1171,-3.0696,-3.0808,-3.0967,-3.051,-3.0413,-3.0436,-3.0436,-3.0494,-3.0545,-3.0498,-3.0575,-3.0628,-3.0514,-3.0716,-3.0741,-3.0216,-3.0384,-3.0406,-2.9825,-2.9883,-2.987,-2.9494,-2.8709,-2.7888,-2.7056,-2.5499,-2.3518,-2.1101,-1.9645,-1.7702,-1.4964,-1.4396,-1.3099,-1.0615,-1.0053,-0.8935,-0.7204,-0.5981,-0.4919,-0.4036,-0.1474,-0.0201,-0.0201,0.3625,0.5393,0.5389,0.4428,0.4498,0.5406,0.5701,0.5823,0.5909,0.6218,0.6268,0.6338,0.6338,0.6338,0.6338,0.6338,0.6338,0.6338,0.0,0.0,0.0,0.0,0.0,0.0,0.0,0.0,0.0,0.0,0.0,0.0,0.0,0.0,0.0,0.0,0.0,0.0,0.0,-2.4599,-2.5572,-2.732,-2.8424,-2.8994,-2.8994,-2.8994,-2.9134,-2.9412,-2.9607,0.0,0.0,0.0,0.0,-3.014,0.0,0.0,0.0,-2.8421,-2.8229,-2.8315,-2.9188,-2.9524,-2.9596,-3.025,-3.0498,-3.0481,-3.0417,-3.0398,-3.0398,-3.0398,0.0,0.0,0.0,0.0,-3.0657,-3.0545,-3.0605,-3.0651,-3.0574,-3.056,-3.0567,-3.0603,-3.0623,-3.0603,-3.0606,-3.0661,-3.0696,-3.0696,-3.0797,-3.0563,-2.9617,-3.0019,-3.0172,-2.9021,-2.937,-2.9492,-2.8645,-2.7957,-2.6951,-2.5324,-2.3927,-2.2017,-1.9258,-1.7611,-1.5904,-1.3939,-1.3053,-1.1549,-0.9267,-0.9548,-0.8473,-0.5516,-0.4782,-0.4177,-0.3565,0.2079,0.5065,0.541,0.5389,0.5505,0.5624,0.5463,0.5416,0.543,0.5688,0.5817,0.5864,0.6146,0.6338,0.6338,0.6338,0.6338,0.6338,0.6338,0.6338,0.6412,0.0,0.0,0.0,0.0,0.0,0.0,0.0,0.0,0.0,0.0,0.0,-2.6295,-2.5578,-2.4817,0.0,0.0,0.0,0.0,-2.418,0.0,0.0,-2.7688,-2.8553,-2.8994,-2.8994,-2.8994,-2.9134,-2.9412,-2.9607,0.0,0.0,0.0,0.0,-2.9248,0.0,0.0,0.0,0.0,-2.9213,-2.9271,-3.0094,-3.0425,-3.0438,-3.0482,-3.0498,-3.0481,-3.0417,-3.0398,-3.0398,-3.0398,-3.0421,0.0,0.0,0.0,-3.0526,-3.0564,-3.0606,-3.0567,-3.0392,-3.0374,-3.0467,-3.0638,-3.0687,-3.0677,-3.0617,-3.0661,-3.0696,-3.0696,-3.0703,-3.0391,-2.9344,-2.9747,-2.9874,-2.8738,-2.8783,-2.8567,-2.7486,-2.5987,-2.4563,-2.331,-2.13,-1.9271,-1.7489,-1.6234,-1.4557,-1.2312,-1.1308,-1.0262,-0.8927,-0.8022,-0.6915,-0.5473,-0.2344,0.0802,0.3907,0.3355,0.3828,0.5396,0.5386,0.5826,0.6531,0.5834,0.5562,0.5569,0.5732,0.5878,0.6013,0.619,0.6338,0.6338,0.6338,0.6338,0.6338,0.6338,0.6338,0.6412,0.0,0.0,0.0,0.0,0.0,0.0,0.0,0.0,0.0,0.0,0.0,-2.6283,-2.6116,-2.5421,0.0,0.0,0.0,0.0,-2.4832,-2.5529,0.0,0.0,-2.8136,-2.8539,-2.8975,-2.9156,-2.9332,-2.957,0.0,0.0,0.0,-2.9985,-2.9883,0.0,0.0,0.0,0.0,0.0,-2.8739,-2.8798,-2.9695,-3.0294,-3.0648,-3.0581,-3.0839,-3.1158,-3.059,-3.0398,-3.0398,-3.0398,-3.0398,-3.041,-3.043,0.0,0.0,0.0,-3.0566,-3.0593,-3.0541,-3.0891,-3.1219,-3.0888,-3.0814,-3.0793,-3.0762,-3.0788,-3.0814,-3.0814,-3.064,-3.003,-2.8636,-2.9252,-2.9375,-2.755,-2.7584,-2.7487,-2.6416,-2.4709,-2.2866,-2.0992,-1.9145,-1.714,-1.4857,-1.3381,-1.1989,-1.0461,-0.9824,-0.9034,-0.7897,-0.8591,-0.794,-0.548,0.0067,0.3766,0.5413,0.5239,0.5749,0.6881,0.6872,0.7055,0.7377,0.6614,0.624,0.6279,0.6043,0.5969,0.604,0.6196,0.6338,0.6338,0.6338,0.6644,0.7176,0.7176,0.748,0.8161,0.0,0.0,0.0,0.0,0.0,0.0,0.0,0.0,0.0,0.0,0.0,0.0,-2.6316,0.0,0.0,0.0,0.0,0.0,-2.5072,0.0,0.0,0.0,0.0,-2.8081,-2.8686,-2.8931,-2.9288,-2.9696,0.0,0.0,-3.041,-3.0482,-3.0516,0.0,-2.9853,-2.9635,0.0,0.0,0.0,-2.8974,-2.9882,-3.0443,-3.0739,-3.1115,-3.1479,-3.17,-3.0987,-3.0737,-3.0698,-3.0456,-3.0398,-3.0398,-3.0398,-3.0451,0.0,0.0,0.0,-3.0517,-3.0648,-3.1256,-3.1739,-3.1282,-3.1189,-3.1189,-3.1211,-3.1055,-3.0898,-3.0898,-3.0467,-2.9641,-2.8162,-2.8798,-2.8875,-2.6735,-2.6579,-2.6213,-2.4749,-2.2866,-2.0661,-1.818,-1.6591,-1.4744,-1.2434,-1.0988,-0.9844,-0.9157,-0.8646,-0.8249,-0.8032,-0.8788,-0.726,-0.282,0.2146,0.4928,0.5403,0.6444,0.7339,0.8027,0.8027,0.8091,0.8291,0.7494,0.727,0.7496,0.6429,0.6162,0.6468,0.6364,0.6567,0.7022,0.6795,0.7326,0.8161,0.8161,0.8694,0.9448,0.0,0.0,0.0,0.0,0.0,0.0,0.0,0.0,0.0,0.0,0.0,0.0,0.0,0.0,0.0,0.0,0.0,0.0,0.0,0.0,0.0,0.0,0.0,0.0,0.0,-2.8061,-2.8671,0.0,0.0,0.0,-3.041,-3.0482,-3.0537,-3.06,-3.0611,-3.0632,-3.0635,0.0,0.0,0.0,-3.1719,-3.1519,-3.0866,-3.2464,-3.2536,-3.1797,-3.168,-3.1641,-3.1506,-3.0679,-3.0398,-3.0398,-3.0398,-3.0451,-3.0498,0.0,0.0,0.0,-3.0534,-3.1,-3.1516,-3.1859,-3.1942,-3.1987,-3.2109,-3.1484,-3.0898,-3.0898,-3.0125,-2.9197,-2.8332,-2.8558,-2.8383,-2.6934,-2.6136,-2.4729,-2.2096,-1.979,-1.7342,-1.4676,-1.2929,-1.1613,-1.0718,-0.9819,-0.9157,-0.8874,-0.7831,-0.8103,-1.0309,-0.7412,-0.2415,0.459,0.3558,0.3685,0.5379,0.6276,0.7181,0.8027,0.8027,0.842,0.9215,0.8456,0.855,0.9243,0.6863,0.6563,0.7617,0.6718,0.7403,0.9074,0.8084,0.8313,0.9221,0.9221,0.9221,0.9448,0.0,0.0,0.0,0.0,0.0,0.0,0.0,0.0,0.0,0.0,0.0,0.0,0.0,-2.5678,-2.5383,-2.43,-2.419,0.0,0.0,0.0,0.0,0.0,0.0,0.0,0.0,-2.8563,0.0,0.0,0.0,-2.9849,-3.041,-3.0516,-3.0283,-2.9763,-2.9874,-3.0257,-3.0797,-3.0273,-3.0391,-3.0937,-3.123,-3.1743,-3.2249,-3.1721,-3.1945,-3.2336,-3.1078,-3.0714,-3.0777,-3.0166,-3.0037,-3.015,-3.015,-3.0151,-3.0225,-3.0482,-3.0916,-3.1209,-3.0774,-3.1183,-3.1712,-3.1693,-3.1688,-3.1855,-3.2498,-3.1973,-3.1425,-3.1678,-2.9863,-2.8086,-2.7605,-2.726,-2.6506,-2.4795,-2.3474,-2.1873,-1.9638,-1.7606,-1.5345,-1.2819,-1.1544,-1.0229,-0.8495,-0.8042,-0.7536,-0.6647,-0.6262,-0.6352,-0.7203,-0.1674,0.2753,0.5343,0.4776,0.5286,0.706,0.7377,0.828,0.9646,0.9646,0.9843,1.011,0.9297,0.9091,0.9438,0.7966,0.7744,0.8417,0.8259,0.8613,0.9296,0.8922,0.9367,1.0265,1.0265,1.0645,1.1248,0.0,0.0,0.0,0.0,0.0,0.0,0.0,0.0,0.0,-2.5126,0.0,0.0,0.0,0.0,-2.509,-2.4263,-2.419,-2.419,-2.419,0.0,0.0,0.0,0.0,0.0,0.0,-2.8174,0.0,0.0,0.0,0.0,0.0,-3.0078,-2.9681,-2.8907,-2.9016,-2.958,0.0,-3.0156,-3.0371,-3.0937,-3.1211,-3.1743,-3.2302,-3.1701,-3.1906,-3.2343,-3.0939,-3.0543,-3.0636,-3.0248,-3.0007,-2.9965,-3.0216,-3.0148,-3.006,-3.0447,-3.0969,-3.1284,-3.0796,-3.1246,-3.1907,-3.2064,-3.1824,-3.1853,-3.3053,-3.2233,-3.1318,-3.1593,-2.9432,-2.7323,-2.6802,-2.555,-2.4227,-2.3134,-2.1483,-1.9824,-1.8137,-1.61,-1.3906,-1.1524,-1.0345,-0.904,-0.7522,-0.63,-0.5568,-0.5399,-0.5406,-0.4314,-0.1878,0.2753,0.5543,0.5937,0.5907,0.6675,0.842,0.842,0.9198,1.0624,1.0624,1.0624,1.0561,0.9977,0.9814,0.9849,0.9336,0.9237,0.9322,0.9188,0.96,1.0276,0.997,1.0415,1.1316,1.1316,1.1694,1.2305,0.0,0.0,0.0,0.0,0.0,0.0,0.0,0.0,-2.5565,-2.4353,0.0,0.0,0.0,0.0,0.0,-2.4263,-2.419,-2.419,-2.419,-2.419,0.0,0.0,0.0,0.0,0.0,-2.6837,0.0,0.0,0.0,0.0,0.0,0.0,-2.8771,-2.8096,-2.82,-2.8722,-2.957,-3.0488,-3.0879,-3.0976,-3.1816,-3.1597,-3.0902,-3.2503,-3.2567,-3.1729,-3.1383,-3.1253,-3.1222,-3.0957,-3.0376,-2.9866,-3.0658,-3.0492,-3.0051,-3.0385,-3.0447,-3.0414,0.0,0.0,0.0,-3.2979,-3.2408,-3.2052,-3.3774,-3.2274,-3.0549,-3.0584,-2.8772,-2.6913,-2.6074,-2.3529,-2.1652,-2.1993,-2.0447,-1.8773,-1.7656,-1.5223,-1.2734,-1.0692,-0.8865,-0.7844,-0.791,-0.4764,-0.3357,-0.4931,-0.5068,-0.2012,0.4931,0.5346,0.5937,0.7043,0.6806,0.7567,0.9274,0.9274,0.9722,1.0624,1.0624,1.0624,1.0618,1.0624,1.0624,1.0638,1.0855,1.0746,1.0312,0.9301,1.025,1.2211,1.1236,1.1465,1.2305,1.2305,1.2305,1.2305,0.0,0.0,0.0,0.0,0.0,-2.7576,-2.6097,-2.6186,-2.5902,0.0,0.0,0.0,-2.4281,-2.4392,-2.4428,-2.4208,-2.419,-2.419,-2.419,-2.419,-2.419,-2.419,-2.575,-2.6612,-2.6612,-2.7797,-2.8762,-2.9474,-2.8604,-2.8715,-2.9721,-2.8772,-2.8248,-2.8124,-2.8824,-2.8605,-2.7812,-2.9316,-3.0312,-3.0918,-3.1152,-3.1372,-3.1543,-3.139,-3.1361,-3.1325,-3.0462,-3.0139,-3.0182,-3.0339,-3.0501,-3.0675,-3.0901,-3.0445,-2.9842,-3.0175,-3.0133,-3.0045,-3.0435,0.0,0.0,0.0,0.0,0.0,-3.2929,-3.2202,-3.1107,-3.0442,-2.8264,-2.5945,-2.4171,-2.1793,-1.9907,-1.9156,-1.8767,-1.7744,-1.5219,-1.1688,-0.8692,-0.6951,-0.466,-0.4006,-0.5952,-0.4034,-0.1298,0.215,0.2417,0.2684,0.3422,0.4706,0.5841,0.6802,0.6724,0.7567,0.9274,0.9274,0.9722,1.0624,1.0624,1.0926,1.1469,1.0863,1.0926,1.1413,1.0953,1.0758,1.085,1.0968,1.1403,1.2011,1.1918,1.2077,1.2305,1.2305,1.2305,1.2305,0.0,0.0,0.0,0.0,-2.7368,-2.7121,-2.6141,-2.5919,-2.5585,0.0,0.0,0.0,-2.4704,-2.4685,-2.4685,-2.4685,-2.4392,-2.419,-2.419,-2.419,-2.419,-2.419,-2.5419,-2.6264,-2.6594,-2.753,-2.8452,-2.9412,-2.8634,-2.8693,-2.9479,-2.871,-2.8028,-2.7569,-2.889,-2.8723,-2.7614,-2.9394,-3.0234,-3.0391,-3.0742,-3.1101,-3.1344,-3.0792,-3.0748,-3.0874,-3.0016,-2.9746,-2.9859,-3.0109,-3.0409,-3.0633,-3.0415,-2.9983,-2.9625,-2.9912,-2.9889,-2.9808,-3.0123,-3.012,-3.0233,-3.1044,0.0,0.0,-3.139,-3.0683,-2.9483,-2.7924,-2.5981,-2.3819,-2.1588,-1.9805,-1.8342,-1.7222,-1.5813,-1.4732,-1.4514,-0.9344,-0.4295,-0.0877,0.0068,0.0207,-0.0485,-0.0486,0.0899,0.4044,0.4956,0.4922,0.3887,0.5153,0.6342,0.7242,0.7567,0.8415,0.9849,0.9849,1.011,1.0624,1.0926,1.1163,1.1288,1.1538,1.1476,1.1288,1.117,1.1023,1.0848,1.1309,1.1643,1.1897,1.2191,1.2305,1.2305,1.2305,1.2305,1.2305,0.0,0.0,-2.6905,-2.7182,-2.677,-2.6314,-2.5985,-2.5407,-2.5063,0.0,-2.4704,-2.4667,-2.5586,-2.5513,-2.5439,-2.5531,-2.4722,-2.4245,-2.4318,-2.4245,-2.417,-2.4151,-2.4921,-2.5672,-2.6405,-2.6588,-2.7527,-2.9202,-2.8481,-2.8367,-2.8884,-2.8722,-2.8003,-2.6908,-2.8534,-2.8821,-2.8164,-2.9998,-3.0312,-2.9668,-3.0449,-3.0678,-3.0547,-3.0472,-3.0404,-3.0259,-2.9851,-2.9796,-2.9959,-3.0179,-3.0215,-3.011,-2.9662,-2.9522,-2.9506,-2.9626,-2.9681,-2.9699,-2.9775,-2.9711,-2.9844,-3.0733,-3.0313,0.0,-2.9598,-2.8633,-2.7061,-2.461,-2.3252,-2.1758,-1.9251,-1.8214,-1.7316,-1.6011,-1.2833,-1.1629,-1.4924,-0.7418,0.0337,0.5644,0.4591,0.4199,0.614,0.4349,0.3079,0.3002,0.4572,0.5519,0.5575,0.6338,0.7242,0.8091,0.8877,0.9722,1.0561,1.0624,1.0624,1.0624,1.1351,1.1413,1.0933,1.2274,1.2151,1.1052,1.1593,1.1406,1.0771,1.094,1.1323,1.185,1.2138,1.2271,1.2305,1.2305,1.2305,1.2305,0.0,-2.721,-2.7502,-2.6915,-2.7717,-2.7755,-2.581,-2.5941,-2.5795,-2.4593,-2.485,-2.5733,-2.7163,-2.6193,-2.5658,-2.6319,-2.5034,-2.4465,-2.5127,-2.4557,-2.4074,-2.3816,-2.4574,-2.5063,-2.5226,-2.6499,-2.7479,-2.8113,-2.8101,-2.8577,-2.95,-2.8308,-2.7754,-2.776,-2.8171,-2.792,-2.7264,-2.908,-2.9766,-2.9609,-2.9785,-2.9771,-2.9659,-2.9574,-2.9369,-2.9167,-2.955,-2.9626,-2.9606,-3.0288,-3.0387,-3.0202,-3.0336,-3.0213,-2.9964,-2.956,-2.9529,-2.9635,-2.9701,-2.9133,-2.8654,-2.9344,-2.9209,0.0,-2.8907,-2.8708,-2.788,-2.539,-2.4703,-2.358,-2.0483,-1.946,-1.8301,-1.577,-1.4757,-1.4608,-1.5297,-0.3899,0.4999,0.618,0.5908,0.5862,0.6237,0.5734,0.5296,0.512,0.5911,0.647,0.6465,0.7246,0.8156,0.9005,0.9204,0.9722,1.0561,1.0624,1.0624,1.0624,1.0744,1.1413,1.252,1.2205,1.2565,1.3416,1.232,1.171,1.1553,1.1187,1.1202,1.1543,1.1837,1.2098,1.2305,1.2305,1.2305,1.2305,-2.6556,-2.7178,-2.7543,-2.7328,-2.7741,-2.7624,-2.6206,-2.5988,-2.586,-2.5456,-2.6447,-2.72,-2.72,-2.6833,-2.6759,-2.7163,-2.6098,-2.5401,-2.5403,-2.5035,-2.4534,-2.3955,-2.4194,-2.4486,-2.4883,-2.6085,-2.697,-2.7551,-2.822,-2.8903,-2.9551,-2.8898,-2.8436,-2.8224,-2.8962,-2.8793,-2.8043,-2.9528,-3.0193,-3.0215,-2.9743,-2.9481,-2.9341,-2.8832,-2.8772,-2.8964,-2.902,-2.912,-2.928,-2.9818,-2.9817,-2.9586,-2.9517,-2.9531,-2.9465,-2.8846,-2.8819,-2.8967,-2.8832,-2.842,-2.8111,-2.8427,-2.8479,0.0,0.0,-2.6627,-2.5609,-2.2503,-2.1763,-2.0667,-1.7211,-1.7049,-1.5292,-0.8935,-1.1224,-1.1786,-0.5874,0.0568,0.5069,0.6187,0.6243,0.62,0.6286,0.6127,0.605,0.6295,0.7059,0.748,0.7377,0.8156,0.8877,0.9274,0.9722,1.0174,1.0624,1.0624,1.0807,1.1226,1.16,1.2212,1.3009,1.3416,1.3597,1.3545,1.2757,1.2143,1.1717,1.1085,1.0949,1.1236,1.1536,1.1824,1.2084,1.2084,1.2178,1.2305,-2.6336,-2.6933,-2.7374,-2.7617,-2.7557,-2.7236,-2.6698,-2.6172,-2.6098,-2.6759,-2.797,-2.8338,-2.72,-2.7493,-2.786,-2.8026,-2.7145,-2.6392,-2.5899,-2.5733,-2.5287,-2.447,-2.4042,-2.4105,-2.4682,-2.5494,-2.6267,-2.6952,-2.8251,-2.9007,-2.9293,-2.9514,-2.9226,-2.8515,-2.9617,-2.9727,-2.9133,-3.0024,-3.0567,-3.0779,-2.9845,-2.946,-2.9323,-2.8385,-2.8452,-2.9017,-2.8717,-2.8666,-2.8819,-2.9191,-2.9178,-2.8952,-2.8633,-2.8791,-2.8974,-2.821,-2.8209,-2.8335,-2.7989,-2.7736,-2.7542,-2.7613,-2.7635,-2.715,0.0,0.0,0.0,-2.0034,-1.9036,-1.7665,-1.4227,-1.4423,-1.2299,-0.3801,-0.6022,-0.525,0.5164,0.5156,0.4865,0.7096,0.6746,0.6568,0.7073,0.7139,0.7186,0.7289,0.842,0.8915,0.8364,0.9098,0.953,0.953,1.0238,1.0624,1.0624,1.0744,1.117,1.1834,1.2634,1.307,1.3312,1.4569,1.4569,1.3425,1.3312,1.2757,1.1958,1.117,1.0944,1.119,1.1424,1.1695,1.1942,1.2077,1.2195,1.2305,-2.5592,-2.6573,-2.72,-2.6884,-2.762,-2.7888,-2.679,-2.7126,-2.7548,-2.764,-2.7824,-2.8136,-2.8686,-2.8172,-2.8081,-2.8792,-2.7493,-2.6869,-2.7475,-2.6851,-2.6118,-2.5369,-2.4704,-2.4212,-2.4015,-2.4801,-2.5366,-2.5709,-2.7561,-2.8609,-2.8879,-2.9275,-2.9193,-2.8751,-2.8736,-2.8961,-2.9355,-2.9308,-2.9838,-3.066,-2.9775,-2.9429,-2.9383,-2.8442,-2.8435,-2.8948,-2.9192,-2.8711,-2.8044,-2.8782,-2.904,-2.8994,-2.8952,-2.9198,-2.9375,-2.8567,-2.8415,-2.8404,-2.7988,-2.7063,-2.6282,-2.6589,-2.6095,-2.548,-2.5211,0.0,-2.3784,-2.2345,0.0,-1.9369,-1.6392,0.0,0.0,-0.9433,-0.1951,0.5259,1.073,0.9187,0.8309,1.0689,0.9006,0.8273,1.0054,1.0767,1.0417,0.8728,1.0646,1.121,0.9603,1.0109,1.0434,1.0434,1.0561,1.0624,1.0624,1.1288,1.171,1.1834,1.2634,1.3364,1.4094,1.4264,1.4628,1.5108,1.4382,1.3606,1.2818,1.202,1.167,1.1737,1.199,1.2034,1.2013,1.2713,1.2692,1.2305,-2.5541,-2.6692,-2.759,-2.7416,-2.8144,-2.8414,-2.7435,-2.7585,-2.7622,-2.7163,-2.7915,-2.8448,-2.8319,-2.8429,-2.8631,-2.8957,-2.8609,-2.8179,-2.7824,-2.7489,-2.6856,-2.5839,-2.5121,-2.4478,-2.3898,-2.5114,-2.5582,-2.5277,-2.7201,-2.8272,-2.8567,-2.8897,-2.901,-2.8932,-2.9112,-2.936,-2.9629,-2.9752,-3.0115,-3.0613,-3.0291,-3.0154,-2.9922,-2.7969,-2.7217,-2.7286,-2.7771,-2.7894,-2.782,-2.7929,-2.8414,-2.8863,-2.821,-2.8576,-2.9,-2.776,-2.7739,-2.801,-2.739,-2.6607,-2.6033,-2.616,-2.5713,-2.5051,-2.4368,-2.3712,-2.2776,-2.1192,0.0,0.0,0.0,0.0,0.0,0.0,-0.0399,0.5306,0.9632,0.879,0.8689,1.164,1.0507,0.9541,0.982,1.0651,1.0491,0.8888,1.1325,1.2217,1.0533,1.0679,1.0735,1.0624,1.0624,1.0624,1.0624,1.0926,1.1593,1.2512,1.2826,1.3674,1.4874,1.4874,1.505,1.5352,1.4569,1.3726,1.2948,1.2143,1.1531,1.1178,1.2242,1.2387,1.2169,1.2636,1.2501,1.2078,-2.5609,-2.6753,-2.7783,-2.7869,-2.843,-2.868,-2.8187,-2.8136,-2.7915,-2.7346,-2.826,-2.8796,-2.8191,-2.865,-2.9085,-2.9329,-2.9497,-2.9303,-2.8669,-2.8309,-2.7685,-2.6694,-2.5792,-2.5046,-2.4396,-2.5446,-2.5769,-2.5247,-2.6912,-2.7851,-2.8112,-2.8499,-2.8777,-2.8943,-2.9418,-2.9687,-2.9832,-3.0139,-3.0363,-3.0501,-3.0608,-3.0425,-2.9896,-2.7902,-2.6637,-2.6005,-2.66,-2.7112,-2.7431,-2.7254,-2.7919,-2.8676,-2.7747,-2.7964,-2.829,-2.7031,-2.6985,-2.7269,-2.6657,-2.6139,-2.5762,-2.5762,-2.5373,-2.4681,-2.3548,-2.2744,-2.1788,-2.0041,-1.8573,0.0,0.0,0.0,-0.7954,-0.4176,0.0,0.352,0.7982,0.8157,0.8998,1.2398,1.2508,1.1952,1.0917,1.1932,1.2005,1.0271,1.2544,1.3226,1.1317,1.1082,1.0895,1.0752,1.0665,1.0624,1.0624,1.0807,1.1538,1.2696,1.2879,1.3734,1.505,1.505,1.505,1.505,1.4451,1.3606,1.2634,1.202,1.1593,1.1365,1.2685,1.2931,1.2554,1.2912,1.2579,1.1911,-2.5609,-2.6522,-2.7439,-2.784,-2.8183,-2.8522,-2.8915,-2.8957,-2.8938,-2.892,-2.8957,-2.8975,-2.8957,-2.8975,-2.9329,-3.0099,-2.9831,-2.9899,-3.0666,-2.9597,-2.8767,-2.8343,-2.6922,-2.5962,-2.5556,-2.5575,-2.5592,-2.5575,-2.6736,-2.7317,-2.7348,-2.8066,-2.8542,-2.8815,-2.9233,-2.955,-2.9818,-3.0081,-3.021,-3.0232,-3.0424,-2.9841,-2.884,-2.8611,-2.7358,-2.5782,-2.6403,-2.6612,-2.6716,-2.7073,-2.7752,-2.8368,-2.7992,-2.7619,-2.7238,-2.6655,-2.6301,-2.6068,-2.6049,-2.5652,-2.5221,-2.5221,-2.4816,-2.4127,-2.2995,-2.2193,-2.1349,-1.9965,-1.8573,-1.6637,-1.3431,-1.1488,-0.9248,-0.5886,-0.2277,0.0,0.0,0.8466,1.0098,1.3801,1.5547,1.6062,1.5084,1.6651,1.6495,1.3715,1.5026,1.4731,1.205,1.1303,1.0989,1.0982,1.0708,1.0624,1.0624,1.1344,1.1772,1.1834,1.2634,1.3425,1.4273,1.4273,1.4273,1.4273,1.4204,1.3295,1.1826,1.1834,1.2266,1.2981,1.3388,1.3465,1.3387,1.3754,1.3036,1.1911,-2.6336,-2.6847,-2.7426,-2.784,-2.8183,-2.854,-2.8929,-2.8994,-2.8994,-2.8994,-2.8994,-2.8994,-2.8994,-2.8994,-2.9104,-2.936,-2.9728,-2.9958,-2.998,-2.9834,-2.9541,-2.9142,-2.7945,-2.6961,-2.6336,-2.6336,-2.6099,-2.5609,-2.6483,-2.7019,-2.7303,-2.7542,-2.7966,-2.856,-2.8676,-2.9049,-2.955,-2.9817,-2.9909,-2.9886,-2.9946,-2.9734,-2.9323,-2.8749,-2.7344,-2.5708,-2.5795,-2.5664,-2.5538,-2.5958,-2.664,-2.7262,-2.6781,-2.6884,-2.6977,-2.5936,-2.5445,-2.5153,-2.4883,-2.4106,-2.3456,-2.3912,-2.3305,-2.2498,-2.214,-2.1534,-2.0868,-1.9965,-1.8596,-1.6948,-1.4763,-1.2685,-1.0256,-0.7185,-0.4259,-0.066,0.0,0.8014,1.0771,1.2036,1.3481,1.4441,1.464,1.4915,1.4419,1.2823,1.3803,1.3729,1.2019,1.1496,1.1189,1.1002,1.0715,1.0624,1.0624,1.0863,1.1288,1.1834,1.2081,1.2634,1.3425,1.3965,1.4213,1.4213,1.4213,1.3606,1.2573,1.202,1.1655,1.1575,1.3019,1.2836,1.2014,1.368,1.3293,1.1911,-2.6691,-2.6906,-2.7192,-2.7636,-2.8084,-2.8489,-2.8749,-2.8905,-2.8994,-2.8994,-2.8994,-2.8994,-2.8994,-2.8863,-2.8901,-2.9199,-2.9632,-2.9924,-3.0,-3.0075,-2.9966,-2.9711,-2.8762,-2.7875,-2.7114,-2.7097,-2.6725,-2.5998,-2.6471,-2.6841,-2.7083,-2.7224,-2.7542,-2.8012,-2.8366,-2.873,-2.9064,-2.9564,-2.9704,-2.9607,-2.9661,-2.9661,-2.9532,-2.9006,-2.7884,-2.6451,-2.5666,-2.5363,-2.5342,-2.5453,-2.5858,-2.6276,-2.6065,-2.6013,-2.5883,-2.4863,-2.4255,-2.3842,-2.3417,-2.2745,-2.221,-2.2467,-2.1969,-2.1355,-2.1162,-2.0804,-2.0237,-1.9206,-1.8447,-1.7357,-1.5254,-1.3124,-1.0891,-0.8317,-0.5888,-0.236,0.0,0.7687,1.0581,1.0826,1.2469,1.3663,1.3902,1.397,1.3334,1.1689,1.2919,1.3071,1.1584,1.1526,1.145,1.1156,1.0868,1.0732,1.0624,1.0624,1.0863,1.1344,1.1344,1.1779,1.2573,1.3425,1.3606,1.3356,1.3666,1.3122,1.2097,1.1593,1.1226,1.1199,1.2956,1.2786,1.1871,1.3787,1.3459,1.2051,-2.6691,-2.6725,-2.6893,-2.7313,-2.7961,-2.8448,-2.8448,-2.8743,-2.8994,-2.8994,-2.8994,-2.8994,-2.8952,-2.8633,-2.8709,-2.9449,-2.9466,-2.9764,-3.0543,-3.027,-3.0057,-3.0057,-2.933,-2.8569,-2.7789,-2.7755,-2.7384,-2.6657,-2.6691,-2.6691,-2.6725,-2.7083,-2.7272,-2.7348,-2.8337,-2.8621,-2.8453,-2.9322,-2.957,-2.9433,-2.9607,-2.9551,-2.9412,-2.9392,-2.8852,-2.7922,-2.6127,-2.5743,-2.6009,-2.564,-2.5455,-2.5428,-2.5806,-2.5094,-2.4053,-2.3491,-2.2802,-2.2185,-2.1749,-2.1549,-2.1401,-2.0921,-2.0799,-2.0641,-2.0053,-1.9885,-1.9438,-1.7886,-1.812,-1.7675,-1.4768,-1.2886,-1.1065,-0.9204,-0.7063,-0.3115,0.4156,0.7447,0.9402,1.0255,1.2504,1.3753,1.3103,1.3942,1.3462,1.0759,1.2432,1.2785,1.0932,1.1433,1.166,1.1436,1.1076,1.079,1.0624,1.0624,1.0624,1.0624,1.0624,1.0982,1.1772,1.2573,1.2512,1.1826,1.2634,1.2089,1.0681,1.0624,1.1045,1.1864,1.3082,1.3202,1.2841,1.3974,1.3532,1.2305,-2.6691,-2.7148,-2.7741,-2.8458,-2.8708,-2.8948,-2.9242,-2.8869,-2.8658,-2.8952,-2.8994,-2.8905,-2.859,-2.8446,-2.8388,-2.8332,-2.8557,-2.8778,-2.8968,-2.9158,-2.9262,-2.9262,-2.8535,-2.7832,-2.7304,-2.7076,-2.6706,-2.6191,-2.6521,-2.6691,-2.6691,-2.6825,-2.7019,-2.7317,-2.7872,-2.8246,-2.8446,-2.9172,-2.9454,-2.9392,-2.9228,-2.927,-2.9372,-2.9178,-2.9095,-2.8868,-2.7283,-2.6267,-2.5674,-2.5876,-2.5496,-2.4926,-2.47,-2.4159,-2.3429,-2.2437,-2.1386,-2.0539,-2.0381,-1.9728,-1.9086,-1.9471,-1.9224,-1.8976,-1.9269,-1.8661,-1.7897,-1.7438,-1.6983,-1.6297,-1.5206,-1.3289,-1.1421,-1.0122,-0.6172,-0.1955,0.1935,0.4725,0.6777,0.7722,0.8958,1.0764,1.3196,1.2931,1.2213,1.1501,1.1497,1.1304,1.0858,1.0767,1.0935,1.1368,1.0386,1.0118,1.0624,1.0624,1.0624,1.0624,1.0624,1.0681,1.0926,1.1717,1.202,1.1834,1.202,1.1896,1.1469,1.087,1.0744,1.1017,1.221,1.2897,1.3108,1.2928,1.2597,1.2305,-2.7706,-2.8298,-2.8958,-2.9397,-2.9214,-2.9022,-2.9071,-2.8989,-2.8887,-2.8761,-2.8749,-2.8658,-2.842,-2.8112,-2.7833,-2.7648,-2.7932,-2.8134,-2.8134,-2.8677,-2.9011,-2.9011,-2.8353,-2.7805,-2.7414,-2.7069,-2.6701,-2.6297,-2.659,-2.6691,-2.6691,-2.6691,-2.6808,-2.7051,-2.7439,-2.7851,-2.8237,-2.892,-2.9243,-2.9203,-2.9044,-2.9089,0.0,-2.9044,-2.9089,-2.9064,-2.7922,-2.6872,-2.6074,-2.608,-2.5378,-2.447,-2.4273,-2.3488,-2.2452,-2.1534,-2.0421,-1.9401,-1.9166,-1.8462,-1.7788,-1.7918,-1.7728,-1.7596,-1.8209,-1.7626,-1.6884,-1.6828,-1.6452,-1.5828,-1.4753,-1.3319,-1.1476,-0.8954,-0.5015,-0.1601,0.0419,0.3397,0.5597,0.621,0.7423,0.9114,1.1468,1.0931,1.0371,1.0257,1.0551,1.0472,0.9944,1.0363,1.0473,1.0176,1.0208,1.0157,1.0047,1.0408,1.0474,1.0367,0.9974,1.0037,1.043,1.1196,1.1453,1.1288,1.1648,1.1586,1.1226,1.0807,1.0624,1.0651,1.1453,1.2269,1.2935,1.2212,1.2084,1.2372,-2.911,-2.9651,-3.0142,-3.0243,-2.9634,-2.9,-2.8543,-2.8941,-2.9071,-2.8432,-2.8324,-2.8298,-2.8272,-2.7689,-2.7272,-2.7241,-2.7487,-2.7637,-2.7637,-2.8315,-2.8687,-2.8687,-2.8252,-2.7861,-2.7567,-2.7228,-2.6911,-2.6624,-2.6657,-2.6691,-2.6691,-2.6691,-2.6691,-2.6725,-2.7115,-2.756,-2.7992,-2.8718,-2.8994,-2.8994,-2.8994,-2.8994,-2.8994,-2.8994,-2.897,-2.8839,-2.8147,-2.75,-2.6851,-2.6363,-2.533,-2.4217,-2.4099,-2.297,-2.1545,-2.0721,-1.9675,-1.8688,-1.8145,-1.7585,-1.7076,-1.6637,-1.6522,-1.6647,-1.7149,-1.6715,-1.6162,-1.6045,-1.6003,-1.5517,-1.3858,-1.303,-1.1231,-0.7304,-0.4408,-0.2228,-0.1046,0.2157,0.4497,0.4903,0.638,0.0,0.8826,0.8591,0.8394,0.8383,0.9628,0.998,0.8952,0.9977,0.9963,0.8569,0.9852,1.0159,0.9274,0.9869,1.0174,1.0114,0.923,0.923,1.0114,1.0809,1.0927,1.0624,1.1351,1.1226,1.0624,1.0624,1.0624,1.0651,1.0835,1.1574,1.2393,1.1683,1.177,1.2391,-2.9786,-3.0023,-3.0294,-3.0903,-3.0395,-2.9688,-2.8999,-2.8228,-2.7777,-2.7954,-2.801,-2.7851,-2.753,-2.7378,-2.7178,-2.6841,-2.6877,-2.6894,-2.6894,-2.7012,-2.7097,-2.7097,-2.7012,-2.6771,-2.6303,-2.6602,-2.657,-2.612,-2.6505,-2.6691,-2.6691,-2.6691,-2.6691,-2.6725,-2.7115,-2.7689,-2.8342,-2.8797,-2.8994,-2.8994,-2.8994,-2.8994,-2.8994,-2.8994,-2.8797,-2.8446,-2.8065,-2.7809,-2.76,-2.683,-2.5889,-2.4798,-2.3703,-2.2596,-2.1362,-1.9695,-1.8736,-1.8145,-1.7585,-1.7034,-1.6637,-1.6522,-1.6522,-1.6547,-1.6647,-1.5799,-1.4993,-1.4991,-1.4471,-1.3834,-1.3286,-1.2124,-1.061,-0.8707,-0.678,-0.5119,-0.3744,-0.2077,-0.0145,0.2356,0.28,0.3914,0.6599,0.7168,0.7906,0.9181,0.9341,0.9421,0.9542,0.9574,0.9084,0.8136,0.7915,0.8275,0.928,0.8737,0.8995,1.0114,0.923,0.923,1.0114,1.0235,1.0397,1.0624,1.0744,1.0744,1.0624,1.0624,1.0624,1.0624,1.0678,1.0945,1.1295,1.1404,1.1643,1.2087,-3.0598,-3.0666,-3.0666,-3.0632,-3.0023,-2.9262,-2.8501,-2.7572,-2.7147,-2.7547,-2.7589,-2.7517,-2.7334,-2.7115,-2.6906,-2.6725,-2.6691,-2.6691,-2.6691,-2.6691,-2.6691,-2.6691,-2.6487,-2.6332,-2.6367,-2.6396,-2.6412,-2.6367,-2.6412,-2.6521,-2.6691,-2.6436,-2.6487,-2.6742,-2.7528,-2.8062,-2.8435,-2.8819,-2.9122,-2.9275,-2.8864,-2.8682,-2.8682,-2.8682,-2.8464,-2.8102,-2.7736,-2.7404,-2.7123,-2.6791,-2.6052,-2.5045,-2.4023,-2.2783,-2.1406,-1.9895,-1.8804,-1.7987,-1.7463,-1.6909,-1.6522,-1.6522,-1.6238,-1.6051,-1.6051,-1.5096,-1.4236,-1.4236,-1.369,-1.3004,-1.2462,-1.1426,-1.0296,-0.9089,-0.8232,-0.711,-0.54,-0.3853,-0.2279,-0.0278,0.0502,0.1586,0.3457,0.4034,0.5587,0.8496,0.8399,0.8846,1.0466,0.9435,0.8225,0.7036,0.6604,0.6906,0.7967,0.7889,0.8089,0.8663,0.8108,0.8287,0.9136,0.9643,1.0053,1.0341,1.0494,1.0624,1.0624,1.0624,1.0624,1.0624,1.0624,1.0735,1.1009,1.1149,1.1483,1.2026,-3.1004,-3.097,-3.0734,-2.9989,-2.9228,-2.8535,-2.7891,-2.7182,-2.6808,-2.7115,-2.7178,-2.7178,-2.7178,-2.6906,-2.6691,-2.6691,-2.6691,-2.6691,-2.6691,-2.6691,-2.6657,-2.6556,-2.6191,-2.6187,-2.6601,-2.645,-2.6531,-2.6799,-2.6531,-2.645,-2.6601,-2.6228,-2.6383,-2.7044,-2.815,-2.8624,-2.8657,-2.9066,-2.9414,-2.9645,-2.8865,-2.8523,-2.8505,-2.8344,-2.8075,-2.7725,-2.7409,-2.6918,-2.6404,-2.6522,-2.5855,-2.49,-2.4109,-2.2855,-2.1433,-2.0098,-1.896,-1.7977,-1.7468,-1.6842,-1.6293,-1.6293,-1.5876,-1.541,-1.541,-1.4595,-1.3815,-1.3815,-1.3074,-1.2296,-1.1762,-1.0905,-1.0034,-0.9448,-0.9173,-0.8519,-0.692,-0.5329,-0.4025,-0.3231,-0.2046,-0.1062,-0.0409,0.049,0.2308,0.546,0.5754,0.7324,1.1049,0.8812,0.6836,0.54,0.5573,0.6032,0.6719,0.6975,0.7179,0.7277,0.6874,0.7136,0.8004,0.9023,0.9597,0.9884,1.0365,1.0624,1.0624,1.0624,1.0624,1.0624,1.0624,1.0735,1.1002,1.1062,1.1416,1.2053,-3.0345,-3.0209,-2.9973,-2.9211,-2.845,-2.7909,-2.7806,-2.7182,-2.6725,-2.6758,-2.6758,-2.6758,-2.6758,-2.6725,-2.6691,-2.6691,-2.6691,-2.6691,-2.6691,-2.6691,-2.6505,-2.6085,-2.5997,-2.6089,-2.6222,-2.6749,-2.7075,-2.716,-2.7075,-2.6749,-2.6254,-2.6214,-2.683,-2.8015,-2.8971,-2.9384,-2.9418,-2.9843,-3.0031,-2.9991,-2.9243,-2.8953,-2.8865,-2.822,-2.7707,-2.7348,-2.7317,-2.6757,-2.6068,-2.6068,-2.5373,-2.425,-2.3056,-2.2212,-2.1369,-1.9611,-1.8667,-1.8044,-1.7556,-1.6576,-1.5676,-1.5676,-1.5231,-1.4789,-1.4789,-1.4283,-1.3815,-1.3815,-1.2297,-1.1139,-1.1597,-1.0397,-0.9588,-1.0302,-0.9643,-0.9015,-0.9017,-0.7709,-0.6704,-0.6626,-0.5898,-0.5345,-0.5183,-0.2946,-0.1514,-0.1671,-0.0204,0.3599,1.0327,0.6909,0.437,0.3417,0.498,0.6086,0.6719,0.577,0.5943,0.7115,0.6297,0.6345,0.7208,0.8259,0.8872,0.9138,1.0171,1.0624,1.0624,1.0624,1.0624,1.0624,1.0624,1.0735,1.1022,1.1289,1.159,1.2053,-3.0176,-2.9736,-2.9178,-2.8416,-2.8027,-2.7637,-2.7215,-2.6894,-2.6691,-2.6691,-2.6691,-2.6691,-2.6691,-2.6691,-2.6691,-2.6691,-2.6691,-2.6691,-2.6691,-2.6436,-2.6191,-2.6013,-2.5689,-2.5728,-2.6174,-2.6522,-2.6856,-2.7201,-2.7312,-2.7169,-2.6828,-2.7219,-2.7855,-2.8661,-2.9508,-2.9858,-2.9858,-3.002,-3.0197,-3.0331,-2.9597,-2.9022,-2.8617,-2.832,-2.767,-2.6889,-2.6607,-2.6106,-2.5411,-2.4729,-2.4205,-2.3758,-2.326,-2.2207,-2.0935,-1.9926,-1.914,-1.8493,-1.7644,-1.7065,-1.6524,-1.576,-1.5141,-1.4606,-1.4236,-1.3695,-1.3238,-1.3238,-1.2276,-1.1361,-1.1193,-1.0576,-1.0003,-0.9563,-0.9784,-0.9662,-0.89,-0.8597,-0.8281,-0.7826,-0.7514,-0.7285,-0.7252,-0.6207,-0.5253,-0.4583,-0.1739,0.0283,0.0926,0.2651,0.2916,0.1263,0.438,0.5521,0.4337,0.4739,0.5251,0.5748,0.5265,0.5194,0.5596,0.7123,0.8039,0.8471,0.9412,0.9849,0.9849,0.9849,1.011,1.0624,1.0624,1.0735,1.1029,1.1316,1.1617,1.2189,-2.9482,-2.9008,-2.8399,-2.7621,-2.7486,-2.73,-2.6776,-2.6691,-2.6691,-2.6691,-2.6691,-2.6691,-2.6691,-2.6691,-2.6691,-2.6691,-2.6691,-2.6657,-2.6505,-2.6191,-2.5852,-2.554,-2.5182,-2.5203,-2.5723,-2.6354,-2.68,-2.6972,-2.7696,-2.768,-2.6972,-2.7834,-2.8642,-2.9391,-3.0099,-3.0429,-3.0429,-3.0429,-3.0568,-3.0726,-2.9987,-2.9369,-2.8836,-2.8254,-2.7521,-2.6738,-2.6043,-2.5411,-2.4816,-2.383,-2.3259,-2.2951,-2.2773,-2.1823,-2.0698,-2.0092,-1.9495,-1.8848,-1.8059,-1.7384,-1.6648,-1.5784,-1.4845,-1.4071,-1.3647,-1.319,-1.2881,-1.2881,-1.2147,-1.1366,-1.0864,-1.0607,-1.0151,-0.9207,-0.9928,-1.0262,-0.9228,-0.922,-0.9209,-0.8915,-0.8466,-0.8292,-0.8633,-0.8294,-0.7683,-0.6579,-0.3811,-0.316,-0.5428,-0.1322,0.0665,-0.0292,0.2747,0.384,0.2544,0.3142,0.3658,0.4122,0.4051,0.4236,0.4633,0.6302,0.7412,0.8027,0.8678,0.9075,0.9274,0.9274,0.9786,1.0631,1.0719,1.0862,1.1156,1.145,1.1948,1.2656,-2.7994,-2.7806,-2.7588,-2.6843,-2.6708,-2.6708,-2.6691,-2.6691,-2.6691,-2.6691,-2.6691,-2.6691,-2.6691,-2.6691,-2.6691,-2.6691,-2.6691,-2.6505,-2.6049,-2.6013,-2.554,-2.4471,-2.443,-2.448,-2.4612,-2.6424,-2.7068,-2.6421,-2.8352,-2.8294,-2.6437,-2.7767,-2.9075,-3.0318,-3.0902,-3.119,-3.119,-3.119,-3.119,-3.1123,-3.0395,-3.0091,-2.9867,-2.7852,-2.7102,-2.6911,-2.5669,-2.4855,-2.4307,-2.3719,-2.2728,-2.1615,-2.1028,-2.0845,-2.0696,-1.9991,-1.9422,-1.902,-1.8958,-1.729,-1.5533,-1.5522,-1.4173,-1.2929,-1.2929,-1.2929,-1.2881,-1.2881,-1.1792,-1.0813,-1.0813,-1.0269,-0.978,-0.9687,-1.0243,-1.069,-1.0593,-0.9849,-0.9594,-1.0498,-0.9064,-0.8445,-0.9559,-0.8902,-0.8358,-0.8358,-0.766,-0.6796,-0.5846,-0.4375,-0.2829,-0.1202,-0.0391,0.076,0.2084,0.0749,0.0781,0.2232,0.2785,0.3634,0.4834,0.5916,0.699,0.8027,0.8027,0.8484,0.9274,0.9274,0.9786,1.0651,1.0875,1.1169,1.1456,1.1757,1.2684,1.381,-2.784,-2.7402,-2.7131,-2.7418,-2.7029,-2.686,-2.7385,-2.7029,-2.6691,-2.6691,-2.6691,-2.6691,-2.6691,-2.6691,-2.6691,-2.6691,-2.6691,-2.6624,-2.647,-2.6191,-2.5852,-2.5503,-2.4776,-2.4632,-2.5142,-2.5356,-2.5604,-2.5863,-2.6873,-2.7716,-2.8369,-2.8865,-2.975,-3.0878,-3.0699,-3.0797,-3.119,-3.119,-3.119,-3.1134,-3.0506,-2.9928,-2.9374,-2.8314,-2.7022,-2.5715,-2.4987,-2.4051,-2.2981,-2.1997,-2.1376,-2.0966,-2.0295,-2.0105,-2.0105,-1.985,-1.93,-1.873,-1.8367,-1.7143,-1.5764,-1.4969,-1.4115,-1.342,-1.2968,-1.2881,-1.2881,-1.2881,-1.2138,-1.1466,-1.1466,-1.0769,-1.0325,-1.0857,-1.0552,-1.0506,-1.0991,-1.0539,-1.0301,-1.0561,-1.0104,-1.0014,-1.0494,-1.0321,-1.0055,-0.978,-0.9521,-0.8326,-0.5869,-0.5189,-0.4477,-0.3724,-0.3303,-0.237,-0.0858,-0.0288,0.0223,0.0726,0.2978,0.4355,0.5009,0.5387,0.5773,0.6276,0.6854,0.7632,0.842,0.842,0.9362,1.0862,1.0955,1.1296,1.1737,1.1837,1.2692,1.381,-2.7789,-2.7672,-2.7706,-2.818,-2.7858,-2.7706,-2.818,-2.7858,-2.7554,-2.7554,-2.7554,-2.7554,-2.7554,-2.7145,-2.6754,-2.6469,-2.6436,-2.628,-2.5839,-2.5561,-2.5297,-2.5105,-2.4471,-2.4288,-2.4716,-2.4861,-2.503,-2.5152,-2.6026,-2.7446,-2.9326,-2.9376,-2.9935,-3.0838,-3.0699,-3.0838,-3.119,-3.119,-3.1055,-3.0838,-3.0435,-2.9887,-2.9193,-2.8315,-2.7016,-2.5544,-2.4789,-2.3771,-2.2704,-2.172,-2.1391,-2.1262,-2.0384,-2.0125,-2.0087,-1.9861,-1.9254,-1.8643,-1.8258,-1.718,-1.5861,-1.4919,-1.4169,-1.3527,-1.3008,-1.2881,-1.2881,-1.2881,-1.2295,-1.1814,-1.1814,-1.1162,-1.0879,-1.1539,-1.0985,-1.0739,-1.1383,-1.1221,-1.0926,-1.0624,-1.0863,-1.1044,-1.1028,-1.1245,-1.1315,-1.1119,-1.1063,-1.0021,-0.7612,-0.6856,-0.6277,-0.5793,-0.5039,-0.4118,-0.3073,-0.2164,-0.1462,-0.0967,0.1606,0.3349,0.4432,0.4987,0.526,0.5428,0.5943,0.6724,0.7572,0.7982,0.9096,1.0546,1.1094,1.155,1.1884,1.1991,1.2999,1.4386,-2.7857,-2.8484,-2.9045,-2.9096,-2.9008,-2.9045,-2.9096,-2.9008,-2.9011,-2.9011,-2.9011,-2.9011,-2.9011,-2.7914,-2.685,-2.6109,-2.5957,-2.554,-2.4511,-2.4471,-2.4225,-2.3709,-2.3681,-2.3681,-2.3681,-2.4771,-2.5025,-2.4348,-2.5741,-2.7371,-2.9262,-2.9358,-2.9761,-3.0393,-3.0935,-3.1151,-3.119,-3.1151,-3.0797,-3.0293,-3.0208,-2.9848,-2.9191,-2.7952,-2.7008,-2.6109,-2.491,-2.3946,-2.3185,-2.2578,-2.2309,-2.2176,-2.1094,-2.069,-2.0498,-1.991,-1.9202,-1.8608,-1.8555,-1.7209,-1.5731,-1.529,-1.4275,-1.3348,-1.2978,-1.2822,-1.2774,-1.2822,-1.2264,-1.176,-1.176,-1.1481,-1.144,-1.1878,-1.1441,-1.124,-1.1727,-1.1772,-1.1469,-1.0688,-1.1288,-1.1529,-1.1028,-1.1732,-1.2171,-1.2223,-1.2156,-1.1667,-1.0654,-0.9211,-0.8037,-0.731,-0.5789,-0.4872,-0.4666,-0.4653,-0.4062,-0.2836,-0.0935,0.1088,0.3147,0.4707,0.5372,0.5428,0.5428,0.5885,0.6815,0.7932,0.8918,0.989,1.137,1.1877,1.1931,1.2204,1.352,1.5234,-2.8704,-2.8856,-2.9161,-2.9736,-2.9364,-2.9178,-2.9753,-2.9347,-2.9011,-2.9011,-2.9011,-2.9011,-2.9011,-2.8327,-2.7437,-2.6338,-2.5696,-2.5297,-2.5028,-2.5012,-2.4934,-2.4831,-2.443,-2.4184,-2.4184,-2.4116,-2.396,-2.3794,-2.5595,-2.6942,-2.7891,-2.8938,-2.9995,-3.0975,-3.0658,-3.0781,-3.119,-3.0699,-3.0435,-3.0208,-2.9316,-2.8826,-2.8622,-2.7859,-2.6482,-2.4916,-2.4595,-2.342,-2.1953,-2.1746,-2.169,-2.1678,-2.1385,-2.0649,-1.9758,-1.9148,-1.8447,-1.7743,-1.7191,-1.6036,-1.5024,-1.4914,-1.383,-1.2768,-1.288,-1.2058,-1.1425,-1.1931,-1.1711,-1.1444,-1.1444,-1.1257,-1.1418,-1.215,-1.1398,-1.0961,-1.1703,-1.1288,-1.08,-1.0624,-1.0744,-1.0917,-1.0962,-1.1532,-1.2101,-1.2558,-1.2327,-1.2069,-1.1811,-1.0651,-0.9205,-0.7364,-0.6789,-0.6544,-0.6492,-0.6158,-0.558,-0.4715,-0.1529,0.026,0.0861,0.4015,0.5386,0.5372,0.5432,0.5955,0.6941,0.7996,0.9113,1.0378,1.1449,1.2004,1.2204,1.2278,1.352,1.5234,-2.9499,-2.977,-3.0125,-3.0531,-3.026,-3.0125,-3.0548,-3.0034,-2.9594,-2.9594,-2.9341,-2.9164,-2.9164,-2.8345,-2.7444,-2.6493,-2.5715,-2.5058,-2.4486,-2.4471,-2.4471,-2.4471,-2.4199,-2.4032,-2.4032,-2.4025,-2.4358,-2.4971,-2.6031,-2.7025,-2.7921,-2.8649,-2.9496,-3.0377,-3.0293,-3.0351,-3.0377,-3.0293,-2.9978,-2.9406,-2.8779,-2.811,-2.7565,-2.724,-2.5987,-2.4393,-2.4393,-2.348,-2.2234,-2.2234,-2.2002,-2.1648,-2.1333,-2.0411,-1.9194,-1.8284,-1.759,-1.7034,-1.6595,-1.5806,-1.4963,-1.4364,-1.3368,-1.2452,-1.2226,-1.1455,-1.0914,-1.1266,-1.1309,-1.1313,-1.1313,-1.1172,-1.145,-1.2389,-1.149,-1.0911,-1.1848,-1.15,-1.0982,-1.0624,-1.0926,-1.1052,-1.084,-1.1759,-1.236,-1.2295,-1.2767,-1.2782,-1.2026,-1.1437,-1.0383,-0.8609,-0.806,-0.7764,-0.7764,-0.6924,-0.6059,-0.5248,-0.2531,-0.0791,0.0067,0.2882,0.4634,0.5379,0.5432,0.5713,0.6405,0.7917,0.906,0.9986,1.1499,1.2164,1.2305,1.2305,1.352,1.5234,-3.0277,-3.0768,-3.119,-3.119,-3.119,-3.119,-3.1072,-3.0617,-3.0251,-3.0166,-2.9717,-2.9406,-2.9406,-2.8275,-2.7224,-2.6541,-2.5744,-2.478,-2.3683,-2.3595,-2.3595,-2.3595,-2.3595,-2.3595,-2.3595,-2.4283,-2.5226,-2.6437,-2.6542,-2.7197,-2.8356,-2.8465,-2.8826,-2.9406,-2.9951,-2.9892,-2.9406,-2.9848,-2.9451,-2.8463,-2.8271,-2.7515,-2.651,-2.6404,-2.5508,-2.4292,-2.4292,-2.3767,-2.3078,-2.3078,-2.2567,-2.1794,-2.127,-2.0116,-1.8736,-1.7631,-1.6853,-1.6322,-1.6322,-1.5806,-1.4954,-1.3726,-1.2846,-1.2175,-1.151,-1.0991,-1.0677,-1.0772,-1.0958,-1.1098,-1.1098,-1.1095,-1.1404,-1.2367,-1.1493,-1.0958,-1.1898,-1.1792,-1.1329,-1.062,-1.1155,-1.1272,-1.062,-1.1897,-1.2456,-1.1826,-1.3003,-1.3176,-1.1888,-1.1665,-1.1117,-1.0187,-0.9292,-0.8788,-0.8605,-0.7321,-0.6227,-0.5396,-0.3833,-0.2007,0.0067,0.1872,0.3687,0.5382,0.5393,0.5484,0.5769,0.7948,0.8944,0.9322,1.1458,1.2305,1.2298,1.2445,1.3665,1.5234,-3.1021,-3.1123,-3.119,-3.119,-3.119,-3.1015,-3.0518,-3.0335,-3.0123,-2.9629,-2.9451,-2.9406,-2.9406,-2.8275,-2.7224,-2.6541,-2.5407,-2.4417,-2.364,-2.3595,-2.3595,-2.3595,-2.3595,-2.3595,-2.3595,-2.4283,-2.5001,-2.5764,-2.6318,-2.694,-2.7674,-2.8232,-2.8826,-2.9406,-2.9496,-2.9496,-2.9361,-2.8966,-2.8685,-2.8415,-2.7261,-2.6707,-2.6457,-2.5783,-2.5063,-2.4292,-2.4292,-2.3767,-2.3078,-2.3078,-2.2567,-2.1865,-2.1782,-2.0109,-1.8158,-1.7901,-1.6806,-1.5584,-1.5584,-1.4982,-1.4114,-1.2915,-1.2025,-1.1503,-1.1607,-1.0737,-1.0038,-1.0587,-1.0509,-1.0265,-1.0265,-1.0705,-1.1057,-1.1235,-1.1118,-1.1008,-1.1179,-1.0992,-1.0649,-1.0214,-1.0302,-1.0302,-1.0187,-1.1008,-1.1646,-1.1811,-1.1745,-1.1767,-1.1819,-1.0916,-1.0397,-1.0544,-1.0078,-0.9484,-0.8798,-0.8112,-0.7409,-0.6789,-0.5568,-0.322,0.0067,0.1873,0.3689,0.5399,0.5508,0.5637,0.5922,0.8164,0.9112,0.9471,1.1533,1.2305,1.2372,1.3171,1.4243,1.5305,-2.9705,-3.046,-3.1072,-3.0683,-3.0937,-3.1112,-3.0838,-3.0518,-3.0208,-2.9935,-2.9585,-2.9262,-2.8834,-2.8262,-2.7513,-2.6414,-2.58,-2.5191,-2.4517,-2.3921,-2.3595,-2.3595,-2.3954,-2.4492,-2.5196,-2.5525,-2.6004,-2.6662,-2.6976,-2.744,-2.8031,-2.8036,-2.8319,-2.8919,-2.8919,-2.8717,-2.8448,-2.8463,-2.8061,-2.7363,-2.6759,-2.6014,-2.5287,-2.4951,-2.4337,-2.3649,-2.3649,-2.3424,-2.3005,-2.258,-2.1877,-2.1164,-2.1164,-1.9419,-1.7388,-1.7873,-1.6487,-1.4746,-1.4746,-1.4154,-1.3322,-1.2313,-1.1713,-1.1234,-1.0916,-1.0247,-0.9795,-1.007,-1.0144,-1.0114,-1.0114,-1.0595,-1.0995,-1.0995,-1.0995,-1.0995,-1.0995,-1.0742,-1.0448,-1.0154,-1.0114,-1.0053,-0.99,-1.0617,-1.0967,-1.0713,-1.0931,-1.1041,-1.0894,-1.0363,-1.0254,-1.0611,-1.0428,-0.9968,-0.908,-0.8361,-0.7722,-0.7109,-0.5922,-0.4512,-0.2753,0.1003,0.3789,0.5593,0.5638,0.5718,0.6075,0.8189,0.9168,0.9523,1.1477,1.2305,1.2378,1.2806,1.3882,1.5234,-2.9031,-2.9995,-3.0818,-3.0429,-3.0818,-3.1151,-3.1015,-3.0617,-3.0251,-3.0123,-2.9673,-2.9198,-2.861,-2.8243,-2.762,-2.6566,-2.6045,-2.5576,-2.5059,-2.4116,-2.3681,-2.3794,-2.4297,-2.5241,-2.6557,-2.6587,-2.6916,-2.7625,-2.7625,-2.786,-2.8271,-2.781,-2.786,-2.8286,-2.8286,-2.7944,-2.7357,-2.783,-2.7348,-2.6229,-2.6068,-2.5287,-2.4292,-2.4118,-2.3662,-2.3078,-2.3078,-2.3005,-2.2763,-2.2125,-2.1175,-2.0268,-2.0268,-1.8753,-1.6983,-1.7543,-1.5872,-1.3906,-1.3906,-1.3485,-1.2757,-1.1772,-1.1341,-1.0984,-1.0336,-1.0047,-0.9886,-0.9886,-1.0067,-1.0221,-1.0221,-1.0641,-1.0995,-1.0995,-1.0995,-1.0995,-1.0995,-1.0742,-1.0421,-1.006,-1.0013,-0.99,-0.9606,-1.013,-1.0301,-0.9831,-1.0336,-1.0515,-1.0262,-1.0154,-1.0192,-1.0295,-1.0301,-0.9849,-0.9011,-0.8156,-0.7396,-0.6709,-0.5376,-0.4523,-0.3874,0.0675,0.392,0.5818,0.5758,0.582,0.6179,0.8282,0.9214,0.9523,1.1477,1.2305,1.2378,1.2806,1.3947,1.5234,-3.0634,-3.0526,-3.0378,-3.1004,-3.1157,-3.1015,-3.0435,-3.0351,-3.0123,-2.954,-2.9406,-2.939,-2.9326,-2.8158,-2.7326,-2.723,-2.557,-2.4533,-2.4471,-2.3921,-2.3837,-2.4307,-2.4502,-2.5241,-2.6557,-2.6587,-2.6916,-2.7625,-2.7625,-2.7625,-2.7675,-2.7625,-2.7625,-2.7675,-2.7675,-2.724,-2.6563,-2.6616,-2.6229,-2.5398,-2.4738,-2.4408,-2.4234,-2.3484,-2.3125,-2.3078,-2.3078,-2.2628,-2.2002,-2.1939,-2.0782,-1.9431,-1.9431,-1.8461,-1.7256,-1.6909,-1.5031,-1.307,-1.307,-1.307,-1.2642,-1.1052,-1.0667,-1.0654,-1.0591,-1.0577,-1.0557,-1.0557,-1.0577,-1.0591,-1.0591,-1.0782,-1.0995,-1.0995,-1.0995,-1.0995,-1.0995,-1.0742,-1.0409,-0.978,-0.9713,-0.9599,-0.925,-0.9272,-0.9549,-1.0047,-0.9892,-1.0052,-1.0564,-1.0267,-0.9878,-0.9396,-0.9402,-0.9005,-0.8091,-0.7242,-0.6342,-0.5512,-0.3751,-0.1898,0.0069,0.2154,0.4169,0.596,0.5942,0.601,0.6186,0.836,0.9281,0.9523,1.1477,1.2305,1.2519,1.4307,1.5092,1.5446,-2.9259,-3.0118,-3.0734,-3.0548,-3.0903,-3.1112,-3.0878,-3.0878,-3.0797,-3.0559,-3.0208,-2.9917,-2.9823,-2.9001,-2.8152,-2.7254,-2.6513,-2.5933,-2.5535,-2.54,-2.5255,-2.5137,-2.5573,-2.6273,-2.7186,-2.72,-2.732,-2.7625,-2.7625,-2.7625,-2.7625,-2.7625,-2.7625,-2.7575,-2.7137,-2.7049,-2.7137,-2.6229,-2.5673,-2.5342,-2.4624,-2.4002,-2.3471,-2.2689,-2.2384,-2.2322,-2.1741,-2.1353,-2.0974,-2.0462,-1.9814,-1.9222,-1.8649,-1.756,-1.6195,-1.5023,-1.3896,-1.2887,-1.2389,-1.1903,-1.1358,-1.0744,-1.0624,-1.0624,-1.0624,-1.0624,-1.0624,-1.0624,-1.0624,-1.0624,-1.0624,-1.0795,-1.0935,-1.0755,-1.0875,-1.0929,-1.0755,-1.0628,-1.0403,-0.9753,-0.9686,-0.9499,-0.9018,-0.9077,-0.9276,-0.9502,-0.9639,-0.986,-1.0267,-0.985,-0.9491,-0.9332,-0.8221,-0.7502,-0.7177,-0.685,-0.628,-0.5389,-0.3553,-0.0339,0.4067,0.4769,0.5458,0.6191,0.6088,0.6084,0.6329,0.8429,0.9296,0.9523,1.1477,1.2305,1.2372,1.3164,1.4163,1.5305,-2.9104,-3.0085,-3.0768,-3.0497,-3.0869,-3.119,-3.119,-3.119,-3.119,-3.119,-3.0838,-3.0556,-3.0458,-2.9884,-2.9065,-2.8123,-2.7656,-2.7279,-2.6872,-2.6781,-2.6566,-2.6261,-2.6452,-2.6901,-2.761,-2.7625,-2.7625,-2.7625,-2.7625,-2.7625,-2.7575,-2.7357,-2.7255,-2.7255,-2.6721,-2.6496,-2.652,-2.5728,-2.5119,-2.461,-2.4105,-2.3603,-2.3017,-2.2199,-2.1877,-2.1815,-2.091,-2.0398,-2.0074,-1.9497,-1.889,-1.8335,-1.7687,-1.6591,-1.5236,-1.3957,-1.3202,-1.2523,-1.1663,-1.078,-1.0238,-1.0561,-1.0364,-1.0174,-1.0174,-0.997,-0.9779,-0.9779,-0.9779,-0.9779,-0.9779,-0.9928,-0.999,-0.981,-0.9934,-0.9953,-0.975,-0.9724,-0.9575,-0.9023,-0.8977,-0.8795,-0.8288,-0.8689,-0.9003,-0.9093,-0.9525,-0.9827,-0.9865,-0.9491,-0.9075,-0.8484,-0.7307,-0.6593,-0.6272,-0.6272,-0.5962,-0.5396,-0.4167,-0.0409,0.5345,0.599,0.6299,0.627,0.6184,0.6388,0.6872,0.8618,0.9523,0.997,1.1626,1.2305,1.2372,1.3018,1.4019,1.5305,-3.0808,-3.0615,-3.0345,-3.1072,-3.119,-3.119,-3.119,-3.119,-3.119,-3.119,-3.119,-3.119,-3.119,-3.0548,-3.0125,-3.007,-2.8932,-2.8213,-2.8174,-2.7778,-2.7549,-2.7595,-2.6946,-2.6901,-2.761,-2.7625,-2.7625,-2.7625,-2.7625,-2.7625,-2.7575,-2.6826,-2.651,-2.651,-2.651,-2.5673,-2.435,-2.5063,-2.4496,-2.3138,-2.3078,-2.3078,-2.3017,-2.2199,-2.1877,-2.1753,-2.091,-2.0009,-1.9299,-1.9299,-1.8075,-1.6636,-1.6558,-1.5601,-1.4408,-1.4189,-1.3168,-1.1919,-1.0821,-0.9945,-0.953,-1.0364,-0.9919,-0.9274,-0.9274,-0.8619,-0.8027,-0.8027,-0.8027,-0.8027,-0.8027,-0.8027,-0.8027,-0.8027,-0.8027,-0.7945,-0.7711,-0.7879,-0.7858,-0.7345,-0.7431,-0.7419,-0.7141,-0.7887,-0.8521,-0.8772,-0.9614,-0.9871,-0.9326,-0.9274,-0.8484,-0.6785,-0.6719,-0.6272,-0.5379,-0.5379,-0.5382,-0.5396,-0.5339,-0.2417,0.3197,0.5334,0.6311,0.6338,0.6338,0.6872,0.7859,0.8917,0.9895,1.0932,1.1922,1.2305,1.2512,1.445,1.5163,1.5446,-3.0965,-3.1021,-3.0937,-3.1157,-3.119,-3.119,-3.119,-3.119,-3.119,-3.119,-3.0838,-3.074,-3.1151,-3.0654,-2.9865,-2.8967,-2.8565,-2.7971,-2.7117,-2.7405,-2.7599,-2.761,-2.738,-2.743,-2.7625,-2.7625,-2.7625,-2.7625,-2.7625,-2.7357,-2.6826,-2.7137,-2.6982,-2.651,-2.651,-2.6283,-2.5783,-2.4951,-2.4337,-2.3884,-2.3305,-2.3078,-2.3017,-2.2199,-2.1491,-2.0846,-2.0009,-1.911,-1.8395,-1.8395,-1.8056,-1.7364,-1.6009,-1.4277,-1.2634,-1.2319,-1.1805,-1.1242,-1.0685,-1.0421,-0.9977,-0.9,-0.8608,-0.842,-0.842,-0.8156,-0.8027,-0.8027,-0.8027,-0.8027,-0.8027,-0.8027,-0.8027,-0.8027,-0.8027,-0.8001,-0.793,-0.7981,-0.7856,-0.7501,-0.8014,-0.8326,-0.8027,-0.895,-0.9398,-0.8851,-0.8714,-0.8531,-0.8415,-0.7827,-0.7242,-0.6719,-0.6083,-0.5634,-0.5379,-0.5379,-0.5389,-0.5343,-0.2666,0.021,0.3199,0.5344,0.6321,0.6338,0.6338,0.6872,0.7859,0.8917,0.9895,1.0932,1.1922,1.2305,1.2445,1.3665,1.4593,1.5376,-3.1106,-3.119,-3.119,-3.119,-3.119,-3.119,-3.119,-3.119,-3.119,-3.119,-3.0878,-3.0699,-3.0838,-3.0518,-2.9786,-2.8528,-2.8164,-2.7901,-2.767,-2.7578,-2.7801,-2.8304,-2.7845,-2.7625,-2.7625,-2.7625,-2.7625,-2.7625,-2.7625,-2.7357,-2.693,-2.7086,-2.6759,-2.6068,-2.6068,-2.5728,-2.5106,-2.4567,-2.4118,-2.3767,-2.3305,-2.2884,-2.2506,-2.1678,-2.0846,-1.9944,-1.911,-1.8462,-1.8008,-1.8008,-1.751,-1.6655,-1.5092,-1.346,-1.1984,-1.169,-1.139,-1.1029,-1.0412,-1.0194,-0.9652,-0.7892,-0.7762,-0.8027,-0.8027,-0.7442,-0.699,-0.699,-0.699,-0.699,-0.699,-0.699,-0.699,-0.699,-0.699,-0.6963,-0.6879,-0.6936,-0.685,-0.6593,-0.7075,-0.7385,-0.7259,-0.8178,-0.8703,-0.8509,-0.8201,-0.7902,-0.7661,-0.7134,-0.6679,-0.6218,-0.5708,-0.5416,-0.5413,-0.5413,-0.542,-0.5365,0.014,0.3313,0.4438,0.6229,0.7036,0.6872,0.6872,0.7702,0.8983,0.9221,1.034,1.197,1.2218,1.2519,1.2952,1.3954,1.4665,1.5376,-3.1106,-3.114,-3.119,-3.119,-3.119,-3.119,-3.119,-3.119,-3.119,-3.119,-3.119,-3.1015,-3.0435,-3.0393,-2.9871,-2.8597,-2.7853,-2.7971,-2.9132,-2.8211,-2.8091,-2.9194,-2.8174,-2.7625,-2.7625,-2.7625,-2.7625,-2.7625,-2.7625,-2.7575,-2.7509,-2.6826,-2.6122,-2.5398,-2.5398,-2.461,-2.3258,-2.4002,-2.3767,-2.3005,-2.3005,-2.2506,-2.169,-2.091,-2.0074,-1.9177,-1.8395,-1.8008,-1.7862,-1.7794,-1.6585,-1.4879,-1.3954,-1.3025,-1.2245,-1.1957,-1.1677,-1.1184,-1.0001,-0.9551,-0.8905,-0.7246,-0.7372,-0.7897,-0.7767,-0.6535,-0.5428,-0.5428,-0.5428,-0.5428,-0.5428,-0.5428,-0.5428,-0.5428,-0.5428,-0.5311,-0.5172,-0.5274,-0.5311,-0.5169,-0.5339,-0.5491,-0.5491,-0.6203,-0.7046,-0.7837,-0.7837,-0.7526,-0.6977,-0.6775,-0.6242,-0.5189,-0.5329,-0.5264,-0.485,-0.4507,-0.4372,-0.4302,0.2669,0.6184,0.6539,0.7724,0.8173,0.7931,0.7931,0.8988,1.0708,0.989,1.1224,1.36,1.2879,1.3091,1.3954,1.495,1.5305,1.5587,-3.0345,-3.0801,-3.119,-3.119,-3.119,-3.119,-3.119,-3.119,-3.119,-3.119,-3.119,-3.1151,-3.1015,-3.1015,-3.048,-2.9132,-2.8446,-2.8283,-2.8652,-2.842,-2.8213,-2.7978,-2.776,-2.7625,-2.7625,-2.7625,-2.7625,-2.7625,-2.7625,-2.7306,-2.6721,-2.6563,-2.6122,-2.5398,-2.5398,-2.4894,-2.406,-2.4234,-2.3446,-2.2125,-2.2125,-2.1616,-2.0846,-2.0655,-2.0074,-1.9309,-1.911,-1.8085,-1.6784,-1.6079,-1.5021,-1.3954,-1.3745,-1.3025,-1.2245,-1.1957,-1.1824,-1.1517,-1.0049,-0.9681,-0.9317,-0.8067,-0.7372,-0.6785,-0.6145,-0.569,-0.5428,-0.5428,-0.5428,-0.5428,-0.5428,-0.5428,-0.5428,-0.5428,-0.5428,-0.5415,-0.5315,-0.5342,-0.5415,-0.5315,-0.5986,-0.6396,-0.6396,-0.6588,-0.6863,-0.7292,-0.6494,-0.5907,-0.5792,-0.4422,-0.3547,-0.3284,-0.4648,-0.3954,-0.0905,0.2212,0.3763,0.3763,0.3782,0.5259,0.786,0.7908,0.8282,0.8998,0.8998,0.9664,1.0858,1.1354,1.2391,1.3745,1.4307,1.4665,1.5021,1.593,1.628,1.6428,-2.9702,-3.0176,-3.0683,-3.0683,-3.0683,-3.0784,-3.114,-3.119,-3.119,-3.119,-3.119,-3.1095,-3.0781,-3.0781,-3.022,-2.8925,-2.7641,-2.7359,-2.8399,-2.7937,-2.7707,-2.8027,-2.776,-2.7625,-2.7625,-2.7894,-2.791,-2.7625,-2.7625,-2.7203,-2.651,-2.651,-2.5906,-2.4908,-2.4908,-2.4452,-2.3708,-2.3708,-2.304,-2.1877,-2.1877,-2.1101,-2.0009,-2.0009,-1.9135,-1.8007,-1.8007,-1.7111,-1.586,-1.5376,-1.4522,-1.3673,-1.3673,-1.2718,-1.1588,-1.1449,-1.0936,-1.0242,-0.938,-0.9062,-0.8714,-0.762,-0.7046,-0.6593,-0.6141,-0.5686,-0.5428,-0.5428,-0.5428,-0.5428,-0.5428,-0.5432,-0.5369,-0.5428,-0.5369,-0.5376,-0.5369,-0.5369,-0.5372,-0.5376,-0.583,-0.6086,-0.609,-0.6094,-0.6168,-0.6254,-0.4964,-0.45,-0.5336,-0.2882,-0.0601,0.1137,-0.0474,-0.0346,0.1633,0.477,0.6311,0.6296,0.5126,0.5911,0.8289,0.8433,0.9069,1.004,1.004,1.0565,1.1539,1.2018,1.3114,1.445,1.5021,1.5438,1.5939,1.6419,1.6853,1.7354,-2.9245,-2.9583,-3.0108,-3.0108,-3.0108,-3.0362,-3.1089,-3.119,-3.119,-3.119,-3.1112,-3.0838,-3.0335,-3.0093,-2.9561,-2.8661,-2.6934,-2.6616,-2.8331,-2.7566,-2.7496,-2.8448,-2.814,-2.7894,-2.7894,-2.8286,-2.8238,-2.776,-2.776,-2.7444,-2.6811,-2.6496,-2.5673,-2.4452,-2.4234,-2.3708,-2.3078,-2.2944,-2.2445,-2.1678,-2.1502,-2.0386,-1.8824,-1.8824,-1.7794,-1.6349,-1.6349,-1.5641,-1.4649,-1.4506,-1.3787,-1.2931,-1.2931,-1.1822,-1.0565,-1.0565,-0.9744,-0.8807,-0.8527,-0.8269,-0.781,-0.6798,-0.6556,-0.6547,-0.6519,-0.5969,-0.5432,-0.5432,-0.5432,-0.5432,-0.5432,-0.5376,-0.5309,-0.4957,-0.5179,-0.5322,-0.497,-0.497,-0.5043,-0.5393,-0.5113,-0.4906,-0.4913,-0.4916,-0.4779,-0.4506,-0.3082,-0.2746,-0.3971,-0.1136,0.2012,0.5379,0.4224,0.3617,0.3655,0.5625,0.6601,0.6581,0.6732,0.7427,0.8507,0.9236,1.0121,1.1087,1.1087,1.1545,1.2298,1.2611,1.3693,1.5234,1.5517,1.6149,1.6853,1.6853,1.7354,1.8008,-2.9144,-2.9583,-3.0108,-3.0108,-3.0108,-3.0362,-3.1089,-3.119,-3.119,-3.119,-3.0757,-3.0393,-3.0293,-2.9253,-2.8746,-2.9214,-2.8439,-2.8047,-2.8451,-2.8808,-2.8856,-2.8511,-2.8904,-2.918,-2.918,-2.8732,-2.8463,-2.8367,-2.8367,-2.8319,-2.8207,-2.64,-2.5453,-2.5175,-2.3872,-2.3198,-2.3065,-2.2384,-2.1553,-2.0719,-1.9955,-1.8536,-1.6973,-1.6973,-1.628,-1.5376,-1.5376,-1.4204,-1.2444,-1.1656,-1.0703,-0.9895,-0.9895,-0.9744,-0.9523,-0.9523,-0.9346,-0.8975,-0.7946,-0.7655,-0.73,-0.62,-0.5894,-0.5803,-0.5811,-0.5606,-0.5376,-0.5376,-0.5382,-0.5389,-0.5389,-0.5393,-0.4913,-0.3347,-0.4367,-0.4846,-0.3282,-0.308,-0.362,-0.5189,-0.4028,-0.308,-0.3082,-0.3082,-0.2409,-0.0868,-0.0534,0.02,0.1537,0.2072,0.3389,0.5662,0.5544,0.5603,0.5868,0.7315,0.786,0.7633,0.8466,0.8998,0.9231,1.019,1.1168,1.2077,1.2077,1.215,1.2445,1.4083,1.4942,1.5376,1.701,1.7725,1.7794,1.7794,1.7872,1.8008,-2.9211,-2.9583,-3.0108,-3.0108,-3.0108,-3.0362,-3.1089,-3.119,-3.119,-3.119,-3.0975,-3.0781,-3.0781,-2.9912,-2.96,-3.0327,-2.941,-2.8984,-2.9492,-2.9451,-2.9271,-2.8996,-2.9271,-2.9225,-2.8919,-2.8966,-2.8826,-2.8511,-2.814,-2.7565,-2.6753,-2.5823,-2.4951,-2.4105,-2.3412,-2.3078,-2.3078,-2.2689,-2.2063,-2.1227,-1.9814,-1.8475,-1.721,-1.6201,-1.5226,-1.4235,-1.3128,-1.1797,-1.0548,-1.0115,-0.9669,-0.9296,-0.9296,-0.8917,-0.8466,-0.8466,-0.8093,-0.7452,-0.6821,-0.6712,-0.6685,-0.594,-0.5765,-0.5437,-0.4292,-0.472,-0.508,-0.4105,-0.3889,-0.3892,-0.3892,-0.4715,-0.4785,-0.3015,-0.4244,-0.5145,-0.4311,-0.248,-0.2211,-0.5062,-0.2891,-0.0402,0.1607,0.1809,0.174,0.1537,0.2476,0.3351,0.4164,0.4292,0.4771,0.5686,0.6403,0.6848,0.6994,0.8221,0.8769,0.8613,0.9669,1.0115,1.019,1.1137,1.2111,1.3091,1.3091,1.3382,1.4019,1.4879,1.5517,1.6149,1.7442,1.8269,1.8721,1.8721,1.9044,1.9431]},{"header":{"parameterUnit":"m.s-1","parameterCategory":1,"la1":30.6,"la2":28.766,"lo1":-90.7593,"lo2":-88.6598,"dy":0.0162,"dx":0.0183,"nx":116,"ny":114,"refTime":"2024-06-03T18:00:00:Z","depth":0,"parameterNumber":3,"parameterNumberName":"V-component_of_WINDS"},"data":[0.0,0.0,0.0,0.0,0.0,0.0,0.0,0.0,0.0,0.0,0.0,0.0,0.0,0.0,0.0,0.0,0.0,0.0,0.0,0.0,0.0,0.0,0.0,0.0,0.0,0.0,0.0,0.0,0.0,0.0,0.0,0.0,0.0,0.0,0.0,0.0,0.0,0.0,0.0,0.0,0.0,0.0,0.0,0.0,0.0,0.0,0.0,0.0,0.0,0.0,0.0,0.0,0.0,0.0,0.0,0.0,0.0,0.0,0.0,0.0,0.0,0.0,0.0,0.0,0.0,0.0,0.0,0.0,0.0,0.0,0.0,0.0,0.0,0.0,0.0,0.0,0.0,0.0,0.0,0.0,0.0,0.0,0.0,0.0,0.0,0.0,0.0,0.0,0.0,0.0,0.0,0.0,0.0,0.0,0.0,0.0,0.0,0.0,0.0,0.0,0.0,0.0,0.0,0.0,0.0,0.0,0.0,0.0,0.0,0.0,0.0,0.0,0.0,0.0,0.0,0.0,0.0,0.0,0.0,0.0,0.0,0.0,0.0,0.0,0.0,0.0,0.0,0.0,0.0,0.0,0.0,0.0,0.0,0.0,0.0,0.0,0.0,0.0,0.0,0.0,0.0,0.0,0.0,0.0,0.0,0.0,0.0,0.0,0.0,0.0,0.0,0.0,0.0,0.0,0.0,0.0,0.0,0.0,0.0,0.0,0.0,0.0,0.0,0.0,0.0,0.0,0.0,0.0,0.0,0.0,0.0,0.0,0.0,0.0,0.0,0.0,0.0,0.0,0.0,0.0,0.0,0.0,0.0,0.0,0.0,0.0,0.0,0.0,0.0,0.0,0.0,0.0,0.0,0.0,0.0,0.0,0.0,0.0,0.0,0.0,0.0,0.0,0.0,0.0,0.0,0.0,0.0,0.0,0.0,0.0,0.0,0.0,0.0,0.0,0.0,0.0,0.0,0.0,0.0,0.0,0.0,0.0,0.0,0.0,0.0,0.0,0.0,0.0,0.0,0.0,0.0,0.0,0.0,0.0,0.0,0.0,0.0,0.0,0.0,0.0,0.0,0.0,0.0,0.0,0.0,0.0,0.0,0.0,0.0,0.0,0.0,0.0,0.0,0.0,0.0,0.0,0.0,0.0,0.0,0.0,0.0,0.0,0.0,0.0,0.0,0.0,0.0,0.0,0.0,0.0,0.0,0.0,0.0,0.0,0.0,0.0,0.0,0.0,0.0,0.0,0.0,0.0,0.0,0.0,0.0,0.0,0.0,0.0,0.0,0.0,0.0,0.0,0.0,0.0,0.0,0.0,0.0,0.0,0.0,0.0,0.0,0.0,0.0,0.0,0.0,0.0,0.0,0.0,0.0,0.0,0.0,0.0,0.0,0.0,0.0,0.0,0.0,0.0,0.0,0.0,0.0,0.0,0.0,0.0,0.0,0.0,0.0,0.0,0.0,0.0,0.0,0.0,0.0,0.0,0.0,0.0,0.0,0.0,0.0,0.0,0.0,0.0,0.0,0.0,0.0,0.0,0.0,0.0,0.0,0.0,0.0,0.0,0.0,0.0,0.0,0.0,0.0,0.0,0.0,0.0,0.0,0.0,0.0,0.0,0.0,0.0,0.0,0.0,0.0,0.0,0.0,0.0,0.0,0.0,0.0,0.0,0.0,0.0,0.0,0.0,0.0,0.0,0.0,0.0,0.0,0.0,0.0,0.0,0.0,0.0,0.0,0.0,0.0,0.0,0.0,0.0,0.0,0.0,0.0,0.0,0.0,0.0,0.0,0.0,0.0,0.0,0.0,0.0,0.0,0.0,0.0,0.0,0.0,0.0,0.0,0.0,0.0,0.0,0.0,0.0,0.0,0.0,0.0,0.0,0.0,0.0,0.0,0.0,0.0,0.0,0.0,0.0,0.0,0.0,0.0,0.0,0.0,0.0,0.0,0.0,0.0,0.0,0.0,0.0,0.0,0.0,0.0,0.0,0.0,0.0,0.0,0.0,0.0,0.0,0.0,0.0,0.0,0.0,0.0,0.0,0.0,0.0,0.0,0.0,0.0,0.0,0.0,0.0,0.0,0.0,0.0,0.0,0.0,0.0,0.0,0.0,0.0,0.0,0.0,0.0,0.0,0.0,0.0,0.0,0.0,0.0,0.0,0.0,0.0,0.0,0.0,0.0,0.0,0.0,0.0,0.0,0.0,0.0,0.0,0.0,0.0,0.0,0.0,0.0,0.0,0.0,0.0,0.0,0.0,0.0,0.0,0.0,0.0,0.0,0.0,0.0,0.0,0.0,0.0,0.0,0.0,0.0,0.0,0.0,0.0,0.0,0.0,0.0,0.0,0.0,0.0,0.0,0.0,0.0,0.0,0.0,0.0,0.0,0.0,0.0,0.0,0.0,0.0,0.0,0.0,0.0,0.0,0.0,0.0,0.0,0.0,0.0,0.0,0.0,0.0,0.0,0.0,0.0,0.0,0.0,0.0,0.0,0.0,0.0,0.0,0.0,0.0,0.0,0.0,0.0,0.0,0.0,0.0,0.0,0.0,0.0,0.0,0.0,0.0,0.0,0.0,0.0,0.0,0.0,0.0,0.0,0.0,0.0,0.0,0.0,0.0,0.0,0.0,0.0,0.0,0.0,0.0,0.0,0.0,0.0,0.0,0.0,0.0,0.0,0.0,0.0,0.0,0.0,0.0,0.0,0.0,0.0,0.0,0.0,0.0,0.0,0.0,0.0,0.0,0.0,0.0,0.0,0.0,0.0,0.0,0.0,0.0,0.0,0.0,0.0,0.0,0.0,0.0,0.0,0.0,0.0,0.0,0.0,0.0,0.0,0.0,0.0,0.0,0.0,0.0,0.0,0.0,0.0,0.0,0.0,0.0,0.0,0.0,0.0,0.0,0.0,0.0,0.0,0.0,0.0,0.0,0.0,0.0,0.0,0.0,0.0,0.0,0.0,0.0,0.0,0.0,0.0,0.0,0.0,0.0,0.0,0.0,0.0,0.0,0.0,0.0,0.0,0.0,0.0,0.0,0.0,0.0,0.0,0.0,0.0,0.0,0.0,0.0,0.0,0.0,0.0,0.0,0.0,0.0,0.0,0.0,0.0,0.0,0.0,0.0,0.0,0.0,0.0,0.0,0.0,0.0,0.0,0.0,0.0,0.0,0.0,0.0,0.0,0.0,0.0,0.0,0.0,0.0,0.0,0.0,0.0,0.0,0.0,0.0,0.0,0.0,0.0,0.0,0.0,0.0,0.0,0.0,0.0,0.0,0.0,0.0,0.0,0.0,0.0,0.0,0.0,0.0,0.0,0.0,0.0,0.0,0.0,0.0,0.0,0.0,0.0,0.0,0.0,0.0,0.0,0.0,0.0,0.0,0.0,0.0,0.0,0.0,0.0,0.0,0.0,0.0,0.0,0.0,0.0,0.0,0.0,0.0,0.0,0.0,0.0,0.0,0.0,0.0,0.0,0.0,0.0,0.0,0.0,0.0,0.0,0.0,0.0,0.0,0.0,0.0,0.0,0.0,0.0,0.0,0.0,0.0,0.0,0.0,0.0,0.0,0.0,0.0,0.0,0.0,0.0,0.0,0.0,0.0,0.0,0.0,0.0,0.0,0.0,0.0,0.0,0.0,0.0,0.0,0.0,0.0,0.0,0.0,0.0,0.0,0.0,0.0,0.0,0.0,0.0,0.0,0.0,0.0,0.0,0.0,0.0,0.0,0.0,0.0,0.0,0.0,0.0,0.0,0.0,0.0,0.0,0.0,0.0,0.0,0.0,0.0,0.0,0.0,0.0,0.0,0.0,0.0,0.0,0.0,0.0,0.0,0.0,0.0,0.0,0.0,0.0,0.0,0.0,0.0,0.0,0.0,0.0,0.0,0.0,0.0,0.0,0.0,0.0,0.0,0.0,0.0,0.0,0.0,0.0,0.0,0.0,0.0,0.0,0.0,0.0,0.0,0.0,0.0,0.0,0.0,0.0,0.0,0.0,0.0,0.0,0.0,0.0,0.0,0.0,0.0,0.0,0.0,0.0,0.0,0.0,0.0,0.0,0.0,0.0,0.0,0.0,0.0,0.0,0.0,0.0,0.0,0.0,0.0,0.0,0.0,0.0,0.0,0.0,0.0,0.0,0.0,0.0,0.0,0.0,0.0,0.0,0.0,0.0,0.0,0.0,0.0,0.0,0.0,0.0,0.0,0.0,0.0,0.0,0.0,0.0,0.0,0.0,0.0,0.0,0.0,0.0,0.0,0.0,0.0,0.0,0.0,0.0,0.0,0.0,0.0,0.0,0.0,0.0,0.0,0.0,0.0,0.0,0.0,0.0,0.0,0.0,0.0,0.0,0.0,0.0,0.0,0.0,0.0,0.0,0.0,0.0,0.0,0.0,0.0,0.0,0.0,0.0,0.0,0.0,0.0,0.0,0.0,0.0,0.0,0.0,0.0,0.0,0.0,0.0,0.0,0.0,0.0,0.0,0.0,0.0,0.0,0.0,0.0,0.0,0.0,0.0,0.0,0.0,0.0,0.0,0.0,0.0,0.0,0.0,0.0,0.0,0.0,0.0,0.0,0.0,0.0,0.0,0.0,0.0,0.0,0.0,0.0,0.0,0.0,0.0,0.0,0.0,0.0,0.0,0.0,0.0,0.0,0.0,0.0,0.0,0.0,0.0,0.0,0.0,0.0,0.0,0.0,0.0,0.0,0.0,0.0,0.0,0.0,0.0,0.0,0.0,0.0,0.0,0.0,0.0,0.0,0.0,0.0,0.0,0.0,0.0,0.0,0.0,0.0,0.0,0.0,0.0,0.0,0.0,0.0,0.0,0.0,0.0,0.0,0.0,0.0,0.0,0.0,0.0,0.0,0.0,0.0,0.0,0.0,0.0,0.0,0.0,0.0,0.0,0.0,0.0,0.0,0.0,0.0,0.0,0.0,0.0,0.0,0.0,0.0,0.0,0.0,0.0,0.0,0.0,0.0,0.0,0.0,0.0,0.0,0.0,0.0,0.0,0.0,0.0,0.0,0.0,0.0,0.0,0.0,0.0,0.0,0.0,0.0,0.0,0.0,0.0,0.0,0.0,0.0,0.0,0.0,0.0,0.0,0.0,0.0,0.0,0.0,0.0,0.0,0.0,0.0,0.0,0.0,0.0,0.0,0.0,0.0,0.0,0.0,0.0,0.0,0.0,0.0,0.0,0.0,0.0,0.0,0.0,0.0,0.0,0.0,0.0,0.0,0.0,0.0,0.0,0.0,0.0,0.0,0.0,0.0,0.0,0.0,0.0,0.0,0.0,0.0,0.0,0.0,0.0,0.0,0.0,0.0,0.0,0.0,0.0,0.0,0.0,0.0,0.0,0.0,0.0,0.0,0.0,0.0,0.0,0.0,0.0,0.0,0.0,0.0,0.0,0.0,0.0,0.0,0.0,0.0,0.0,0.0,0.0,0.0,0.0,0.0,0.0,0.0,0.0,0.0,0.0,0.0,0.0,0.0,0.0,0.0,0.0,0.0,0.0,0.0,0.0,0.0,0.0,0.0,0.0,0.0,0.0,0.0,0.0,0.0,0.0,0.0,0.0,0.0,0.0,0.0,0.0,0.0,0.0,0.0,0.0,0.0,0.0,0.0,0.0,0.0,0.0,0.0,0.0,0.0,0.0,0.0,0.0,0.0,0.0,0.0,0.0,0.0,0.0,0.0,0.0,0.0,0.0,0.0,0.0,0.0,0.0,0.0,0.0,0.0,0.0,0.0,0.0,0.0,0.0,0.0,0.0,0.0,0.0,0.0,0.0,0.0,0.0,0.0,0.0,0.0,0.0,0.0,0.0,0.0,0.0,0.0,0.0,0.0,0.0,0.0,0.0,0.0,0.0,0.0,0.0,0.0,0.0,0.0,0.0,0.0,0.0,0.0,0.0,0.0,0.0,0.0,0.0,0.0,0.0,0.0,0.0,0.0,0.0,0.0,0.0,0.0,0.0,0.0,0.0,0.0,0.0,0.0,0.0,0.0,0.0,0.0,0.0,0.0,0.0,0.0,0.0,0.0,0.0,0.0,0.0,0.0,0.0,0.0,0.0,0.0,0.0,0.0,0.0,0.0,0.0,0.0,0.0,-1.7101,-1.7232,0.0,0.0,0.0,0.0,0.0,0.0,0.0,0.0,0.0,0.0,0.0,0.0,0.0,0.0,0.0,0.0,0.0,0.0,0.0,0.0,0.0,0.0,0.0,-1.4995,-1.5116,-1.5091,-1.5336,-1.5248,-1.4665,0.0,0.0,0.0,0.0,0.0,-1.299,-1.3545,-1.3757,-1.3618,-1.4046,-1.4458,-1.491,-1.5926,-1.7126,-1.8444,0.0,0.0,0.0,0.0,0.0,0.0,0.0,0.0,0.0,0.0,0.0,0.0,0.0,0.0,0.0,0.0,0.0,0.0,0.0,0.0,0.0,0.0,0.0,0.0,0.0,0.0,0.0,0.0,0.0,0.0,0.0,0.0,0.0,0.0,0.0,0.0,0.0,0.0,0.0,0.0,0.0,0.0,0.0,0.0,0.0,0.0,0.0,0.0,0.0,0.0,0.0,0.0,0.0,0.0,0.0,0.0,0.0,0.0,0.0,0.0,0.0,0.0,0.0,0.0,0.0,0.0,0.0,0.0,0.0,0.0,-1.7416,-1.768,0.0,0.0,0.0,0.0,0.0,0.0,0.0,0.0,0.0,0.0,0.0,0.0,0.0,0.0,0.0,0.0,0.0,0.0,0.0,0.0,0.0,-1.282,-1.2896,-1.3519,-1.3596,-1.2706,-1.348,-1.3585,-1.2522,-1.2976,0.0,0.0,0.0,-1.2997,-1.2097,-1.3141,-1.3566,-1.326,-1.3714,-1.4362,-1.508,-1.6007,-1.7139,-1.8455,-1.8973,0.0,0.0,0.0,0.0,0.0,0.0,0.0,0.0,0.0,0.0,0.0,0.0,0.0,0.0,0.0,0.0,0.0,0.0,0.0,0.0,0.0,0.0,0.0,0.0,0.0,0.0,0.0,0.0,0.0,0.0,0.0,0.0,0.0,0.0,0.0,0.0,0.0,0.0,0.0,0.0,0.0,0.0,0.0,0.0,0.0,0.0,0.0,0.0,0.0,0.0,0.0,0.0,0.0,0.0,0.0,0.0,0.0,0.0,0.0,0.0,0.0,0.0,0.0,-1.7107,-1.7116,-1.7474,-1.7116,-1.7126,-1.7483,-1.7483,-1.7883,-1.848,-1.8029,0.0,0.0,0.0,0.0,0.0,0.0,0.0,0.0,0.0,0.0,0.0,0.0,0.0,0.0,0.0,0.0,0.0,0.0,0.0,-1.1314,-1.1624,-1.126,-1.1178,-1.1782,-1.1531,-1.1249,-1.1057,-1.1157,0.0,0.0,-1.1706,-1.2269,-1.2686,-1.2955,-1.3334,-1.3779,-1.3835,-1.3917,-1.4106,-1.4941,-1.6036,-1.734,-1.8173,-1.9397,-2.0829,0.0,0.0,0.0,0.0,0.0,0.0,0.0,0.0,0.0,0.0,0.0,0.0,0.0,0.0,0.0,0.0,0.0,0.0,0.0,0.0,0.0,0.0,0.0,0.0,0.0,0.0,0.0,0.0,0.0,0.0,0.0,0.0,0.0,0.0,0.0,0.0,0.0,0.0,0.0,0.0,0.0,-1.99,-1.9798,0.0,0.0,0.0,0.0,0.0,0.0,0.0,0.0,0.0,0.0,0.0,0.0,0.0,-1.6375,-1.6693,-1.713,-1.7341,-1.7387,-1.7658,-1.7842,-1.792,-1.7842,-1.7842,-1.792,-1.792,0.0,-1.8178,-1.9137,0.0,0.0,0.0,0.0,0.0,0.0,0.0,0.0,0.0,0.0,0.0,0.0,0.0,0.0,0.0,0.0,0.0,0.0,0.0,0.0,0.0,-0.941,-0.9199,-0.9254,-0.9332,-0.9252,-0.8996,-0.93,-0.9336,-0.9016,-1.0046,-1.0562,-1.0495,-1.1713,-1.2719,-1.3432,-1.3799,-1.3955,-1.3972,-1.5115,-1.5987,-1.6586,-1.7853,-1.9357,-2.1018,-2.1086,0.0,0.0,0.0,0.0,0.0,0.0,0.0,0.0,0.0,0.0,0.0,0.0,0.0,0.0,0.0,0.0,0.0,0.0,0.0,0.0,0.0,0.0,0.0,0.0,0.0,0.0,0.0,0.0,0.0,0.0,0.0,0.0,0.0,0.0,0.0,0.0,0.0,0.0,0.0,-1.8434,-1.8422,-1.8009,-1.7649,-1.7136,0.0,0.0,0.0,0.0,0.0,0.0,0.0,0.0,0.0,-1.6437,-1.6693,-1.6898,-1.7107,-1.7552,-1.7745,-1.7745,-1.792,-1.8008,-1.8008,-1.8008,-1.8008,-1.8008,-1.8008,-1.8008,-1.8056,-1.9144,-1.9447,-1.9243,0.0,0.0,0.0,0.0,-2.0079,-2.0449,0.0,0.0,0.0,0.0,0.0,0.0,0.0,0.0,0.0,0.0,0.0,0.0,-0.7494,-0.7283,-0.6996,-0.6685,-0.7008,-0.711,-0.6799,-0.7143,-0.7205,-0.6802,-0.8111,-0.8625,-0.8128,-1.0113,-1.1628,-1.2534,-1.3177,-1.3496,-1.3652,-1.5037,-1.5784,-1.6006,-1.7498,-1.9124,-2.0764,-2.1339,-2.145,0.0,0.0,0.0,0.0,0.0,0.0,0.0,0.0,0.0,0.0,0.0,0.0,0.0,0.0,0.0,0.0,0.0,0.0,0.0,0.0,0.0,0.0,0.0,0.0,0.0,0.0,0.0,0.0,0.0,0.0,0.0,0.0,0.0,0.0,0.0,0.0,0.0,0.0,-1.7474,-1.7398,-1.6846,-1.6609,-1.6071,0.0,0.0,0.0,0.0,0.0,0.0,-1.6212,-1.6238,-1.6476,-1.689,-1.7239,-1.7464,-1.7561,-1.7833,-1.8008,-1.8008,-1.8008,-1.8008,-1.8008,-1.8008,-1.8008,-1.8008,-1.8008,-1.8008,-1.8076,-1.9177,-1.9879,-2.0333,-2.0782,-2.0556,-2.0149,-2.071,-2.0877,-2.0949,0.0,0.0,0.0,0.0,0.0,0.0,0.0,0.0,0.0,0.0,0.0,-0.529,-0.5075,-0.4541,-0.4287,-0.4548,-0.4556,-0.4605,0.0,-0.4564,-0.4599,-0.4558,-0.5905,-0.6643,-0.6589,-0.844,-0.9935,-1.101,-1.1509,-1.202,-1.2603,-1.3947,-1.4911,-1.5599,-1.6894,-1.8418,-2.0115,-2.1151,-2.1451,-2.1206,0.0,0.0,0.0,0.0,0.0,0.0,0.0,0.0,0.0,0.0,0.0,0.0,0.0,0.0,0.0,0.0,0.0,0.0,0.0,0.0,0.0,0.0,0.0,0.0,0.0,0.0,0.0,0.0,0.0,0.0,0.0,0.0,0.0,0.0,0.0,0.0,0.0,0.0,0.0,-1.7561,-1.6917,0.0,0.0,0.0,0.0,-1.6026,-1.6369,-1.6616,-1.6684,-1.6648,-1.6899,-1.735,-1.7417,-1.7571,-1.7998,-1.8008,-1.8008,-1.8008,-1.8008,-1.8008,-1.8008,-1.8008,-1.8008,-1.8008,-1.8008,-1.8008,-1.8144,-1.9814,-2.0074,-1.9562,-2.1175,-2.1279,-2.0685,-2.1542,-2.1842,-2.193,0.0,0.0,0.0,0.0,0.0,-0.9076,-0.8392,-0.6717,-0.5481,-0.5322,-0.3652,-0.2399,-0.2313,-0.1153,-0.0405,-0.061,-0.0505,-0.0555,-0.0729,-0.0894,-0.1255,-0.186,-0.3066,-0.4543,-0.631,-0.7461,-0.8639,-0.9867,-1.0765,-1.1508,-1.2066,-1.3424,-1.4346,-1.4929,-1.6323,-1.7691,-1.9053,-2.0402,-2.1144,-2.1446,-2.1273,-2.1305,0.0,0.0,0.0,0.0,0.0,0.0,0.0,0.0,0.0,0.0,0.0,0.0,0.0,0.0,0.0,0.0,0.0,0.0,0.0,0.0,0.0,0.0,0.0,0.0,0.0,0.0,0.0,0.0,0.0,0.0,0.0,0.0,0.0,0.0,0.0,0.0,0.0,-1.6605,-1.6123,0.0,-1.5878,-1.6019,-1.5979,-1.5753,-1.6326,-1.6828,-1.71,-1.7149,-1.7377,-1.7745,-1.7823,-1.7833,-1.8008,-1.8008,-1.8008,-1.8008,-1.8008,-1.8008,-1.8008,-1.8008,-1.8008,-1.8008,-1.8008,-1.8008,-1.8144,-1.9879,-2.0398,-2.0268,-2.1428,-2.2002,-2.2249,-2.2567,-2.2689,-2.2689,0.0,0.0,0.0,0.0,-0.9831,-0.8122,-0.7246,-0.5324,-0.3769,-0.3274,-0.135,0.013,0.0518,0.1934,0.2827,0.2732,0.2965,0.2982,0.2599,0.2097,0.1649,0.1322,-0.0258,-0.2118,-0.4382,-0.5697,-0.6976,-0.82,-0.9723,-1.0836,-1.152,-1.3094,-1.4114,-1.4724,-1.5995,-1.7306,-1.8649,-1.9759,-2.0776,-2.1608,-2.186,-2.2102,-2.2215,0.0,0.0,0.0,0.0,0.0,0.0,0.0,0.0,0.0,0.0,0.0,0.0,0.0,0.0,0.0,0.0,0.0,0.0,0.0,0.0,0.0,0.0,0.0,0.0,0.0,0.0,0.0,0.0,0.0,0.0,0.0,0.0,0.0,0.0,-1.541,-1.5566,-1.6045,-1.5848,-1.5734,-1.5869,-1.6277,-1.6437,-1.6161,-1.676,-1.729,-1.7571,-1.7571,-1.7736,-1.8008,-1.8008,-1.8008,-1.8008,-1.8008,-1.8008,-1.8008,-1.8008,-1.8008,-1.8008,-1.8008,-1.8008,-1.8008,-1.8008,-1.8134,-1.8529,-1.9694,-2.0526,-2.1101,-2.2002,-2.2628,-2.3078,-2.3078,-2.3078,-2.3078,0.0,0.0,0.0,-1.2021,-0.9809,-0.7781,-0.6983,-0.4465,-0.2232,-0.1,0.0786,0.2312,0.3396,0.4605,0.5282,0.5298,0.5786,0.5897,0.537,0.4308,0.409,0.4878,0.262,0.0738,-0.0537,-0.3134,-0.5018,-0.6085,-0.8319,-0.9905,-1.0972,-1.2942,-1.4265,-1.5064,-1.5933,-1.7273,-1.893,-1.9348,-2.0348,-2.1748,-2.2926,-2.2994,-2.2513,0.0,0.0,0.0,0.0,0.0,0.0,0.0,0.0,0.0,0.0,0.0,0.0,0.0,0.0,0.0,0.0,0.0,0.0,0.0,0.0,0.0,0.0,0.0,0.0,0.0,0.0,0.0,0.0,0.0,0.0,0.0,0.0,0.0,-1.541,-1.543,-1.5605,-1.6065,-1.6121,-1.6309,-1.6704,-1.7115,-1.7387,-1.7396,-1.7755,-1.8008,-1.8008,-1.8008,-1.8008,-1.8008,-1.8008,-1.8008,-1.8008,-1.8008,-1.8008,-1.8008,-1.8008,-1.8008,-1.8008,-1.8008,-1.8008,-1.8008,-1.8008,-1.8462,-1.9299,-1.9299,-2.0333,-2.2002,-2.2763,-2.3078,-2.3078,-2.3078,-2.3078,-2.3078,0.0,0.0,-1.13,-1.1343,-0.9,-0.6898,-0.6347,-0.3839,-0.1322,0.0737,0.2879,0.4786,0.6272,0.834,0.9608,0.9581,1.0406,1.0754,1.0428,0.9488,0.8503,0.7587,0.6685,0.4909,0.2193,-0.0089,-0.2824,-0.6038,-0.8158,-1.0141,-1.2046,-1.3773,-1.4917,-1.549,-1.6499,-1.7806,-1.9316,-1.9884,-2.1088,-2.2604,-2.3493,-2.3841,-2.3879,0.0,0.0,0.0,0.0,0.0,0.0,0.0,0.0,0.0,0.0,0.0,0.0,0.0,0.0,0.0,0.0,0.0,0.0,0.0,0.0,0.0,0.0,0.0,0.0,0.0,0.0,0.0,0.0,0.0,0.0,0.0,-1.541,-1.541,-1.541,-1.5718,-1.6046,-1.6476,-1.6523,-1.6842,-1.7599,-1.7475,-1.7552,-1.7823,-1.793,-1.8008,-1.8008,-1.8008,-1.8008,-1.8008,-1.8008,-1.8008,-1.8008,-1.8008,-1.8008,-1.8008,-1.8008,-1.8008,-1.8008,-1.8008,-1.8008,-1.8008,-1.8008,-1.8462,-1.9365,-2.0009,-2.091,-2.1939,-2.2125,-2.258,-2.3078,-2.3078,-2.3078,-2.3078,0.0,-1.2208,-1.1624,-1.1502,-0.9391,-0.7253,-0.5844,-0.3447,-0.0614,0.2705,0.4488,0.6497,0.9176,1.0959,1.2123,1.2567,1.3662,1.406,1.3438,1.3198,1.2522,1.1215,1.0723,0.9432,0.7165,0.3361,0.0429,-0.1609,-0.6752,-1.0636,-1.3317,-1.495,-1.6023,-1.6712,-1.7864,-1.9102,-2.036,-2.1132,-2.2262,-2.3607,-2.4375,-2.4415,-2.4081,-2.4663,-2.412,-2.303,-2.2904,-2.2153,-2.1254,-2.1247,0.0,0.0,0.0,0.0,0.0,0.0,0.0,0.0,0.0,0.0,0.0,0.0,0.0,0.0,0.0,0.0,0.0,0.0,0.0,0.0,0.0,0.0,0.0,0.0,-1.541,-1.541,-1.541,-1.5621,-1.5969,-1.6432,-1.6618,-1.6952,-1.7658,-1.7658,-1.7745,-1.8008,-1.8008,-1.8008,-1.8008,-1.8008,-1.8008,-1.8008,-1.8008,-1.8008,-1.8008,-1.8008,-1.8008,-1.8008,-1.8008,-1.8008,-1.8008,-1.8008,-1.8008,-1.8008,-1.8395,-1.9044,-1.9879,-2.0782,-2.1616,-2.2384,0.0,0.0,0.0,0.0,-2.3078,-2.3078,0.0,-1.3084,-1.2658,-1.2108,-1.0384,-0.8191,-0.5504,-0.3301,-0.0173,0.4554,0.5809,0.7826,1.1893,1.2987,1.3797,1.4745,1.6095,1.6481,0.0,0.0,0.0,1.5237,1.4617,1.3763,1.2659,0.7115,0.438,0.4599,-0.4144,-1.0147,-1.3486,-1.5717,-1.7101,-1.7822,-1.9209,-2.0431,-2.1515,-2.2519,-2.3493,-2.445,-2.5215,-2.4806,-2.3894,-2.5118,-2.4497,-2.301,-2.3675,-2.2943,-2.1703,-2.1687,0.0,0.0,0.0,0.0,0.0,0.0,0.0,0.0,0.0,0.0,0.0,0.0,0.0,0.0,0.0,0.0,0.0,0.0,0.0,0.0,0.0,0.0,0.0,0.0,-1.541,-1.541,-1.541,-1.541,-1.5546,-1.603,-1.6477,-1.6955,-1.7377,-1.7745,-1.8008,-1.8008,-1.8008,-1.8008,-1.8008,-1.8008,0.0,0.0,0.0,-1.8008,-1.8008,-1.8008,-1.8008,-1.8008,-1.8008,-1.8008,-1.8008,-1.8008,-1.8008,-1.8076,-1.8911,-1.9814,-2.0655,-2.1553,-2.2384,-2.3078,-2.3078,-2.3078,-2.3078,-2.3078,-2.3078,-2.3078,0.0,-1.3969,-1.3252,-1.2202,-1.0384,-0.8191,-0.5504,-0.3619,-0.0519,0.5019,0.7067,0.951,1.3459,1.5792,1.7153,1.7363,1.9015,1.9876,0.0,0.0,1.9834,1.8319,1.7662,1.6102,1.345,1.0847,0.8087,0.5143,0.0456,-0.3573,-0.7053,-1.3473,-1.6197,-1.5778,-1.787,-1.941,-2.0594,-2.2443,-2.3661,-2.4358,-2.4771,-2.5083,-2.5329,-2.5904,-2.5447,-2.4419,-2.4033,-2.3283,-2.2457,-2.2231,-2.1877,-2.1384,-2.086,0.0,0.0,0.0,0.0,0.0,0.0,0.0,0.0,0.0,0.0,0.0,0.0,0.0,0.0,0.0,0.0,0.0,0.0,0.0,0.0,-1.5342,-1.541,-1.541,-1.541,-1.541,-1.5576,-1.6035,-1.6807,-1.7319,-1.7417,-1.7745,-1.8008,-1.8008,-1.8008,-1.8008,-1.8008,-1.8008,-1.8008,-1.8008,-1.8008,-1.8008,-1.8008,-1.8008,-1.8008,-1.8008,-1.8008,0.0,-1.8008,-1.8008,-1.8008,-1.8076,-1.8911,-1.9814,-2.0655,-2.1553,-2.2384,-2.3078,-2.3078,-2.3078,-2.3078,-2.3078,-2.3078,-2.3078,-1.5733,-1.52,-1.4438,-1.3373,-1.1795,-0.9846,-0.7482,-0.5057,-0.1861,0.2684,0.6001,0.9318,1.2861,1.5831,1.7807,1.8437,1.9974,0.0,0.0,2.2131,2.1507,2.0636,1.9768,1.8055,1.5362,1.2402,1.0568,0.989,0.1738,-0.3527,-0.6076,-1.1547,-1.45,-1.5308,-1.662,-1.8074,-1.9666,-2.1402,-2.262,-2.345,-2.386,-2.4424,-2.5043,-2.5411,-2.5095,-2.4464,-2.4082,-2.3414,-2.2683,-2.2553,-2.2248,-2.1864,-2.1436,-2.1589,-2.1837,0.0,0.0,0.0,0.0,0.0,0.0,0.0,0.0,0.0,0.0,0.0,0.0,0.0,0.0,-1.4972,-1.4807,0.0,-1.5177,-1.5342,-1.541,-1.541,-1.541,-1.541,-1.5498,-1.5713,-1.6491,-1.7052,-1.7069,-1.76,-1.8008,-1.8008,-1.8008,-1.8008,-1.8008,-1.8008,-1.8008,-1.8008,-1.8008,-1.8008,-1.8008,-1.8008,-1.8008,-1.8008,-1.8008,-1.8202,-1.8654,-1.8654,-1.8911,-1.9365,-2.0204,-2.0846,-2.1302,-2.2125,-2.2763,-2.3125,-2.3531,-2.3424,-2.3078,-2.3078,-2.3078,-2.3078,-1.693,-1.6459,-1.5686,-1.4679,-1.35,-1.2001,-0.9985,-0.7434,-0.4274,-0.026,0.4333,0.8667,1.2341,1.5998,1.8627,0.0,0.0,0.0,0.0,2.2658,2.171,2.1658,2.0356,1.862,1.6424,1.2974,1.1971,1.3634,0.3542,-0.2586,-0.4918,-0.8324,-1.1366,-1.3997,-1.4981,-1.6552,-1.8434,-2.0047,-2.1243,-2.2118,-2.29,-2.3494,-2.3998,-2.449,-2.4497,-2.4226,-2.4118,-2.3594,-2.2936,-2.2863,-2.2587,-2.2207,-2.1808,-2.202,-2.2232,-2.1663,-2.152,0.0,0.0,0.0,0.0,0.0,0.0,0.0,0.0,-1.6548,-1.5823,-1.5711,-1.5479,-1.5264,-1.4954,-1.5187,-1.541,-1.541,-1.5294,-1.5235,-1.5352,-1.5294,-1.5235,-1.5352,-1.6146,-1.672,-1.6719,-1.751,-1.8008,-1.8008,-1.8008,-1.8008,-1.8008,-1.8008,-1.8008,-1.8008,-1.8008,-1.8008,-1.8008,-1.8008,-1.8008,-1.8008,-1.8008,-1.8462,-1.9299,-1.9299,-1.9759,-2.0655,-2.1667,-2.2286,-2.2652,-2.328,-2.3531,-2.359,-2.4279,-2.4105,-2.3531,-2.3531,-2.3471,-2.3365,0.0,-1.7339,-1.6632,-1.5111,-1.4571,-1.3736,-1.1929,-1.1166,-0.8513,-0.219,0.3398,0.878,1.4045,1.9318,2.2653,0.0,0.0,0.0,2.3125,2.1207,2.0077,2.005,1.8037,1.6044,1.4212,1.3059,1.186,1.0586,0.9924,0.7058,0.2088,-0.1572,-0.5214,-0.8893,-1.2313,-1.4787,-1.6488,-1.8838,-2.0099,-2.0605,-2.2209,-2.2788,-2.2802,-2.3872,-2.4451,-2.469,-2.4444,-2.413,-2.3813,-2.3493,-2.283,-2.2108,-2.2077,-2.1778,-2.1541,-2.2052,-2.2373,-2.2562,-2.2585,-2.1265,-2.0093,-2.1052,-1.9632,-1.8413,0.0,-1.9261,-1.8125,-1.7499,-1.7294,-1.6921,-1.5566,-1.5342,-1.541,-1.541,-1.4805,-1.4569,-1.5294,-1.4805,-1.4628,-1.5294,-1.6172,-1.6699,-1.6728,-1.751,-1.8008,-1.8008,-1.8008,-1.8008,-1.8008,-1.8008,-1.8008,-1.8008,-1.8008,-1.8008,-1.8008,-1.8008,-1.8008,-1.8008,-1.8008,-1.8462,-1.9299,-1.9299,-1.9759,-2.0719,-2.2225,-2.3664,-2.4993,-2.5119,-2.5119,-2.5175,-2.5231,-2.5231,-2.5119,-2.5119,-2.4724,-2.4292,0.0,-1.7482,-1.7134,-1.6625,-1.6078,-1.547,-1.4713,-1.3392,-1.0765,-0.6,-0.0989,0.4069,0.9103,1.7036,2.2176,2.2671,0.0,0.0,2.1685,1.887,1.7469,1.8072,1.5854,1.383,1.2208,1.1504,0.9951,0.7609,0.7963,0.653,0.3323,-0.0461,-0.3554,-0.6037,-0.8841,-1.1375,-1.3627,-1.5639,-1.7177,-1.8367,-2.0101,-2.1036,-2.1548,-2.2506,-2.3558,-2.4581,-2.5004,-2.5077,0.0,0.0,-2.4405,-2.3768,-2.288,-2.2474,-2.2269,-2.2149,-2.1925,-2.1613,-2.1078,-2.1233,-2.1384,-2.0765,-2.0096,-1.9699,-2.0105,-1.9411,-1.8478,-1.7763,-1.7283,-1.6616,-1.5576,-1.541,-1.541,-1.541,-1.5108,-1.4991,-1.5352,-1.5108,-1.4991,-1.5352,-1.6191,-1.6665,-1.6665,-1.7285,-1.7744,-1.7988,-1.8008,-1.8202,-1.8721,-1.8787,-1.8977,-1.9497,-1.9497,-1.9497,-1.9497,-1.9497,-1.9497,-1.9497,-1.9497,-1.9944,-2.0782,-2.0782,-2.1518,-2.2809,-2.391,-2.4797,-2.5398,-2.5398,-2.5398,-2.5453,-2.5837,-2.5783,-2.5356,-2.4983,-2.4628,-2.4367,0.0,-1.7776,-1.7754,-1.8049,-1.7736,-1.7343,-1.7039,-1.6042,-1.4062,-1.0667,-0.6552,-0.1244,0.5874,1.5395,2.129,2.1343,0.0,0.0,0.0,1.6271,1.4713,1.5083,1.3105,1.1269,0.9811,0.9291,0.79,0.5477,0.5474,0.4389,0.2362,-0.0826,-0.345,-0.5588,-0.7093,-0.9369,-1.2104,-1.3502,-1.5067,-1.6708,-1.8253,-1.937,-2.0196,-2.1129,-2.2343,-2.3773,-2.5051,-2.5657,0.0,0.0,-2.5476,-2.4999,-2.3721,-2.3144,-2.2919,-2.2541,-2.1861,-2.1167,-2.0558,-2.1124,-2.1528,-2.0154,-1.9938,-1.993,-1.9258,-1.867,-1.8102,-1.73,-1.6711,-1.6155,-1.5536,-1.541,-1.541,-1.541,-1.5225,-1.5177,-1.5352,-1.5235,-1.5215,-1.5576,-1.6162,-1.665,-1.6885,-1.7305,-1.7686,-1.7988,-1.8008,-1.8269,-1.8911,-1.8911,-1.9243,-1.9879,-2.0139,-2.0268,-2.0268,-2.0462,-2.059,-2.059,-2.0812,-2.1381,-2.2212,-2.264,-2.3585,-2.4951,-2.5453,-2.5837,-2.6,-2.6187,-2.6279,-2.6332,-2.7027,-2.6843,-2.6116,-2.5452,-2.4995,-2.4626,0.0,0.0,-1.868,-1.9089,-1.9522,-1.9442,-1.8401,-1.9738,-1.9578,-1.6013,-1.2956,-0.608,0.708,1.6394,2.1097,1.9608,0.0,0.0,1.5188,1.3493,1.1988,1.0677,0.9474,0.8176,0.6785,0.6727,0.6032,0.4728,0.4632,0.2907,-0.0243,-0.1893,-0.4636,-0.8119,-0.8217,-0.9924,-1.2797,-1.3501,-1.468,-1.6154,-1.7334,-1.8123,-1.8675,-1.9915,-2.0976,-2.2161,-2.4245,0.0,0.0,0.0,-2.5527,-2.5138,-2.433,-2.3566,0.0,-2.3357,-2.2761,-2.2004,-2.2181,-2.0983,-1.973,-1.9852,-1.9084,-1.8124,-1.7496,-1.7343,-1.7094,-1.6127,-1.5941,-1.5807,-1.5467,-1.541,-1.541,-1.541,-1.4756,-1.451,-1.5294,-1.4756,-1.4717,-1.5926,-1.6125,-1.6478,-1.7285,-1.7744,-1.7998,-1.8008,-1.8008,-1.8008,-1.8008,-1.8008,-1.8076,-1.8076,-1.8921,-1.9365,-1.9365,-2.0204,-2.059,-2.059,-2.1323,-2.2104,-2.3,-2.4557,-2.5728,-2.6457,-2.6457,-2.6878,-2.756,-2.8174,-2.8415,-2.8463,-2.9088,-2.8841,-2.814,-2.7439,-2.6459,-2.5481,0.0,0.0,0.0,-2.0686,-2.0996,-2.0971,-2.0619,-2.1214,-2.0491,-1.711,-1.4642,0.0,0.0,0.0,0.0,0.0,1.6544,1.5049,1.374,1.1012,0.9408,0.9408,0.8238,0.7353,0.685,0.6855,0.616,0.4793,0.4746,0.2984,-0.0429,-0.3199,-0.506,-0.6151,-0.6593,-0.8054,-1.0207,-1.1201,-1.2987,-1.5216,-1.6394,-1.732,-1.8103,-1.8754,-1.9633,-2.0753,0.0,0.0,0.0,-2.4151,-2.4347,-2.4559,-2.2947,-2.2961,-2.3565,-2.3473,-2.3001,-2.2467,-2.2118,-2.1419,-2.0703,-2.0327,-1.974,-1.9141,-1.8557,-1.8452,-1.8101,-1.6946,-1.6588,-1.6126,-1.5005,-1.5128,-1.5235,-1.4688,-1.4815,-1.5108,-1.5352,-1.5417,-1.5648,-1.6045,-1.6582,-1.7061,-1.7353,-1.751,-1.7705,-1.7988,-1.8008,-1.8269,-1.8844,-1.8844,-1.9365,-2.0526,-2.0846,-2.129,-2.1791,-2.2113,-2.2249,-2.2249,-2.305,-2.3852,-2.4614,-2.5659,-2.6283,-2.6563,-2.7464,-2.7978,-2.8222,-2.8873,-2.9104,-2.9057,-2.879,-2.8515,-2.8163,-2.6997,-2.632,-2.5883,0.0,0.0,0.0,0.0,0.0,0.0,0.0,0.0,0.0,0.0,0.0,0.0,0.0,0.0,0.0,0.0,0.0,1.3926,0.0,0.0,0.7633,0.7538,0.6663,0.6189,0.6258,0.6258,0.5799,0.4898,0.4267,0.2436,-0.0457,-0.3936,-0.5661,-0.583,-0.6197,-0.758,-0.964,-1.0399,-1.2336,-1.4925,-1.5364,-1.6257,-1.7339,-1.7515,-1.7801,0.0,0.0,0.0,0.0,-2.231,-2.334,-2.3597,-2.1599,-2.1543,-2.2339,-2.2827,-2.2703,-2.2313,-2.186,-2.1746,-2.1486,-2.0228,-1.9927,-1.9693,-1.876,-1.8442,-1.8022,-1.6979,-1.6429,-1.5839,-1.4704,-1.5148,-1.5279,-1.4109,-1.4662,-1.5267,-1.5349,-1.5543,-1.5865,-1.6494,-1.7041,-1.7441,-1.7598,-1.7607,-1.7715,-1.7988,-1.8008,-1.8405,-1.9233,-1.9299,-1.9955,-2.1365,-2.1753,-2.2125,-2.2702,-2.3233,-2.3813,-2.4323,-2.4838,-2.5453,-2.6215,-2.6901,-2.721,-2.7261,-2.8336,-2.8826,-2.8873,-2.9496,-2.9572,-2.9281,-2.9056,-2.8592,-2.8021,-2.7108,-2.6602,-2.6287,0.0,0.0,0.0,0.0,0.0,0.0,0.0,0.0,0.0,0.0,0.0,0.0,0.0,0.0,0.0,0.0,0.0,0.0,0.0,0.0,0.0,0.5133,0.4838,0.4789,0.4942,0.4945,0.4958,0.5106,0.309,0.1239,-0.0505,-0.4143,-0.6262,-0.7007,-0.7078,-0.8539,-1.0979,-1.102,-1.2706,-1.5178,-1.4274,-1.4925,-1.6401,-1.6374,0.0,0.0,0.0,0.0,0.0,-2.0204,-2.2207,-2.2135,-2.0334,-1.9617,-1.979,-2.1658,-2.1996,-2.1705,-2.1533,-2.1926,-2.1881,-1.9688,-1.9696,-1.9806,-1.8196,-1.7502,-1.704,-1.6305,-1.5576,-1.4974,-1.4479,-1.5313,-1.5425,-1.3655,-1.4247,-1.5096,-1.534,-1.5151,-1.5612,-1.721,-1.7402,-1.7568,-1.8037,-1.8076,-1.8076,-1.8144,-1.8076,-1.8462,-1.9299,-1.9365,-1.9759,-2.0655,-2.1491,-2.1939,-2.2002,-2.3564,-2.5063,-2.651,-2.6549,-2.6916,-2.7675,-2.8271,-2.8559,-2.8606,-2.918,-2.9451,-2.9496,-3.0031,-2.9873,-2.9287,-2.9799,-2.9093,-2.7824,-2.7774,-2.7334,-2.6641,0.0,0.0,0.0,0.0,0.0,0.0,0.0,0.0,0.0,0.0,0.0,0.0,0.0,0.0,0.0,0.0,0.0,0.0,0.0,0.0,0.0,0.0,0.0,0.5248,0.527,0.5274,0.0,0.0,0.0,-0.0624,-0.2464,-0.4828,-0.6036,-0.6154,-0.6932,-0.8141,-0.9658,-1.0426,-1.2451,-1.5114,0.0,-1.4856,-1.6488,0.0,0.0,0.0,0.0,0.0,0.0,-1.5708,-1.7183,-1.8236,-1.9153,-2.0179,-2.1261,-2.2216,-2.2468,-2.2424,-2.2389,-2.1805,-2.1,-2.0064,-2.0159,-2.0082,-1.8599,-1.8637,-1.8563,-1.7131,-1.6132,-1.4904,-1.2972,-1.4016,-1.4657,-1.2893,-1.4628,-1.6277,-1.631,-1.6584,-1.6925,-1.7353,-1.7656,-1.815,-1.89,-1.8977,-1.9233,-1.9879,-1.9375,-1.9365,-2.0204,-2.0268,-2.0655,-2.1553,-2.1753,-2.2482,-2.3695,-2.4667,-2.5563,-2.651,-2.696,-2.757,-2.8286,-2.8919,-2.918,-2.918,-2.9805,-3.0081,-3.0074,-3.0132,-3.0051,-2.9765,-2.8766,-2.8321,-2.8182,-2.7614,-2.749,-2.763,0.0,0.0,0.0,0.0,0.0,0.0,0.0,0.0,0.0,0.0,0.0,0.0,0.0,0.0,0.0,0.0,0.0,0.0,0.0,0.0,0.0,0.0,0.0,0.3841,0.4228,0.4214,0.0,0.0,0.0,0.0,0.0,-0.535,-0.6032,-0.6369,-0.6932,-0.8051,-0.9526,-1.0443,0.0,0.0,0.0,0.0,0.0,0.0,0.0,0.0,0.0,0.0,0.0,-1.3855,-1.4939,-1.6182,-1.7907,-1.8665,-1.9258,-2.106,-2.1507,-2.1534,-2.2076,-2.1589,-2.0758,-2.0072,-2.0247,-2.0342,-1.9307,-1.9086,-1.8812,-1.7631,-1.6336,-1.4788,-1.2941,-1.457,-1.5464,-1.2952,-1.5074,-1.6947,-1.6703,-1.6779,-1.7016,-1.7637,-1.7871,-1.8202,-1.8654,-1.911,-1.9694,-2.0526,-2.0139,-2.0268,-2.1101,-2.1444,-2.2065,-2.2907,-2.3242,-2.3995,-2.5231,-2.5673,-2.6269,-2.6982,-2.7348,-2.7834,-2.8511,-2.9134,-2.954,-2.9805,-3.0435,-3.0603,-3.0432,-3.0364,-3.0036,-2.9523,-2.8677,-2.8271,-2.8124,-2.7735,-2.7918,-2.8493,0.0,0.0,0.0,0.0,0.0,0.0,0.0,0.0,0.0,0.0,0.0,0.0,0.0,0.0,0.0,0.0,0.0,0.0,0.0,0.0,0.0,0.0,0.0,0.1293,0.1938,0.1986,0.1247,0.0,0.0,0.0,0.0,0.0,0.0,0.0,0.0,0.0,0.0,0.0,0.0,0.0,0.0,0.0,0.0,0.0,0.0,0.0,0.0,0.0,0.0,0.0,-1.4421,-1.5293,-1.6812,-1.6524,-1.6168,-1.9141,-1.9928,-2.0042,-2.111,-2.1212,-2.0814,-1.9855,-2.0125,-2.0488,-1.9936,-1.9133,-1.8379,-1.7873,-1.6298,-1.4646,-1.3348,-1.5473,-1.6505,-1.3412,-1.5362,-1.7187,-1.6858,-1.6541,-1.6738,-1.7891,-1.7959,-1.8017,-1.8134,-1.8793,-1.9586,-2.0553,-2.0681,-2.1095,-2.2002,-2.2845,-2.3677,-2.4394,-2.5175,-2.5837,-2.651,-2.6616,-2.6982,-2.7625,-2.776,-2.8125,-2.8638,-2.939,-2.9989,-3.0526,-3.0999,-3.1031,-3.0682,-3.0491,-2.9907,-2.9142,-2.893,-2.8563,-2.8124,-2.8124,-2.8607,-2.9269,0.0,0.0,0.0,0.0,0.0,0.0,0.0,0.0,0.0,0.0,-2.3405,-2.3844,0.0,0.0,0.0,0.0,0.0,0.0,0.0,0.0,0.0,0.0,0.0,-0.1935,-0.1736,-0.1746,-0.1886,-0.2224,0.0,0.0,0.0,0.0,0.0,0.0,0.0,0.0,0.0,0.0,0.0,0.0,0.0,0.0,0.0,0.0,0.0,0.0,0.0,0.0,0.0,0.0,-1.4182,-1.4839,-1.6132,-1.6885,-1.7411,-1.8185,-1.9152,-2.0007,-2.0221,-2.0483,-2.0527,-1.9841,-2.0244,-2.0521,-1.9546,-1.8917,-1.8408,-1.7778,-1.6083,-1.415,-1.2305,-1.3496,-1.4377,-1.3209,-1.512,-1.6968,-1.7638,-1.7726,-1.7775,-1.7998,-1.7705,-1.7949,-1.8946,-1.8887,-1.9347,-2.0836,-2.0958,-2.1523,-2.2798,-2.4239,-2.5036,-2.5175,-2.5906,-2.6336,-2.651,-2.7086,-2.7458,-2.761,-2.8638,-2.9134,-2.9271,-3.0727,-3.1422,-3.1517,-3.1359,-3.1245,-3.1082,-2.9796,-2.9559,-2.988,-2.8588,-2.8592,-2.9296,-2.9296,-2.959,-3.0184,0.0,0.0,0.0,0.0,0.0,0.0,0.0,-2.0562,-2.1398,-2.2225,-2.3094,-2.3973,-2.4935,-2.4475,-2.3648,0.0,0.0,0.0,0.0,0.0,0.0,0.0,0.0,-0.4731,-0.4108,-0.5826,-0.6406,-0.5847,0.0,0.0,-0.8946,-0.8854,-0.9472,-1.0672,0.0,0.0,0.0,0.0,0.0,0.0,0.0,0.0,0.0,0.0,0.0,0.0,0.0,0.0,0.0,0.0,-1.2101,-1.5235,-1.6718,-1.7027,-1.7051,-1.8081,-1.9123,-1.9888,-1.9975,-2.0622,-2.1013,-1.9973,-2.0282,-2.056,-1.9446,-1.8622,-1.7604,-1.5939,-1.4017,-1.1898,-0.9479,-1.0516,-1.151,-1.0861,-1.3115,-1.5323,-1.6365,-1.6913,-1.7432,-1.794,-1.7637,-1.7658,-1.8233,-1.8649,-1.9315,-2.0476,-2.1643,-2.2485,-2.275,-2.4109,-2.5128,-2.5502,-2.5835,-2.6035,-2.6035,-2.7037,-2.7374,-2.7006,-2.8604,-2.9475,-2.9626,-3.0378,-3.1007,-3.1531,-3.0923,-3.0597,-3.035,-2.963,-2.942,-2.9503,-2.8745,-2.8819,-2.9325,-2.9769,-3.0393,-3.1187,0.0,0.0,0.0,0.0,0.0,0.0,0.0,-2.0405,-2.1105,-2.1896,-2.247,-2.3468,-2.5216,-2.55,-2.5366,0.0,0.0,0.0,0.0,0.0,0.0,0.0,0.0,-0.8482,-0.7097,0.0,0.0,-0.949,-1.0516,0.0,0.0,0.0,0.0,0.0,-1.2723,-1.3441,-1.5195,0.0,0.0,0.0,0.0,-1.6954,0.0,0.0,0.0,0.0,0.0,0.0,0.0,0.0,-0.6271,-1.0898,-1.3396,-1.5102,-1.6462,-1.7874,-1.9114,-2.0089,-2.0469,-2.1347,-2.1834,-2.0418,-2.055,-2.0519,-1.8663,-1.7407,-1.5894,-1.3204,-1.128,-0.9373,-0.6924,-0.7859,-0.8856,-0.8457,-1.071,-1.2912,-1.4277,-1.5292,-1.6374,-1.7445,-1.7292,-1.7166,-1.7383,-1.8354,-1.931,-1.9993,-2.2141,-2.3299,-2.308,-2.3955,-2.4839,-2.5568,-2.5615,-2.5615,-2.5615,-2.6719,-2.6977,-2.6437,-2.8255,-2.9271,-2.9567,-2.9731,-3.0335,-3.116,-3.0439,-2.9966,-2.9727,-2.9546,-2.9391,-2.925,-2.925,-2.9412,-2.972,-3.0488,-3.1366,-3.2262,0.0,0.0,0.0,0.0,0.0,0.0,0.0,-1.9728,-2.0073,-2.1466,-2.2094,-2.2995,-2.4379,-2.5057,-2.5819,0.0,0.0,0.0,0.0,0.0,0.0,0.0,0.0,0.0,0.0,0.0,0.0,-1.1959,-1.2358,0.0,0.0,0.0,0.0,0.0,0.0,-1.5013,-1.53,-1.6565,0.0,0.0,0.0,0.0,0.0,0.0,0.0,0.0,0.0,-0.8903,-0.9785,0.3262,0.6708,0.4651,-0.0483,-0.8856,-1.674,-1.6717,-1.8557,-2.0877,-2.2139,-2.2762,-2.2773,-2.1559,-2.1302,-2.0264,-1.6126,-1.4323,-1.2676,-0.9826,-0.8287,-0.7242,-0.6625,-0.6881,-0.7194,-0.7259,-0.8523,-1.0188,-1.2096,-1.3215,-1.4457,-1.5918,-1.6057,-1.6391,-1.7317,-1.8137,-1.9008,-1.9866,-2.172,-2.3525,-2.5242,-2.4791,-2.4839,-2.5568,-2.5615,-2.5615,-2.5615,-2.6184,-2.6483,-2.6421,-2.7646,-2.839,-2.8749,-2.9723,-3.0396,-3.0826,-3.0381,-3.0174,-3.0088,-2.935,-2.9447,-3.0099,-3.0099,-3.0674,-3.1648,-3.2463,-3.2978,-3.3373,0.0,0.0,0.0,0.0,0.0,0.0,-1.7969,-1.8656,-1.9396,-2.0223,-2.0815,-2.1716,-2.3209,-2.3502,-2.453,-2.6895,0.0,0.0,0.0,0.0,0.0,0.0,0.0,0.0,0.0,0.0,-1.7852,-1.7123,-1.8527,0.0,0.0,0.0,0.0,0.0,0.0,-1.9233,-2.0057,-2.0127,0.0,0.0,0.0,0.0,0.0,0.0,0.0,0.0,0.0,0.0,-0.3477,0.5865,1.1904,1.5384,1.4311,0.5324,-0.5668,-0.9621,-1.1962,-1.4485,-2.0194,-2.3187,-2.4227,-2.2246,-2.0497,-1.8434,-1.5472,-1.2586,-0.976,-0.7028,-0.5775,-0.4656,-0.29,-0.2674,-0.3008,-0.3644,-0.4719,-0.6177,-0.8171,-0.9854,-1.1537,-1.3371,-1.4413,-1.5364,-1.6391,-1.7945,-1.962,-2.1403,-2.256,-2.3668,-2.4841,-2.4593,-2.4549,-2.4884,-2.5168,-2.5378,-2.5378,-2.6325,-2.6583,-2.6165,-2.7855,-2.8727,-2.8905,-2.9321,-2.983,-3.0389,-2.9752,-2.9494,-2.9457,-2.9122,-2.9475,-3.0233,-3.0387,-3.1005,-3.1936,-3.287,-3.3412,-3.3764,0.0,0.0,0.0,0.0,0.0,-1.7173,-1.7407,-1.8243,-1.9097,-1.9657,-2.0162,-2.1014,-2.2458,-2.2639,-2.3686,-2.625,-2.6822,0.0,0.0,0.0,0.0,0.0,0.0,0.0,0.0,0.0,-2.2783,-2.1953,-2.3502,-2.4389,0.0,0.0,-2.3482,-2.3495,0.0,0.0,0.0,0.0,0.0,0.0,0.0,0.0,0.0,0.0,0.0,0.0,0.0,0.0,0.0,0.0,0.0,2.1128,2.3119,0.0,0.0,0.1147,-0.3758,-0.8477,-1.3107,-1.8071,-2.1416,-1.9381,-1.735,-1.5215,-1.2502,-0.9688,-0.6877,-0.401,-0.3083,-0.2153,-0.0345,0.0281,0.0215,-0.052,-0.127,-0.2405,-0.4429,-0.6259,-0.8263,-1.0707,-1.212,-1.3531,-1.5314,-1.8155,-2.0819,-2.2999,-2.3544,-2.3997,-2.4453,-2.458,-2.4632,-2.4632,-2.5012,-2.5221,-2.5221,-2.6248,-2.6524,-2.603,-2.7687,-2.8572,-2.8752,-2.8809,-2.9215,-2.9824,-2.9255,-2.9173,-2.9466,-2.9466,-2.9995,-3.0828,-3.1248,-3.1822,-3.2503,-3.3526,-3.4065,-3.4378,0.0,0.0,0.0,0.0,0.0,0.0,-1.8767,-1.8837,-1.9167,-2.0146,-2.0632,-2.1284,-2.23,-2.2925,-2.3819,-2.5118,-2.5575,0.0,0.0,0.0,0.0,0.0,0.0,0.0,0.0,0.0,-2.4926,-2.5824,-2.6144,-2.7113,-2.8714,-2.811,-2.7365,-2.6572,0.0,0.0,0.0,0.0,0.0,0.0,0.0,0.0,0.0,0.0,0.0,0.0,0.0,0.0,0.0,0.0,0.0,0.0,0.0,0.0,0.0,0.0,0.5334,-0.4499,0.0187,-0.5639,-1.2784,-1.1782,-1.1509,-1.0332,-0.5992,-0.4995,-0.4019,-0.0703,-0.0068,0.0,0.0,0.0844,0.1599,0.16,0.1553,0.0829,-0.1229,-0.2463,-0.4483,-0.8119,-0.893,-1.0574,-1.4094,-1.8848,-2.2519,-2.4257,-2.4496,-2.4582,-2.4612,-2.4983,-2.5182,-2.5182,-2.5221,-2.5221,-2.5221,-2.5742,-2.6013,-2.6013,-2.6889,-2.7535,-2.7926,-2.8255,-2.8633,-2.8994,-2.8994,-2.9603,-3.059,-3.059,-3.1202,-3.226,-3.3053,-3.3542,-3.3898,-3.4761,-3.5254,-3.5474,0.0,0.0,0.0,0.0,0.0,0.0,0.0,-1.8174,-1.9109,-2.0156,-2.0171,-2.064,-2.217,-2.2269,-2.2509,-2.3287,-2.4287,0.0,0.0,0.0,0.0,0.0,0.0,0.0,0.0,0.0,-2.6965,-2.712,-2.8046,-2.8779,-2.9337,-2.9156,-2.876,-2.8219,-2.7675,-2.7294,0.0,0.0,0.0,0.0,0.0,0.0,0.0,0.0,0.0,0.0,0.0,0.0,0.0,0.0,0.0,0.0,0.0,0.0,0.0,1.9422,1.8028,1.4409,0.8813,0.2803,-0.1608,-0.0378,-0.1801,-0.3168,-0.1655,-0.006,0.1328,0.1884,0.2003,0.2033,0.2124,0.2372,0.2631,0.2603,0.2624,0.2125,0.0777,-0.1546,-0.4063,-0.6603,-1.1178,-1.5265,-1.8161,-2.0953,-2.3106,-2.4357,-2.4509,-2.4515,-2.4456,-2.4942,-2.5221,-2.5221,-2.5855,-2.6245,-2.6245,-2.6674,-2.6905,-2.6905,-2.7439,-2.7908,-2.8264,-2.8368,-2.8633,-2.9035,-2.9798,-3.0302,-3.0667,-3.1392,-3.2223,-3.3053,-3.3501,-3.4099,-3.4737,-3.5189,-3.5432,-3.5493,0.0,0.0,0.0,0.0,0.0,0.0,0.0,-1.8388,-1.9231,-1.9697,-1.9938,-2.0399,-2.1317,-2.1585,-2.1928,-2.247,-2.3256,0.0,0.0,0.0,0.0,0.0,0.0,0.0,0.0,-2.7453,-2.8086,-2.7865,-2.916,-2.9761,-2.9683,-2.9925,-2.9739,-2.9158,-2.8661,-2.8269,0.0,0.0,0.0,0.0,0.0,0.0,0.0,0.0,0.0,0.0,0.0,0.0,0.0,0.0,0.0,0.0,0.0,0.0,0.0,0.0,2.0587,2.0083,1.3354,0.8059,0.4561,0.5085,0.3378,0.1581,0.1694,0.2636,0.3346,0.2931,0.2863,0.2912,0.3002,0.337,0.3668,0.3691,0.4029,0.353,0.132,-0.0695,-0.3149,-0.6388,-1.2103,-1.6541,-1.8263,-2.1247,-2.3365,-2.4089,-2.4413,-2.4547,-2.4475,-2.4733,-2.4989,-2.5182,-2.6158,-2.6774,-2.6939,-2.7178,-2.7396,-2.753,-2.7908,-2.821,-2.842,-2.8565,-2.8803,-2.9215,-3.019,-3.0899,0.0,-3.2408,-3.3348,-3.4196,-3.4381,-3.4757,-3.5273,-3.5432,-3.5493,-3.5493,0.0,0.0,0.0,0.0,0.0,0.0,0.0,-1.9221,-1.9457,-1.9026,-1.9895,-2.0444,-2.0014,-2.096,-2.1863,-2.2495,0.0,0.0,0.0,0.0,0.0,0.0,0.0,0.0,0.0,-2.7308,-2.8055,-2.7914,-2.924,-2.9731,-2.9488,-3.007,-2.991,-2.9175,-2.9166,-2.8616,0.0,0.0,0.0,0.0,0.0,0.0,0.0,0.0,0.0,0.0,0.0,0.0,0.0,0.0,0.0,0.0,0.0,0.0,0.0,0.0,0.0,0.0,0.0,1.0447,0.6753,0.6042,0.507,0.4368,0.429,0.36,0.0,0.2885,0.3011,0.3101,0.31,0.4024,0.4809,0.4852,0.5625,0.4822,0.0692,-0.023,-0.2295,-0.7315,-1.2083,-1.5104,-1.5441,-2.0098,-2.3285,-2.3561,-2.4229,-2.4567,-2.4507,-2.4468,-2.4712,-2.5182,-2.6158,-2.6906,-2.7303,-2.7317,-2.753,-2.7954,-2.829,-2.8446,-2.8478,-2.8863,-2.916,-2.947,-3.037,-3.145,-3.2676,-3.3551,-3.4538,-3.5493,-3.5493,-3.5493,-3.5493,-3.5493,-3.5493,-3.5493,0.0,0.0,0.0,0.0,0.0,0.0,0.0,0.0,0.0,0.0,-1.9515,-1.9723,-2.0578,-2.0874,-2.1206,0.0,0.0,0.0,0.0,0.0,0.0,0.0,0.0,0.0,0.0,-2.4611,-2.5196,-2.5951,-2.5917,-2.5994,-2.6284,-2.601,-2.6001,-2.6132,-2.5757,0.0,0.0,0.0,0.0,0.0,0.0,0.0,0.0,0.0,0.0,0.0,-2.0435,-1.7792,0.0,0.0,0.0,0.0,0.0,0.0,0.0,0.0,1.1441,1.135,1.059,0.0,1.1278,1.1105,0.9494,0.782,0.0,0.6359,0.5631,0.5021,0.5038,0.5171,0.5243,0.5648,0.5935,0.5899,0.6157,0.5146,0.1705,-0.2126,-0.5959,-0.9606,-1.3065,-1.545,-1.6156,-2.0649,-2.3557,-2.3664,-2.4229,-2.4403,-2.3864,-2.4589,-2.5067,-2.5182,-2.6158,-2.6906,-2.7303,-2.7607,-2.7936,-2.829,-2.8658,-2.8962,-2.9166,-2.9249,-2.9415,-2.9719,-3.1402,-3.2314,-3.2714,-3.4414,-3.5254,-3.5493,-3.5493,-3.5493,-3.5493,-3.5493,-3.5493,-3.5526,0.0,0.0,0.0,0.0,0.0,0.0,0.0,0.0,0.0,0.0,0.0,0.0,0.0,0.0,0.0,0.0,0.0,0.0,0.0,0.0,0.0,0.0,0.0,0.0,-2.2795,-2.3342,-2.3629,-2.3663,-2.3923,-2.3927,-2.3594,-2.3245,-2.3277,-2.3468,-2.2874,0.0,0.0,0.0,0.0,0.0,0.0,0.0,0.0,0.0,0.0,0.0,-1.7509,-1.5206,0.0,-0.9488,-0.6788,-0.3944,0.0,0.0,0.0,0.0,0.8265,0.9319,0.9279,1.0205,1.1136,1.0778,0.9426,0.8096,0.763,0.684,0.6086,0.5707,0.0,0.6395,0.5981,0.5701,0.5681,0.6177,0.4673,0.2481,-0.0155,-0.3317,-0.6618,-1.0003,-1.2601,-1.4764,-1.6503,-2.0009,-2.2353,-2.2743,-2.3351,-2.3792,-2.3979,-2.4511,-2.5067,-2.554,-2.6104,-2.674,-2.756,-2.7783,-2.8219,-2.886,-2.9075,-2.9312,-2.9551,-2.9551,-2.9643,-2.994,-3.1794,-3.2645,-3.2886,-3.4735,-3.5493,-3.5493,-3.5493,-3.5493,-3.5493,-3.5545,-3.5565,-3.5565,0.0,0.0,0.0,0.0,0.0,0.0,0.0,0.0,0.0,0.0,0.0,0.0,0.0,0.0,0.0,0.0,0.0,0.0,0.0,0.0,0.0,0.0,0.0,-2.1513,-2.1705,-2.2748,-2.2871,-2.1979,-2.2871,-2.2752,-2.1648,-2.1332,-2.1081,-2.0978,-2.0167,-1.9871,0.0,0.0,0.0,0.0,0.0,0.0,0.0,0.0,0.0,0.0,0.0,0.0,0.0,-0.8794,-0.6112,-0.3529,-0.2007,0.0,0.0,0.0,0.0,0.0,0.8683,0.8854,0.8762,0.8498,0.7914,0.7287,0.7149,0.0,0.0,0.0,0.0,0.0,0.5783,0.5321,0.526,0.5696,0.256,-0.0772,-0.2988,-0.4184,-0.6075,-0.9553,-1.1477,-1.3605,-1.6367,-1.8899,-2.072,-2.1629,-2.23,-2.3216,-2.4348,-2.4471,-2.5012,-2.6052,-2.6104,-2.6707,-2.7964,-2.7926,-2.8402,-2.9412,-2.9412,-2.9532,-2.9748,-2.9748,-2.9861,-3.0138,-3.1771,-3.2623,-3.3026,-3.4641,-3.5391,-3.5493,-3.5493,-3.5526,-3.5526,-3.5584,-3.5611,-3.5631,0.0,0.0,0.0,0.0,0.0,0.0,0.0,0.0,0.0,0.0,0.0,0.0,0.0,0.0,0.0,0.0,0.0,0.0,0.0,0.0,0.0,0.0,-2.0022,-2.0603,-2.1749,-2.195,-2.2444,-2.3136,-2.2444,-2.1904,-2.1521,-1.9904,-1.8786,-1.8162,-1.7233,-1.712,-1.769,0.0,0.0,0.0,-1.9188,0.0,0.0,0.0,0.0,0.0,0.0,0.0,0.0,-0.9099,-0.6258,-0.2874,-0.2542,0.0,0.0,0.0,0.0,0.0,0.6854,0.6699,0.6851,0.8956,0.9012,0.8338,0.7491,0.7619,0.0,0.0,0.0,0.754,0.4799,0.5919,0.6521,0.3962,0.155,-0.0997,-0.3815,-0.4994,-0.6651,-0.9511,-1.0924,-1.2716,-1.5267,-1.8153,-2.0346,-2.1615,-2.23,-2.3216,-2.4348,-2.4831,-2.5512,-2.6387,-2.6522,-2.7144,-2.8316,-2.8047,-2.8402,-2.9412,-2.9412,-2.9589,-2.9954,-2.9954,-3.0089,-3.0381,-3.1411,-3.2231,-3.2987,-3.3968,-3.4834,-3.5493,-3.5493,-3.5545,-3.5603,-3.5603,-3.5643,-3.5693,0.0,0.0,0.0,0.0,0.0,0.0,0.0,0.0,0.0,0.0,0.0,0.0,0.0,0.0,0.0,0.0,0.0,0.0,0.0,0.0,0.0,-1.9368,-1.9095,-1.9161,-1.9519,-1.9866,-1.9976,-1.9944,-1.9748,-1.9424,-1.9036,-1.7998,-1.7135,-1.6368,-1.6208,-1.6297,-1.6638,0.0,0.0,0.0,0.0,0.0,0.0,0.0,0.0,0.0,0.0,0.0,0.0,0.0,-0.6282,-0.3336,-0.2876,0.0,0.0,0.0,0.0,0.0,0.7051,0.7401,0.7822,0.9393,0.8583,0.7298,0.6857,0.6944,0.7099,0.0,0.8093,0.8064,0.5564,0.5181,0.3605,-0.116,-0.0843,-0.0983,-0.404,-0.3765,-0.4772,-0.8923,-0.9874,-1.1851,-1.6144,-1.8101,-1.98,-2.1554,-2.23,-2.3216,-2.4348,-2.5118,-2.5812,-2.6472,-2.7046,-2.7689,-2.8394,-2.8264,-2.8578,-2.9412,-2.9513,-2.9713,-3.0013,-3.015,-3.0279,-3.0436,-3.1314,-3.216,-3.2968,-3.3833,-3.4737,-3.5565,-3.5565,-3.5603,-3.5661,-3.5738,-3.5805,-3.5876,0.0,0.0,0.0,0.0,0.0,0.0,0.0,0.0,0.0,0.0,0.0,0.0,0.0,0.0,0.0,0.0,0.0,0.0,0.0,0.0,-1.8948,-1.8647,-1.8236,-1.7921,-1.7589,-1.7958,-1.7844,-1.719,-1.7402,-1.7109,-1.6481,-1.6167,-1.5635,-1.4965,-1.5388,-1.5632,-1.5764,-1.6412,0.0,0.0,0.0,0.0,0.0,0.0,0.0,0.0,0.0,0.0,0.0,0.0,0.0,0.0,0.0,0.0,0.0,0.2678,0.3949,0.5752,0.7246,0.7841,0.826,0.9024,0.0,0.7423,0.6788,0.6783,0.7004,0.7409,0.807,0.8111,0.6207,0.4087,0.1049,-0.3728,-0.2248,-0.1478,-0.4362,-0.3282,-0.3844,-0.826,-0.9191,-1.1336,-1.6279,-1.789,-1.9405,-2.1322,-2.2239,-2.3245,-2.4511,-2.5373,-2.6114,-2.6817,-2.7525,-2.812,-2.854,-2.8504,-2.8795,-2.9412,-2.9607,-2.9796,-3.0013,-3.0267,-3.0398,-3.0436,-3.1121,-3.1987,-3.2987,-3.3673,-3.4603,-3.5622,-3.5618,-3.5669,-3.5759,-3.5862,-3.5932,-3.5966,0.0,0.0,0.0,0.0,0.0,0.0,0.0,0.0,0.0,0.0,0.0,0.0,0.0,0.0,0.0,0.0,0.0,0.0,0.0,0.0,-1.8555,-1.7364,-1.7322,-1.7359,-1.7589,-1.7283,-1.7326,-1.7763,-1.6893,-1.5951,-1.4854,-1.4721,-1.425,-1.3575,-1.3884,-1.4297,-1.4612,-1.4662,-1.4955,0.0,0.0,0.0,0.0,0.0,0.0,0.0,0.0,0.0,0.0,0.0,0.0,0.0,0.0,0.0,0.2678,0.2678,0.3949,0.5624,0.6527,0.6344,0.6015,0.689,0.9346,1.0797,0.8268,0.8661,0.9189,0.7668,0.7392,0.7009,0.5583,0.3207,0.1287,0.0859,-0.1077,-0.3224,-0.5212,-0.5388,-0.592,-0.7752,-0.9352,-1.1363,-1.4006,-1.6917,-1.9187,-2.0562,-2.1918,-2.3405,-2.5051,-2.5575,-2.6421,-2.7747,-2.7851,-2.8228,-2.8952,-2.8824,-2.8964,-2.9412,-2.9607,-2.9796,-3.0013,-3.0267,-3.0398,-3.0398,-3.0456,-3.1468,-3.3089,-3.3147,-3.4173,-3.5688,-3.5678,-3.5766,-3.589,-3.5908,-3.5893,-3.5893,0.0,0.0,0.0,0.0,0.0,0.0,0.0,0.0,0.0,0.0,0.0,0.0,0.0,0.0,0.0,0.0,0.0,0.0,0.0,0.0,-1.7001,-1.6548,-1.6538,-1.6445,-1.6255,-1.5866,-1.5577,-1.5517,-1.4623,-1.3999,-1.358,-1.3726,-1.3639,-1.3443,-1.4023,-1.4236,-1.4246,-1.4767,-1.4907,-1.4911,0.0,0.0,0.0,0.0,0.0,0.0,0.0,0.0,0.0,0.0,-0.5256,-0.34,-0.2876,-0.02,0.2678,0.2678,0.3949,0.5624,0.6461,0.6597,0.6607,0.6873,0.8759,0.0,0.0,0.6957,0.7513,0.8017,0.722,0.5943,0.4136,0.1,-0.1365,-0.1432,-0.3193,-0.4789,-0.5523,-0.5508,-0.6078,-0.7728,-0.9409,-1.137,-1.3762,-1.7125,-1.956,-2.0512,-2.2275,-2.3694,-2.4657,-2.541,-2.6286,-2.7377,-2.8103,-2.873,-2.9246,-2.9319,-2.9438,-2.9589,-2.978,-2.9924,-3.0013,-3.0267,-3.0398,-3.0398,-3.0448,-3.116,-3.2326,-3.2919,-3.3895,-3.5065,-3.5603,-3.5866,-3.5896,-3.5815,-3.5778,-3.5765,0.0,0.0,0.0,0.0,0.0,0.0,0.0,0.0,0.0,0.0,0.0,0.0,0.0,0.0,0.0,0.0,0.0,0.0,0.0,-1.5615,-1.5848,-1.5741,-1.575,-1.5425,-1.4823,-1.4304,-1.4129,-1.4336,-1.3277,-1.2599,-1.2335,-1.253,-1.2652,-1.2675,-1.3245,-1.3437,-1.3251,-1.3785,-1.3847,0.0,0.0,0.0,0.0,0.0,0.0,0.0,0.0,0.0,0.0,0.0,-0.5064,-0.3467,-0.2876,-0.02,0.2678,0.2678,0.377,0.5145,0.602,0.6392,0.6511,0.6463,0.0,0.0,0.6121,0.6117,0.6796,0.7553,0.7153,0.5885,0.3252,0.0632,-0.1401,-0.203,-0.4023,-0.5518,-0.5518,-0.543,-0.6005,-0.7713,-0.9409,-1.1417,-1.4059,-1.7458,-1.9901,-2.0855,-2.2759,-2.4074,-2.4617,-2.5635,-2.6554,-2.733,-2.842,-2.9111,-2.9412,-2.9661,-2.9817,-2.9857,-3.0056,-3.0095,-3.0013,-3.0286,-3.0417,-3.0448,-3.0506,-3.1044,-3.1934,-3.285,-3.3926,-3.5073,-3.5668,-3.5872,-3.5823,-3.5718,-3.5665,-3.5661,0.0,0.0,0.0,0.0,0.0,0.0,0.0,0.0,0.0,0.0,0.0,0.0,0.0,0.0,0.0,0.0,0.0,0.0,-1.4802,-1.5166,-1.5231,-1.4905,-1.4861,-1.448,-1.3592,-1.2852,-1.3177,-1.4775,-1.3168,-1.1937,-1.1115,-1.1022,-1.0995,-1.1009,-1.1296,-1.1423,-1.1423,-1.1423,0.0,0.0,0.0,0.0,0.0,0.0,0.0,0.0,0.0,0.0,0.0,0.0,-0.4217,-0.2678,-0.2678,-0.02,0.2678,0.2678,0.3345,0.4229,0.5129,0.5383,0.531,0.5393,0.6075,0.6461,0.5624,0.6877,0.7742,0.6118,0.7064,0.6975,0.3253,0.2542,0.1954,0.0263,-0.3053,-0.5428,-0.5428,-0.5428,-0.6067,-0.7718,-0.9409,-1.1624,-1.4687,-1.7744,-2.0101,-2.1492,-2.3359,-2.4632,-2.5182,-2.6404,-2.7347,-2.7897,-2.8883,-2.9412,-2.9412,-2.9796,-3.0079,-3.0224,-3.0407,-3.0324,-3.0013,-3.0356,-3.0506,-3.0506,-3.0564,-3.1133,-3.2073,-3.2956,-3.4328,-3.5905,-3.5892,-3.5815,-3.5699,-3.5622,-3.5603,-3.5603,0.0,0.0,0.0,0.0,0.0,0.0,0.0,0.0,0.0,0.0,0.0,0.0,0.0,0.0,0.0,0.0,0.0,0.0,0.0,-1.4277,-1.4363,-1.4019,-1.3979,-1.3749,-1.3157,-1.3145,-1.2964,-1.2621,-1.1679,-1.1171,-1.1115,-1.1022,-1.0995,-1.1002,-1.061,-1.0691,-1.1069,0.0,0.0,0.0,-1.0654,0.0,0.0,0.0,0.0,0.0,0.0,0.0,0.0,0.0,0.0,0.0,-0.2678,-0.0135,0.2816,0.276,0.4287,0.6075,0.6246,0.63,0.632,0.6276,0.6527,0.6461,0.5624,0.6312,0.6676,0.4904,0.4397,0.3763,0.2027,0.0134,-0.106,-0.0929,-0.3462,-0.5428,-0.5428,-0.6384,-0.7335,-0.7842,-1.0394,-1.2905,-1.481,-1.7744,-2.026,-2.2059,-2.3558,-2.4776,-2.5726,-2.6503,-2.7321,-2.8094,-2.9008,-2.9565,-2.9813,-3.018,-3.0363,-3.0407,-3.052,-3.052,-3.0433,-3.0521,-3.0577,-3.0576,-3.0634,-3.1172,-3.2122,-3.3608,-3.4827,-3.5747,-3.5714,-3.5661,-3.5622,-3.5565,-3.5545,-3.5545,0.0,0.0,0.0,0.0,0.0,0.0,0.0,0.0,0.0,0.0,0.0,0.0,0.0,0.0,0.0,0.0,0.0,0.0,0.0,0.0,-1.3657,-1.3142,-1.311,-1.2814,-1.2089,-1.2096,-1.1829,-1.1233,-1.0943,-1.0485,-0.9878,-0.9854,-0.9819,-0.9759,-0.9449,-0.9432,-0.9765,-0.9455,0.0,0.0,-0.9394,-0.9159,-0.8964,0.0,0.0,0.0,0.0,0.0,0.0,0.0,0.0,0.0,-0.2678,0.0,0.2189,0.1746,0.3059,0.4688,0.4553,0.509,0.5596,0.5609,0.6191,0.6588,0.6009,0.5738,0.5196,0.3799,0.3328,0.2664,0.1073,-0.0534,-0.1663,-0.1801,-0.3875,-0.5491,-0.5881,-0.7089,-0.8281,-0.9289,-1.1453,-1.401,-1.685,-1.8751,-2.0846,-2.3353,-2.4443,-2.5422,-2.632,-2.7022,-2.7763,-2.8534,-2.9345,-2.9864,-3.0083,-3.0388,-3.0544,-3.0583,-3.0594,-3.0609,-3.064,-3.0645,-3.0634,-3.0618,-3.1016,-3.1675,-3.2599,-3.3981,-3.4993,-3.565,-3.5624,-3.5584,-3.5565,-3.5526,-3.5493,-3.5493,0.0,0.0,0.0,0.0,0.0,0.0,0.0,0.0,0.0,0.0,0.0,0.0,0.0,0.0,0.0,0.0,0.0,0.0,0.0,0.0,-1.3002,-1.2282,-1.2263,-1.173,-1.0618,-1.0321,-1.0252,-1.0498,-1.0619,-0.9817,-0.8091,-0.8006,-0.7996,-0.7991,0.0,-0.7901,-0.7965,-0.7857,-0.7931,-0.7996,-0.7887,-0.7897,-0.7897,-0.7767,0.0,0.0,0.0,0.0,0.0,0.0,0.0,0.0,-0.2744,-0.0871,0.1209,0.0468,0.0954,0.1663,0.1678,0.2778,0.3986,0.3969,0.5266,0.6453,0.6588,0.5203,0.368,0.2943,0.3268,0.2865,0.0336,-0.02,-0.0793,-0.2539,-0.4348,-0.5815,-0.6588,-0.7598,-0.9105,-1.1428,-1.2627,-1.5162,-1.9855,-2.043,-2.1846,-2.5064,-2.5783,-2.6319,-2.6966,-2.7826,-2.8552,-2.9133,-2.9857,-3.0232,-3.0242,-3.0478,-3.0641,-3.071,-3.0632,-3.0643,-3.0706,-3.068,-3.0658,-3.0658,-3.1621,-3.2465,-3.3254,-3.421,-3.4979,-3.5603,-3.5603,-3.5565,-3.5493,-3.5493,-3.5493,-3.5493,0.0,0.0,0.0,0.0,0.0,0.0,0.0,0.0,0.0,0.0,0.0,0.0,0.0,0.0,0.0,0.0,0.0,0.0,0.0,0.0,-1.1564,-1.1111,-1.0991,-1.0864,-1.0624,-1.0722,-1.0393,-0.9594,-0.9349,-0.916,-0.9005,-0.8159,0.0,-0.7746,0.0,-0.6955,-0.7578,-0.7005,-0.7133,-0.7704,-0.7177,-0.6981,-0.6915,-0.6207,-0.5818,0.0,0.0,0.0,0.0,0.0,0.0,0.0,-0.2945,-0.0745,0.1579,0.2018,0.3262,0.4546,0.4489,0.4207,0.402,0.4,0.4268,0.4746,0.5484,0.4278,0.3143,0.3597,0.2206,0.047,-0.0805,-0.1605,-0.2469,-0.3544,-0.5269,-0.6461,-0.6654,-0.911,-1.1112,-1.1621,-1.4541,-1.7515,-2.0028,-2.1305,-2.3118,-2.6011,-2.6319,-2.6845,-2.7861,-2.8562,-2.9089,-2.9494,-3.0117,-3.0455,-3.0502,-3.0625,-3.0679,-3.0691,-3.0682,-3.0684,-3.0702,-3.0653,-3.0609,-3.0684,-3.2237,-3.2976,-3.3157,-3.4712,-3.5416,-3.5526,-3.5526,-3.5526,-3.5493,-3.5493,-3.5493,-3.5493,0.0,0.0,0.0,0.0,0.0,0.0,0.0,0.0,0.0,0.0,0.0,0.0,0.0,0.0,0.0,0.0,0.0,0.0,0.0,0.0,-1.1169,-1.0886,-1.0677,-1.0624,-1.0624,-1.0708,-1.0316,-0.9274,-0.8736,-0.8292,0.0,0.0,0.0,-0.657,0.0,-0.5932,0.0,-0.5508,-0.5443,-0.5755,-0.5095,-0.4764,-0.4773,-0.4725,-0.4755,-0.4821,-0.5226,0.0,0.0,0.0,0.0,0.0,0.0,0.0,0.0272,0.067,0.2087,0.3391,0.2871,0.3062,0.34,0.34,0.3407,0.348,0.4015,0.3011,0.2142,0.2603,0.1274,-0.0268,-0.1055,-0.1991,-0.3129,-0.4324,-0.5741,-0.7102,-0.8318,-1.0378,-1.2271,-1.3711,-1.6245,-1.8875,-2.1379,-2.2699,-2.4365,-2.672,-2.7075,-2.7617,-2.8581,-2.899,-2.9456,-3.0007,-3.0414,-3.0623,-3.0653,-3.0687,-3.0702,-3.0702,-3.0626,-3.0583,-3.0564,-3.054,-3.055,-3.066,-3.2333,-3.3026,-3.309,-3.482,-3.5545,-3.5493,-3.5493,-3.5493,-3.5493,-3.5493,-3.5493,-3.5493,0.0,0.0,0.0,0.0,0.0,0.0,0.0,0.0,0.0,0.0,0.0,0.0,0.0,0.0,0.0,0.0,0.0,0.0,0.0,-1.1016,-1.0986,-1.09,-1.0698,-1.0624,-1.0624,-1.0624,-1.0174,-0.9274,-0.842,0.0,0.0,0.0,0.0,-0.5315,0.0,0.0,0.0,-0.3931,-0.3591,-0.3539,-0.2939,-0.2713,-0.2785,-0.3647,-0.4015,-0.4148,-0.509,-0.5428,-0.5428,-0.5428,0.0,0.0,0.0,0.0,-0.1272,-0.1133,0.02,0.1405,0.0867,0.1668,0.2674,0.2476,0.2477,0.2476,0.2678,0.1942,0.1273,0.1273,0.047,-0.0467,-0.1358,-0.2428,-0.3638,-0.5248,-0.6578,-0.8179,-1.0497,-1.1867,-1.3658,-1.6446,-1.8194,-2.0263,-2.3053,-2.4239,-2.5576,-2.7357,-2.7833,-2.8406,-2.9169,-2.9386,-2.9795,-3.0501,-3.0625,-3.0694,-3.0692,-3.0691,-3.0678,-3.0679,-3.0564,-3.0444,-3.0343,-3.059,-3.0717,-3.0794,-3.2256,-3.2987,-3.3256,-3.4853,-3.5493,-3.5493,-3.5493,-3.5493,-3.5493,-3.5493,-3.5493,-3.546,0.0,0.0,0.0,0.0,0.0,0.0,0.0,0.0,0.0,0.0,0.0,-1.2331,-1.1927,-1.1572,0.0,0.0,0.0,0.0,-0.9221,0.0,0.0,-1.0214,-1.0463,-1.0624,-1.0624,-1.0624,-1.0174,-0.9274,-0.842,0.0,0.0,0.0,0.0,-0.5091,0.0,0.0,0.0,0.0,-0.2684,-0.269,-0.2699,-0.2729,-0.2797,-0.3675,-0.4015,-0.4148,-0.509,-0.5428,-0.5428,-0.5428,-0.5296,0.0,0.0,0.0,-0.1133,-0.04,0.1069,0.2674,0.3261,0.3058,0.2465,0.1673,0.1474,0.1675,0.2544,0.1942,0.1273,0.1273,0.0,-0.1526,-0.2955,-0.4181,-0.547,-0.6966,-0.8731,-1.0539,-1.2022,-1.4554,-1.6882,-1.8542,-2.0931,-2.2966,-2.4182,-2.5483,-2.6811,-2.8148,-2.8524,-2.8979,-2.9662,-2.994,-3.0255,-3.0648,-3.0633,-3.0634,-3.0709,-3.0637,-3.0621,-3.0602,-3.0544,-3.0324,-3.008,-3.1098,-3.1545,-3.1583,-3.2506,-3.3333,-3.4103,-3.5103,-3.5493,-3.5493,-3.5493,-3.5493,-3.5493,-3.5493,-3.5493,-3.546,0.0,0.0,0.0,0.0,0.0,0.0,0.0,0.0,0.0,0.0,0.0,-1.136,-1.0751,-1.0335,0.0,0.0,0.0,0.0,-0.9038,-0.9292,0.0,0.0,-1.0241,-1.0388,-1.0618,-1.011,-0.946,-0.8549,0.0,0.0,0.0,-0.495,-0.4466,0.0,0.0,0.0,0.0,0.0,-0.1695,-0.1698,-0.1361,-0.1521,-0.2143,-0.2945,-0.365,-0.424,-0.5119,-0.5428,-0.5428,-0.5428,-0.5428,-0.5362,-0.4888,0.0,0.0,0.0,0.02,0.1403,0.227,0.2296,0.1773,0.0809,0.0605,0.0672,0.1074,0.0873,0.0605,0.0605,-0.1204,-0.2958,-0.3326,-0.483,-0.6647,-0.8489,-1.0382,-1.231,-1.4343,-1.6667,-1.8933,-2.0992,-2.2817,-2.4479,-2.5995,-2.7134,-2.8074,-2.8741,-2.9151,-2.9548,-2.9993,-3.0208,-3.0426,-3.0686,-3.0664,-3.0668,-3.0698,-3.0491,-3.0279,-3.0102,-3.0064,-2.9962,-2.9864,-3.0462,-3.1019,-3.1569,-3.3006,-3.3853,-3.4257,-3.5141,-3.5493,-3.5493,-3.5493,-3.5417,-3.5273,-3.5273,-3.519,-3.4999,0.0,0.0,0.0,0.0,0.0,0.0,0.0,0.0,0.0,0.0,0.0,0.0,-0.9643,0.0,0.0,0.0,0.0,0.0,-0.9064,0.0,0.0,0.0,0.0,-1.0221,-1.0441,-0.968,-0.8815,-0.8027,0.0,0.0,-0.5362,-0.442,-0.3882,0.0,-0.3335,-0.2788,0.0,0.0,0.0,-0.0759,-0.0196,-0.0598,-0.1611,-0.2449,-0.3378,-0.4314,-0.5116,-0.542,-0.5413,-0.5439,-0.5428,-0.5428,-0.5428,-0.4755,0.0,0.0,0.0,0.0799,0.1472,0.2117,0.2219,0.0683,0.034,0.034,0.0068,0.0,0.0,0.0,-0.2465,-0.4496,-0.4083,-0.599,-0.8212,-1.0196,-1.2183,-1.4307,-1.6851,-1.8933,-2.1209,-2.3692,-2.483,-2.606,-2.7602,-2.8439,-2.9,-2.9265,-2.9664,-3.0,-3.024,-3.0396,-3.0535,-3.0691,-3.0687,-3.0681,-3.0641,-3.0319,-2.9994,-2.9696,-2.9696,-2.9678,-2.9644,-3.0056,-3.0573,-3.1222,-3.3072,-3.4076,-3.4477,-3.5191,-3.5432,-3.5304,-3.5369,-3.5223,-3.4999,-3.4999,-3.487,-3.4653,0.0,0.0,0.0,0.0,0.0,0.0,0.0,0.0,0.0,0.0,0.0,0.0,0.0,0.0,0.0,0.0,0.0,0.0,0.0,0.0,0.0,0.0,0.0,0.0,0.0,-0.9389,-0.8697,0.0,0.0,0.0,-0.5362,-0.442,-0.3547,-0.2744,-0.1805,-0.1404,-0.1338,0.0,0.0,0.0,0.0,-0.055,-0.1415,-0.2484,-0.342,-0.4327,-0.523,-0.5579,-0.5555,-0.541,-0.5428,-0.5428,-0.5428,-0.4755,-0.4015,0.0,0.0,0.0,0.2604,0.3944,0.464,0.1879,0.1395,0.1257,0.021,0.0,0.0,0.0,-0.3366,-0.6273,-0.6022,-0.8324,-1.0753,-1.2204,-1.4487,-1.6916,-1.9208,-2.1787,-2.4312,-2.6612,-2.7568,-2.8211,-2.8667,-2.8926,-2.9265,-2.9719,-3.0011,-3.0242,-3.0368,-3.0579,-3.0686,-3.0714,-3.0634,-3.056,-3.0506,-3.0174,-2.9912,-2.9696,-2.9696,-2.9607,-2.9451,-3.049,-3.0829,-3.071,-3.2286,-3.3763,-3.5081,-3.5383,-3.5207,-3.4773,-3.5016,-3.4963,-3.4714,-3.4714,-3.4714,-3.4653,0.0,0.0,0.0,0.0,0.0,0.0,0.0,0.0,0.0,0.0,0.0,0.0,0.0,-0.9283,-0.9239,-0.8844,-0.8804,0.0,0.0,0.0,0.0,0.0,0.0,0.0,0.0,-0.9488,0.0,0.0,0.0,-0.6209,-0.5362,-0.3882,-0.2983,-0.2669,-0.1696,-0.0991,-0.047,-0.0132,0.0,0.0,0.0,-0.097,-0.2467,-0.2705,-0.3781,-0.5339,-0.6041,-0.597,-0.5635,-0.6688,-0.6728,-0.6203,-0.6203,-0.5997,-0.5397,-0.3675,-0.1147,0.1158,0.168,0.2797,0.3753,0.3401,0.1384,-0.0069,0.1632,-0.007,-0.1578,-0.0276,-0.4197,-0.7987,-0.8374,-1.1152,-1.3798,-1.4972,-1.7529,-2.0043,-2.2003,-2.4121,-2.6051,-2.749,-2.8218,-2.8887,-2.9626,-2.9753,-2.9945,-3.0295,-3.0437,-3.0538,-3.0589,-3.0657,-3.0697,-3.0691,-3.0586,-3.0364,-2.9981,-2.9864,-2.9606,-2.9251,-2.9251,-2.9206,-2.9156,-2.9712,-3.0205,-3.063,-3.1367,-3.2568,-3.4073,-3.4735,-3.487,-3.4694,-3.4812,-3.4655,-3.4379,-3.4379,-3.4284,-3.4111,0.0,0.0,0.0,0.0,0.0,0.0,0.0,0.0,0.0,-0.9145,0.0,0.0,0.0,0.0,-0.907,-0.8831,-0.8804,-0.8804,-0.8804,0.0,0.0,0.0,0.0,0.0,0.0,-0.9359,0.0,0.0,0.0,0.0,0.0,-0.376,-0.2923,-0.2593,-0.1648,-0.0775,0.0,0.0,0.0,0.0,0.0,-0.097,-0.2542,-0.2704,-0.3776,-0.5412,-0.6435,-0.6422,-0.6163,-0.7612,-0.769,-0.7125,-0.7254,-0.703,-0.6252,-0.3806,-0.203,-0.0546,0.0538,0.1638,0.2581,0.3229,0.1807,0.0417,0.0938,-0.0914,-0.2602,-0.2348,-0.666,-1.0625,-1.1033,-1.4455,-1.7361,-1.7752,-2.0034,-2.2308,-2.4068,-2.5891,-2.7439,-2.8522,-2.9012,-2.9567,-3.017,-3.0289,-3.0412,-3.0621,-3.066,-3.0694,-3.0704,-3.0697,-3.0655,-3.0542,-3.0388,-3.0109,-2.9607,-2.9607,-2.9395,-2.8994,-2.8994,-2.8994,-2.9017,-2.9181,-2.9545,-3.0089,-3.0538,-3.1689,-3.333,-3.3995,-3.4327,-3.4416,-3.4486,-3.4334,-3.4068,-3.4068,-3.3961,-3.3807,0.0,0.0,0.0,0.0,0.0,0.0,0.0,0.0,-1.0394,-0.8984,0.0,0.0,0.0,0.0,0.0,-0.8831,-0.8804,-0.8804,-0.8804,-0.8804,0.0,0.0,0.0,0.0,0.0,-0.9045,0.0,0.0,0.0,0.0,0.0,0.0,-0.3342,-0.2458,-0.154,-0.0689,0.0,0.0,0.0,0.0,0.0,-0.0552,-0.1484,-0.2487,-0.3495,-0.453,-0.6314,-0.6929,-0.7065,-0.815,-0.8281,-0.8072,-0.8286,-0.7603,-0.6388,-0.4541,-0.3469,-0.2394,0.0,0.0,0.0,0.1368,0.2693,0.2734,-0.1918,-0.2398,-0.2874,-0.6222,-1.0829,-1.4159,-1.3864,-1.8136,-2.1464,-2.0689,-2.1926,-2.36,-2.5333,-2.7045,-2.8602,-2.9779,-3.017,-3.033,-3.0313,-3.0509,-3.0656,-3.07,-3.0698,-3.0696,-3.07,-3.071,-3.0542,-3.0205,-3.0079,-2.9796,-2.9412,-2.9412,-2.9267,-2.8994,-2.8994,-2.8994,-2.8975,-2.8994,-2.8994,-2.903,-2.9824,-3.1209,-3.2956,-3.3255,-3.3527,-3.3778,-3.4074,-3.4018,-3.3807,-3.3807,-3.3807,-3.3807,0.0,0.0,0.0,0.0,0.0,-1.2205,-1.1347,-1.058,-0.9749,0.0,0.0,0.0,-0.8838,-0.8878,-0.8891,-0.8811,-0.8804,-0.8804,-0.8804,-0.8804,-0.8804,-0.8804,-0.9372,-0.9686,-0.9686,-0.9912,-0.9693,-0.8941,-0.7798,-0.6894,-0.625,-0.4493,-0.3281,-0.2584,-0.1574,-0.0687,0.0,0.0,0.0,0.0,0.0,-0.0959,-0.2482,-0.2677,-0.4198,-0.6302,-0.7313,-0.7724,-0.7946,-0.9712,-0.9325,-0.8148,-0.8208,-0.7945,-0.7302,-0.5456,-0.5245,-0.4826,-0.1795,0.0,0.0,0.0,0.0,0.0,0.0144,-0.1265,-0.3544,-0.6332,-1.0287,-1.4308,-1.7967,-2.1793,-2.4694,-2.577,-2.5595,-2.5818,-2.7316,-2.8391,-2.9345,-3.0106,-3.0723,-3.0953,-3.0618,-3.1166,-3.1301,-3.0745,-3.0706,-3.0684,-3.063,-3.0577,-3.0401,-3.006,-3.0018,-2.9796,-2.9412,-2.9412,-2.9267,-2.8994,-2.8994,-2.8839,-2.8565,-2.8863,-2.8839,-2.8608,-2.9101,-2.9963,-3.107,-3.231,-3.2884,-3.2999,-3.3655,-3.3868,-3.3807,-3.3807,-3.3807,-3.3807,0.0,0.0,0.0,0.0,-1.3348,-1.2217,-1.1096,-1.0406,-0.9757,0.0,0.0,0.0,-0.8991,-0.8985,-0.8985,-0.8985,-0.8878,-0.8804,-0.8804,-0.8804,-0.8804,-0.8804,-0.9252,-0.9559,-0.9679,-1.002,-0.9936,-0.9274,-0.855,-0.7621,-0.6535,-0.5321,-0.4189,-0.3019,-0.2084,-0.1254,-0.0422,-0.0128,0.0,0.0,0.0,-0.0882,-0.2261,-0.2559,-0.3912,-0.5862,-0.7414,-0.7762,-0.7792,-1.0221,-1.0249,-0.9292,-0.8793,-0.8597,-0.8285,-0.6837,-0.6763,-0.6677,-0.4167,-0.3899,-0.3779,-0.1763,0.0,0.0,-0.3646,-0.4791,-0.6874,-1.1282,-1.5,-1.8526,-2.1777,-2.4676,-2.7066,-2.8661,-2.8237,-2.8001,-2.8795,-2.9411,-3.0085,-3.0905,-3.1367,-3.164,-3.1735,-3.1832,-3.1706,-3.1243,-3.0854,-3.0642,-3.0554,-3.0386,-3.0161,-2.9877,-2.9796,-2.9588,-2.9225,-2.9225,-2.9156,-2.8994,-2.8839,-2.8707,-2.8658,-2.8558,-2.8583,-2.8658,-2.8725,-2.9095,-2.9806,-3.1072,-3.199,-3.2687,-3.3495,-3.3807,-3.3807,-3.3807,-3.3807,-3.3807,0.0,0.0,-1.4914,-1.415,-1.3714,-1.2834,-1.0963,-1.0524,-1.0126,0.0,-0.8991,-0.8978,-0.925,-0.9223,-0.9196,-0.923,-0.8998,-0.8824,-0.8851,-0.8824,-0.8857,-0.891,-0.9194,-0.9471,-0.9741,-0.9809,-0.968,-0.9418,-0.898,-0.8067,-0.6602,-0.6433,-0.538,-0.3602,-0.281,-0.1952,-0.1045,-0.0327,0.0,0.0,0.0,-0.0602,-0.1534,-0.2398,-0.333,-0.459,-0.7098,-0.7567,-0.74,-0.9951,-1.0923,-1.0811,-0.9709,-0.9379,-0.9303,-0.8425,-0.8301,-0.8236,-0.708,-0.6928,-0.6959,-0.5974,-0.3924,0.0,-0.9903,-1.0069,-1.0865,-1.7798,-2.14,-2.364,-2.4863,-2.6751,-2.8536,-2.9799,-3.005,-3.0097,-3.0097,-3.0316,-3.0897,-3.2006,-3.2154,-3.2444,-3.3127,-3.2484,-3.1981,-3.191,-3.1052,-3.0521,-3.0451,-3.0142,-2.9877,-2.9678,-2.9494,-2.9267,-2.9017,-2.8994,-2.8994,-2.8994,-2.8633,-2.8608,-2.8858,-2.8228,-2.8281,-2.8791,-2.8515,-2.859,-2.9002,-2.9855,-3.1109,-3.2559,-3.3348,-3.3715,-3.3807,-3.3807,-3.3807,-3.3807,0.0,-1.4392,-1.3339,-1.2982,-1.198,-1.0863,-0.9714,-0.9699,-0.9644,-0.8951,-0.9045,-0.9303,-0.9886,-0.9469,-0.9339,-0.9579,-0.9112,-0.8905,-0.9084,-0.8938,-0.9061,-0.9562,-0.9929,-1.0126,-1.0192,-1.0639,-1.0548,-0.9956,-0.9266,-0.8533,-0.7698,-0.6666,-0.5332,-0.3716,-0.2899,-0.1952,-0.1071,-0.0317,0.0,0.0,0.0,-0.091,-0.2269,-0.2587,-0.4062,-0.6133,-0.7505,-0.8355,-0.891,-0.955,-1.0315,-1.0844,-0.9784,-1.0036,-1.0464,-0.9391,-1.0168,-1.086,-0.8376,-0.9186,-1.0358,-0.8832,-0.8032,0.0,-0.9253,-0.8777,-0.9736,-1.5943,-1.7702,-1.9786,-2.5182,-2.7408,-2.8589,-2.9197,-3.0765,-3.187,-3.1892,-3.1754,-3.2014,-3.2941,-3.3506,-3.3673,-3.3248,-3.2942,-3.2521,-3.1877,-3.0765,-3.0114,-3.0095,-2.9896,-2.9661,-2.9455,-2.9414,-2.9267,-2.9017,-2.8994,-2.8994,-2.8994,-2.8929,-2.8608,-2.812,-2.8237,-2.8057,-2.766,-2.8166,-2.8446,-2.8594,-2.9722,-3.0779,-3.1715,-3.2522,-3.3238,-3.3807,-3.3807,-3.3807,-3.3807,-1.5332,-1.4451,-1.3434,-1.2889,-1.1775,-1.0604,-0.9603,-0.9459,-0.9412,-0.9265,-0.9626,-0.99,-0.99,-0.9766,-0.974,-0.9886,-0.9499,-0.9245,-0.9183,-0.905,-0.9112,-0.9316,-0.9775,-1.0143,-1.0307,-1.0672,-1.0828,-1.0576,-1.0063,-0.9391,-0.8613,-0.7608,-0.663,-0.5678,-0.4006,-0.2963,-0.2392,-0.116,-0.0395,0.0,-0.0389,-0.1352,-0.2567,-0.2967,-0.4236,-0.5959,-0.737,-0.8764,-0.9868,-0.9545,-1.0049,-1.0768,-1.067,-1.0748,-1.087,-1.1073,-1.157,-1.1777,-1.078,-1.141,-1.215,-1.1341,-1.0719,0.0,0.0,-1.2772,-1.3905,-1.9304,-2.1016,-2.2653,-2.6503,-2.8515,-2.9692,-2.9925,-3.1477,-3.2603,-3.2481,-3.2534,-3.2932,-3.3794,-3.4101,-3.4288,-3.4332,-3.3884,-3.3044,-3.1646,-3.0883,-3.0281,-2.9864,-2.9661,-2.9494,-2.9412,-2.9267,-2.9134,-2.8994,-2.8994,-2.8905,-2.8682,-2.8533,-2.8255,-2.7897,-2.766,-2.7572,-2.7619,-2.7992,-2.8264,-2.8464,-2.9259,-3.0081,-3.087,-3.1696,-3.2485,-3.3201,-3.3201,-3.3458,-3.3807,-1.5205,-1.47,-1.3948,-1.3099,-1.2054,-1.1004,-0.9849,-0.9526,-0.9499,-0.974,-1.018,-1.0314,-0.99,-1.0007,-1.014,-1.02,-0.988,-0.9606,-0.9362,-0.9303,-0.9329,-0.9393,-0.9836,-1.0294,-1.0732,-1.1019,-1.115,-1.1233,-1.0986,-1.0415,-0.9518,-0.8672,-0.7968,-0.7374,-0.5356,-0.4178,-0.3448,-0.21,-0.1067,-0.0336,-0.1042,-0.1737,-0.2308,-0.3109,-0.4125,-0.5378,-0.7293,-0.9107,-1.0418,-0.9767,-1.0047,-1.0681,-1.1351,-1.1269,-1.1122,-1.2413,-1.256,-1.2468,-1.2903,-1.3304,-1.3657,-1.3468,-1.3107,-1.3611,0.0,0.0,0.0,-2.2644,-2.4585,-2.5944,-2.7186,-2.8928,-3.0252,-3.0408,-3.1718,-3.2686,-3.2601,-3.3018,-3.3555,-3.4114,-3.4304,-3.4597,-3.5155,-3.4324,-3.3096,-3.1572,-3.0884,-3.0338,-2.9907,-2.9528,-2.933,-2.933,-2.9112,-2.8994,-2.8994,-2.8929,-2.8725,-2.8394,-2.8047,-2.7869,-2.7754,-2.7115,-2.7115,-2.7678,-2.7754,-2.7992,-2.8342,-2.8725,-2.9271,-2.993,-3.0759,-3.1701,-3.2588,-3.2517,-3.3057,-3.3807,-1.4775,-1.4503,-1.3859,-1.2823,-1.2153,-1.1267,-0.9883,-0.9873,-1.0027,-1.006,-1.0127,-1.0241,-1.0441,-1.0254,-1.0221,-1.0551,-1.0007,-0.978,-1.0,-0.9773,-1.0222,-1.1495,-1.1258,-1.1484,-1.2236,-1.2501,-1.2372,-1.1784,-1.1699,-1.1197,-1.0368,-0.9512,-0.8233,-0.6572,-0.6371,-0.4911,-0.2633,-0.25,-0.1956,-0.1205,-0.2017,-0.1929,-0.1347,-0.2301,-0.368,-0.5431,-0.8164,-0.9537,-1.0207,-1.0405,-1.0498,-1.0624,-1.0681,-1.1354,-1.2018,-1.1979,-1.3099,-1.4162,-1.3275,-1.4542,-1.5948,-1.5197,-1.5991,-1.7025,-1.749,0.0,-1.8919,-2.0656,0.0,-2.3393,-2.5242,0.0,0.0,-2.9033,-3.0798,-3.2289,-3.2781,-3.3408,-3.3637,-3.3143,-3.4205,-3.4792,-3.4217,-3.2892,-3.2061,-3.2015,-3.0272,-2.9588,-3.0456,-2.957,-2.9062,-2.9062,-2.9017,-2.8994,-2.8994,-2.8658,-2.8446,-2.8394,-2.8047,-2.7707,-2.7365,-2.7255,-2.7083,-2.6841,-2.7192,-2.7589,-2.7964,-2.8316,-2.8525,-2.8688,-2.9492,-3.0946,-3.2562,-3.2274,-3.2848,-3.3807,-1.4746,-1.4118,-1.3382,-1.293,-1.1874,-1.0836,-1.0053,-1.004,-1.0053,-0.9886,-1.016,-1.0354,-1.0307,-1.0347,-1.0421,-1.0611,-1.0982,-1.0958,-1.0127,-1.1106,-1.1608,-1.1302,-1.1982,-1.2405,-1.2507,-1.3004,-1.3034,-1.2465,-1.2468,-1.2074,-1.1253,-1.0375,-0.9566,-0.8777,-0.7869,-0.6442,-0.4825,-0.3851,-0.29,-0.2074,-0.1919,-0.191,-0.2158,-0.331,-0.4799,-0.6488,-0.816,-0.9333,-1.0194,-1.0791,-1.0836,-1.0863,-1.2266,-1.2056,-1.1643,-1.339,-1.383,-1.3813,-1.4258,-1.5439,-1.6425,-1.611,-1.6778,-1.7786,-1.8614,-1.9288,-2.0239,-2.1945,0.0,0.0,0.0,0.0,0.0,0.0,-3.0466,-3.1707,-3.1019,-3.2241,-3.3299,-3.3566,-3.4101,-3.4405,-3.4245,-3.3525,-3.3022,-3.2882,-3.1544,-3.0622,-3.0374,-2.995,-2.9494,-2.8994,-2.8994,-2.8994,-2.8994,-2.8839,-2.8515,-2.8102,-2.7982,-2.7577,-2.6971,-2.6971,-2.6873,-2.6725,-2.7115,-2.753,-2.7926,-2.8264,-2.854,-2.8743,-2.8667,-2.9539,-3.0893,-3.1274,-3.2147,-3.3183,-1.4785,-1.4001,-1.3252,-1.307,-1.1849,-1.0795,-1.0329,-1.0241,-1.016,-0.9953,-1.0356,-1.0481,-1.0261,-1.0428,-1.0658,-1.0675,-1.1768,-1.1988,-1.0933,-1.2382,-1.291,-1.2025,-1.2789,-1.3177,-1.3109,-1.3673,-1.3774,-1.3424,-1.3345,-1.3061,-1.2443,-1.137,-1.0759,-1.0534,-0.8994,-0.7678,-0.6477,-0.4976,-0.3997,-0.334,-0.2409,-0.2729,-0.3803,-0.4732,-0.6088,-0.7518,-0.8451,-0.9269,-1.012,-1.1011,-1.1138,-1.1296,-1.3235,-1.2818,-1.2081,-1.4601,-1.4728,-1.4195,-1.5391,-1.6255,-1.681,-1.681,-1.7357,-1.8263,-1.9672,-2.0479,-2.1411,-2.3157,-2.4424,0.0,0.0,0.0,-2.844,-2.88,0.0,-3.0894,-3.0052,-3.1258,-3.2447,-3.2939,-3.3232,-3.3519,-3.3849,-3.3464,-3.3209,-3.3336,-3.2256,-3.1348,-3.0882,-3.0448,-2.9934,-2.9342,-2.9104,-2.8994,-2.8994,-2.8905,-2.8558,-2.802,-2.7936,-2.7547,-2.6873,-2.6873,-2.6873,-2.6873,-2.7178,-2.7589,-2.8047,-2.8316,-2.8515,-2.8669,-2.8324,-2.8706,-2.9575,-3.042,-3.1529,-3.2724,-1.4785,-1.4475,-1.3906,-1.313,-1.2328,-1.1524,-1.0667,-1.0611,-1.0604,-1.0598,-1.0611,-1.0618,-1.0611,-1.0618,-1.0675,-1.0955,-1.1826,-1.2538,-1.2781,-1.3332,-1.3953,-1.4754,-1.4015,-1.395,-1.4681,-1.4766,-1.4775,-1.4766,-1.4366,-1.4145,-1.4085,-1.2496,-1.1315,-1.0488,-0.964,-0.8264,-0.6542,-0.5643,-0.5259,-0.5127,-0.4276,-0.486,-0.6262,-0.6212,-0.7012,-0.8315,-0.9285,-0.9686,-0.9856,-1.0938,-1.1495,-1.1896,-1.2757,-1.3545,-1.4255,-1.508,-1.5803,-1.6368,-1.6436,-1.6978,-1.7578,-1.7578,-1.8112,-1.902,-2.0434,-2.1245,-2.2011,-2.3274,-2.4424,-2.5619,-2.7087,-2.7396,-2.8046,-2.9934,-2.9757,0.0,0.0,-3.1054,-3.085,-3.0285,-3.1183,-3.2039,-3.2533,-3.1649,-3.1686,-3.3112,-3.1502,-3.1059,-3.2444,-3.1054,-3.0191,-3.0173,-2.942,-2.8994,-2.8994,-2.8615,-2.842,-2.8394,-2.8047,-2.7678,-2.7272,-2.7272,-2.7272,-2.7272,-2.7286,-2.7718,-2.8376,-2.8394,-2.821,-2.7996,-2.8711,-2.9042,-2.9207,-3.0006,-3.1279,-3.2724,-1.5205,-1.4653,-1.3974,-1.313,-1.2328,-1.1531,-1.0744,-1.0624,-1.0624,-1.0624,-1.0624,-1.0624,-1.0624,-1.0624,-1.0665,-1.0759,-1.2542,-1.3338,-1.2649,-1.4794,-1.5873,-1.5333,-1.5252,-1.5254,-1.5205,-1.5205,-1.5068,-1.4785,-1.4907,-1.4746,-1.4213,-1.3657,-1.2671,-1.1322,-1.108,-1.0002,-0.8264,-0.6815,-0.6494,-0.7037,-0.6776,-0.7001,-0.7447,-0.7168,-0.7519,-0.8291,-0.9071,-0.9659,-1.0253,-1.1422,-1.2001,-1.2568,-1.4693,-1.4749,-1.4495,-1.6285,-1.6367,-1.6025,-1.6548,-1.6957,-1.7357,-1.7694,-1.8704,-1.9904,-2.1102,-2.1913,-2.2575,-2.3376,-2.4455,-2.5484,-2.6497,-2.7359,-2.8566,-3.0513,-3.0308,-3.0227,0.0,-3.071,-3.0207,-2.9979,-3.1004,-3.1689,-3.1576,-3.1986,-3.2577,-3.3405,-3.2715,-3.2343,-3.258,-3.1586,-3.0742,-3.0228,-2.9439,-2.8994,-2.8994,-2.8863,-2.8658,-2.8394,-2.829,-2.8047,-2.7678,-2.7409,-2.7303,-2.7303,-2.7303,-2.7589,-2.8075,-2.8316,-2.8489,-2.8648,-2.8902,-2.9347,-2.9924,-3.0725,-3.1701,-3.2724,-1.541,-1.4991,-1.4382,-1.3554,-1.2504,-1.1655,-1.1108,-1.0807,-1.0624,-1.0624,-1.0624,-1.0624,-1.0624,-1.0863,-1.1094,-1.1135,-1.3348,-1.4433,-1.3672,-1.5991,-1.7041,-1.6216,-1.6273,-1.6094,-1.5654,-1.5644,-1.543,-1.501,-1.5283,-1.5108,-1.4628,-1.4323,-1.3657,-1.2618,-1.175,-1.0885,-1.0078,-0.7991,-0.7613,-0.842,-0.8156,-0.8156,-0.8468,-0.8249,-0.826,-0.8467,-0.9026,-0.9736,-1.0627,-1.1734,-1.2612,-1.3606,-1.5816,-1.5863,-1.5399,-1.7168,-1.6983,-1.631,-1.7014,-1.7296,-1.7509,-1.8032,-1.8846,-1.9914,-2.1347,-2.2019,-2.2673,-2.393,-2.4592,-2.5255,-2.642,-2.767,-2.8936,-3.0245,-3.065,-3.0847,0.0,-3.0269,-2.9674,-2.9544,-3.0478,-3.1053,-3.0861,-3.175,-3.2593,-3.3239,-3.3221,-3.3182,-3.3172,-3.2323,-3.1458,-3.065,-2.9861,-2.9287,-2.8994,-2.8994,-2.8863,-2.8615,-2.8615,-2.8438,-2.8075,-2.7678,-2.7589,-2.7689,-2.756,-2.7823,-2.8326,-2.8515,-2.8682,-2.8798,-2.893,-2.9582,-3.0527,-3.1148,-3.2097,-3.3109,-1.541,-1.543,-1.5215,-1.4446,-1.2964,-1.1856,-1.1856,-1.1178,-1.0624,-1.0624,-1.0624,-1.0624,-1.0681,-1.1351,-1.1892,-1.2198,-1.4213,-1.5577,-1.5815,-1.6779,-1.7353,-1.7353,-1.6934,-1.6494,-1.6125,-1.6105,-1.589,-1.5468,-1.541,-1.541,-1.5352,-1.4628,-1.4273,-1.4085,-1.1665,-1.1058,-1.164,-0.9105,-0.8549,-0.921,-0.842,-0.8613,-0.9274,-0.9338,-0.9166,-0.8871,-0.9188,-0.9946,-1.0906,-1.1888,-1.3322,-1.4978,-1.6125,-1.6688,-1.6999,-1.7702,-1.7575,-1.7255,-1.777,-1.7922,-1.8037,-1.8591,-1.8728,-1.9248,-2.1224,-2.1701,-2.2361,-2.4618,-2.4713,-2.501,-2.6918,-2.8276,-2.9205,-2.9414,-3.0902,-3.1624,-3.0539,-2.9867,-2.9372,-2.896,-2.9638,-3.0178,-3.0317,-3.095,-3.1714,-3.2627,-3.3031,-3.3524,-3.4152,-3.3204,-3.2254,-3.1421,-3.0638,-2.9848,-2.8994,-2.8994,-2.8994,-2.8994,-2.8994,-2.8797,-2.842,-2.8075,-2.8102,-2.8376,-2.8047,-2.8308,-2.8952,-2.8994,-2.8773,-2.8466,-2.8874,-2.9826,-3.1,-3.1385,-3.2469,-3.3807,-1.541,-1.5674,-1.5936,-1.6019,-1.447,-1.2964,-1.2337,-1.1811,-1.1288,-1.0681,-1.0624,-1.0807,-1.1406,-1.171,-1.205,-1.2763,-1.416,-1.5061,-1.516,-1.6246,-1.6894,-1.6894,-1.6475,-1.6476,-1.6896,-1.6029,-1.581,-1.6208,-1.57,-1.541,-1.541,-1.5177,-1.4746,-1.4145,-1.2923,-1.2135,-1.171,-0.9761,-0.9075,-0.9338,-0.9779,-0.9652,-0.9402,-1.0047,-0.9806,-0.931,-1.0405,-1.115,-1.1768,-1.2972,-1.4352,-1.5727,-1.6504,-1.7153,-1.7655,-1.8007,-1.8025,-1.7933,-1.8111,-1.8077,-1.8192,-1.8721,-1.9224,-1.9823,-2.0754,-2.1562,-2.23,-2.2932,-2.392,-2.5095,-2.6471,-2.8176,-2.9947,-3.1622,-3.2903,-3.3145,-3.164,-3.1148,-3.0886,-3.0684,-3.0733,-3.0396,-2.9465,-3.1026,-3.2237,-3.2477,-3.3389,-3.4031,-3.4176,-3.3385,-3.2445,-3.1446,-3.0816,-3.0021,-2.8994,-2.8994,-2.8994,-2.8994,-2.8994,-2.8952,-2.8839,-2.8464,-2.8316,-2.8394,-2.8316,-2.8368,-2.8565,-2.8881,-2.8929,-2.8888,-2.9296,-3.0384,-3.1841,-3.2819,-3.347,-3.3807,-1.5996,-1.6338,-1.6719,-1.6973,-1.5862,-1.4628,-1.3633,-1.268,-1.1818,-1.1185,-1.1108,-1.1288,-1.1772,-1.2443,-1.3053,-1.3485,-1.4696,-1.5435,-1.5435,-1.6225,-1.6665,-1.6665,-1.6785,-1.6789,-1.6717,-1.6345,-1.6123,-1.6036,-1.5584,-1.541,-1.541,-1.541,-1.5167,-1.4688,-1.3906,-1.3061,-1.2205,-1.0598,-0.9856,-0.9913,-1.0428,-1.0301,0.0,-1.0428,-1.0301,-1.0078,-1.1494,-1.2105,-1.2297,-1.3432,-1.4949,-1.6428,-1.6682,-1.738,-1.802,-1.7909,-1.783,-1.7856,-1.8108,-1.8302,-1.8581,-1.913,-1.9517,-1.9976,-2.0582,-2.1287,-2.2003,-2.2535,-2.3387,-2.449,-2.6077,-2.7924,-3.0093,-3.2844,-3.3553,-3.3321,-3.2028,-3.1654,-3.134,-3.0866,-3.0918,-3.0524,-2.93,-3.1083,-3.2158,-3.1805,-3.2962,-3.3724,-3.3843,-3.3635,-3.2966,-3.179,-3.1184,-3.0357,-2.9178,-2.8989,-2.8778,-2.8484,-2.8562,-2.854,-2.8462,-2.8064,-2.8171,-2.8658,-2.8471,-2.8496,-2.8682,-2.8905,-2.8994,-2.9067,-2.9642,-3.0559,-3.1617,-3.2446,-3.3201,-3.3762,-1.6807,-1.7119,-1.7402,-1.7461,-1.7109,-1.6408,-1.5337,-1.3727,-1.249,-1.1996,-1.195,-1.2012,-1.2074,-1.3356,-1.4273,-1.4332,-1.5393,-1.6037,-1.6037,-1.6348,-1.6562,-1.6562,-1.7144,-1.7073,-1.6157,-1.6685,-1.6491,-1.5526,-1.5468,-1.541,-1.541,-1.541,-1.541,-1.5352,-1.4569,-1.3666,-1.2757,-1.124,-1.0624,-1.0624,-1.0624,-1.0624,-1.0624,-1.0624,-1.0688,-1.0926,-1.2458,-1.2751,-1.2664,-1.3651,-1.5371,-1.7036,-1.6796,-1.7388,-1.8078,-1.7541,-1.7407,-1.7504,-1.8066,-1.8612,-1.9132,-1.9566,-1.969,-1.9839,-2.0438,-2.092,-2.1545,-2.2598,-2.2962,-2.3667,-2.5657,-2.7628,-3.0039,-3.329,-3.3481,-3.2893,-3.1955,-3.1841,-3.1497,-3.0527,-3.1011,0.0,-2.9795,-3.1243,-3.1882,-3.1016,-3.2246,-3.316,-3.3411,-3.3955,-3.3634,-3.226,-3.1728,-3.081,-2.9412,-2.9074,-2.8533,-2.7787,-2.799,-2.799,-2.7787,-2.744,-2.7918,-2.8994,-2.8633,-2.8682,-2.8994,-2.8994,-2.8994,-2.9067,-2.9769,-3.0348,-3.0867,-3.1247,-3.2339,-3.3588,-1.7197,-1.7334,-1.749,-1.7842,-1.7549,-1.7054,-1.649,-1.493,-1.3623,-1.2887,-1.2765,-1.3061,-1.3726,-1.4025,-1.4451,-1.5108,-1.5361,-1.5527,-1.5527,-1.5596,-1.5644,-1.5644,-1.5753,-1.6006,-1.6436,-1.5984,-1.5886,-1.6322,-1.569,-1.541,-1.541,-1.541,-1.541,-1.5352,-1.4569,-1.3356,-1.1958,-1.0982,-1.0624,-1.0624,-1.0624,-1.0624,-1.0624,-1.0624,-1.0982,-1.171,-1.2642,-1.2967,-1.3091,-1.4644,-1.6177,-1.7364,-1.6443,-1.7105,-1.8084,-1.7501,-1.7625,-1.8066,-1.8612,-1.9169,-1.9566,-1.969,-1.969,-1.972,-1.9839,-2.0497,-2.1117,-2.131,-2.2391,-2.3722,-2.4988,-2.7718,-3.0595,-3.3072,-3.37,-3.3261,-3.1635,-3.2786,-3.3242,-3.1709,-3.283,-3.307,-3.1384,-3.2,-3.2007,-3.0748,-3.231,-3.3404,-3.3552,-3.4233,-3.3902,-3.2332,-3.2346,-3.1429,-2.9431,-2.9495,-2.8968,-2.7787,-2.799,-2.799,-2.7787,-2.7743,-2.8182,-2.8994,-2.8929,-2.8929,-2.8994,-2.8994,-2.8994,-2.8994,-2.914,-2.9667,-3.0412,-3.1121,-3.199,-3.2763,-1.7666,-1.7705,-1.7705,-1.7686,-1.7334,-1.6894,-1.6455,-1.552,-1.451,-1.3734,-1.3606,-1.3795,-1.4154,-1.4569,-1.4991,-1.5352,-1.541,-1.541,-1.541,-1.541,-1.541,-1.541,-1.5758,-1.5979,-1.5921,-1.6655,-1.6665,-1.5921,-1.6665,-1.6492,-1.541,-1.5806,-1.5758,-1.5362,-1.4791,-1.4145,-1.3335,-1.2531,-1.1914,-1.1532,-1.1297,-1.1226,-1.1226,-1.1226,-1.1717,-1.2512,-1.3304,-1.3888,-1.4346,-1.5157,-1.6358,-1.7455,-1.6666,-1.7246,-1.8122,-1.7835,-1.7922,-1.8224,-1.8727,-1.9281,-1.969,-1.969,-1.9874,-2.0,-2.0,-2.0682,-2.1306,-2.1306,-2.2122,-2.334,-2.4995,-2.7929,-3.0331,-3.1183,-3.2711,-3.3092,-3.1018,-3.1956,-3.2596,-3.1874,-3.2848,-3.3009,-3.1569,-3.2268,-3.2095,-3.0377,-3.1901,-3.3015,-3.3194,-3.4312,-3.4261,-3.2749,-3.246,-3.1478,-2.9732,-2.9187,-2.8442,-2.7475,-2.7155,-2.6897,-2.6723,-2.7043,-2.7622,-2.8411,-2.8833,-2.8994,-2.8994,-2.8994,-2.8994,-2.8994,-2.8994,-2.9494,-3.0246,-3.0632,-3.1549,-3.2598,-1.79,-1.7881,-1.7744,-1.7314,-1.6875,-1.6475,-1.6184,-1.5693,-1.5167,-1.4569,-1.4451,-1.4451,-1.4451,-1.4991,-1.541,-1.541,-1.541,-1.541,-1.541,-1.541,-1.5468,-1.5642,-1.6208,-1.6363,-1.6062,-1.7507,-1.7561,-1.6262,-1.7561,-1.7507,-1.6062,-1.6628,-1.6566,-1.593,-1.5284,-1.506,-1.4997,-1.4098,-1.3405,-1.2737,-1.2327,-1.2181,-1.2173,-1.2104,-1.2573,-1.3373,-1.3965,-1.4768,-1.5553,-1.5623,-1.6631,-1.7761,-1.7356,-1.7857,-1.8631,-1.8742,-1.8632,-1.8616,-1.9147,-1.9546,-1.9854,-1.9854,-2.0139,-2.0449,-2.0449,-2.1039,-2.1582,-2.1582,-2.2084,-2.3126,-2.5224,-2.7507,-2.9141,-2.9295,-3.1219,-3.2071,-3.0274,-3.101,-3.1639,-3.1397,-3.2298,-3.2443,-3.1208,-3.2086,-3.2007,-3.0194,-3.1431,-3.2365,-3.2551,-3.4074,-3.4366,-3.3157,-3.2435,-3.1398,-2.9999,-2.8776,-2.7759,-2.6924,-2.6344,-2.5951,-2.5778,-2.6391,-2.7101,-2.7911,-2.8672,-2.8994,-2.8994,-2.8994,-2.8994,-2.8994,-2.8994,-2.9494,-3.0228,-3.0393,-3.1366,-3.2672,-1.7519,-1.7441,-1.7305,-1.6865,-1.6426,-1.6113,-1.6135,-1.5693,-1.5352,-1.5294,-1.5294,-1.5294,-1.5294,-1.5352,-1.541,-1.541,-1.541,-1.541,-1.541,-1.541,-1.569,-1.6379,-1.6482,-1.7024,-1.8191,-1.7621,-1.7836,-1.8929,-1.7836,-1.7621,-1.8213,-1.827,-1.8097,-1.7676,-1.6141,-1.546,-1.5396,-1.4555,-1.4163,-1.4065,-1.3636,-1.3424,-1.3383,-1.3009,-1.3364,-1.4085,-1.4145,-1.5138,-1.6368,-1.6368,-1.7357,-1.8608,-1.8671,-1.9223,-1.9927,-2.0486,-2.0194,-1.9864,-2.0374,-2.0379,-2.0246,-2.0246,-2.0583,-2.0926,-2.0926,-2.1275,-2.1582,-2.1582,-2.2415,-2.3618,-2.5301,-2.5733,-2.6523,-2.8695,-2.9458,-2.9717,-2.9492,-3.121,-3.1881,-3.02,-3.1821,-3.2374,-3.056,-3.1307,-3.1526,-3.0599,-3.1132,-3.1592,-3.1782,-3.3215,-3.3761,-3.3204,-3.2353,-3.1308,-2.9999,-2.8683,-2.737,-2.6098,-2.6227,-2.6176,-2.5992,-2.6599,-2.7306,-2.8123,-2.8721,-2.8994,-2.8994,-2.8994,-2.8994,-2.8994,-2.8994,-2.9494,-3.0283,-3.1017,-3.1843,-3.2672,-1.7422,-1.7168,-1.6846,-1.6406,-1.6182,-1.6037,-1.5713,-1.5527,-1.541,-1.541,-1.541,-1.541,-1.541,-1.541,-1.541,-1.541,-1.541,-1.541,-1.541,-1.5806,-1.6208,-1.6492,-1.6922,-1.76,-1.8498,-1.8918,-1.9156,-1.9313,-1.9392,-1.929,-1.896,-1.8359,-1.7746,-1.7222,-1.678,-1.6636,-1.6636,-1.63,-1.5887,-1.5371,-1.4918,-1.4628,-1.4346,-1.4197,-1.4481,-1.4982,-1.5439,-1.6234,-1.7302,-1.8132,-1.8826,-1.9325,-1.9345,-1.9908,-2.0662,-2.1182,-2.0979,-2.0538,-2.0659,-2.061,-2.0497,-2.0354,-2.0649,-2.1055,-2.1306,-2.1705,-2.2032,-2.2032,-2.2493,-2.3165,-2.4003,-2.5067,-2.5889,-2.6096,-2.7822,-2.8876,-2.8015,-2.9495,-3.0639,-3.0536,-3.1298,-3.1553,-3.0798,-3.1563,-3.1815,-3.1129,-3.1847,-3.2401,-3.2643,-3.3685,-3.4192,-3.4039,-3.2184,-3.0917,-3.0376,-2.8317,-2.7014,-2.6473,-2.5876,-2.5532,-2.5507,-2.6582,-2.7806,-2.9064,-2.9184,-2.9225,-2.9225,-2.9225,-2.9156,-2.8994,-2.8994,-2.9494,-3.0301,-3.1091,-3.1916,-3.2601,-1.7021,-1.6748,-1.6396,-1.5947,-1.5869,-1.5762,-1.5459,-1.541,-1.541,-1.541,-1.541,-1.541,-1.541,-1.541,-1.541,-1.541,-1.541,-1.5468,-1.569,-1.6208,-1.6708,-1.7146,-1.7633,-1.8311,-1.9121,-1.9679,-1.9831,-1.9597,-2.003,-2.0018,-1.9597,-1.8774,-1.8072,-1.7486,-1.7553,-1.7568,-1.7568,-1.7568,-1.7207,-1.6596,-1.6197,-1.5863,-1.5657,-1.5581,-1.573,-1.5986,-1.6591,-1.7302,-1.8112,-1.9297,-1.9953,-2.0306,-2.0505,-2.0982,-2.1527,-2.212,-2.1843,-2.1398,-2.1332,-2.1182,-2.1023,-2.0852,-2.1102,-2.1462,-2.1735,-2.2061,-2.231,-2.231,-2.2607,-2.2923,-2.3165,-2.4395,-2.5284,-2.4957,-2.6731,-2.8003,-2.7579,-2.8589,-2.9658,-3.0338,-3.0527,-3.0676,-3.0866,-3.1504,-3.1699,-3.1288,-3.2197,-3.2817,-3.2875,-3.3646,-3.388,-3.3417,-3.1403,-3.0186,-2.9833,-2.7575,-2.6447,-2.6399,-2.558,-2.5312,-2.562,-2.7029,-2.8404,-2.9696,-2.9533,-2.9454,-2.9412,-2.9412,-2.9246,-2.9012,-2.925,-2.9843,-3.065,-3.1458,-3.2169,-3.2757,-1.6162,-1.6135,-1.5928,-1.5498,-1.542,-1.542,-1.541,-1.541,-1.541,-1.541,-1.541,-1.541,-1.541,-1.541,-1.541,-1.541,-1.541,-1.569,-1.6436,-1.6492,-1.7146,-1.8608,-1.8661,-1.9298,-2.0652,-1.9552,-1.9397,-2.0366,-1.9124,-1.9175,-2.0377,-1.9897,-1.9519,-1.9222,-1.8385,-1.8008,-1.8008,-1.8008,-1.8008,-1.7969,-1.7549,-1.7373,-1.7331,-1.7236,-1.7183,-1.7227,-1.7478,-1.8058,-1.8821,-1.9465,-2.0555,-2.1805,-2.2452,-2.2649,-2.2785,-2.3406,-2.3146,-2.2667,-2.2694,-2.2331,-2.1979,-2.1963,-2.2141,-2.2282,-2.2282,-2.2282,-2.231,-2.231,-2.2773,-2.3189,-2.3189,-2.3477,-2.436,-2.6258,-2.634,-2.6794,-2.8714,-2.9225,-2.931,-2.904,-2.9416,-2.9945,-3.0551,-3.079,-3.0922,-3.0922,-3.1906,-3.232,-3.193,-3.2677,-3.2337,-3.0601,-2.988,-2.9033,-2.8048,-2.6415,-2.5574,-2.5508,-2.5434,-2.5859,-2.6734,-2.8135,-2.9114,-2.9696,-2.9696,-2.9589,-2.9412,-2.9412,-2.9246,-2.9067,-2.9879,-3.0687,-3.1476,-3.2302,-3.283,-3.3136,-1.6154,-1.582,-1.5664,-1.583,-1.5605,-1.5508,-1.5811,-1.5605,-1.541,-1.541,-1.541,-1.541,-1.541,-1.541,-1.541,-1.541,-1.541,-1.5526,-1.5748,-1.6208,-1.6708,-1.7202,-1.8167,-1.9072,-1.9909,-2.0079,-2.0458,-2.1131,-2.0159,-1.9497,-1.9135,-1.9931,-1.9598,-1.8462,-1.8721,-1.8596,-1.8008,-1.8008,-1.8008,-1.8066,-1.8512,-1.852,-1.8266,-1.883,-1.8921,-1.8769,-1.9347,-1.9738,-2.0154,-2.1335,-2.2039,-2.2483,-2.3143,-2.3334,-2.3334,-2.3551,-2.3728,-2.3759,-2.3299,-2.2958,-2.2724,-2.2508,-2.2155,-2.1899,-2.2237,-2.231,-2.231,-2.231,-2.259,-2.2873,-2.2873,-2.3768,-2.4622,-2.4968,-2.6281,-2.7369,-2.7725,-2.8567,-2.9089,-2.9017,-2.9138,-2.9499,-3.0263,-3.0405,-3.0946,-3.2241,-3.2664,-3.2485,-3.1668,-3.143,-3.1362,-3.146,-2.8992,-2.779,-2.8073,-2.6424,-2.5585,-2.5576,-2.6139,-2.7113,-2.8409,-2.8718,-2.936,-3.0174,-2.9988,-2.978,-2.9607,-2.9607,-2.9692,-2.9843,-3.0099,-3.1035,-3.2247,-3.2522,-3.2848,-3.3136,-1.6125,-1.5977,-1.5996,-1.6269,-1.6084,-1.5996,-1.6269,-1.6084,-1.5908,-1.5908,-1.5908,-1.5908,-1.5908,-1.5989,-1.5996,-1.5826,-1.5806,-1.6026,-1.662,-1.7079,-1.7468,-1.7743,-1.8608,-1.932,-1.966,-2.0042,-2.0268,-2.0459,-2.0334,-1.9941,-1.9318,-2.0189,-1.9814,-1.8529,-1.8721,-1.8529,-1.8008,-1.8008,-1.8202,-1.8529,-1.911,-1.9316,-1.9414,-2.0104,-2.0358,-2.0501,-2.1078,-2.1498,-2.1925,-2.3089,-2.3447,-2.3511,-2.3867,-2.3984,-2.3939,-2.367,-2.3991,-2.4296,-2.3902,-2.3755,-2.3627,-2.3194,-2.2675,-2.2291,-2.2304,-2.231,-2.231,-2.231,-2.2527,-2.2695,-2.2695,-2.3802,-2.4724,-2.4746,-2.6357,-2.7614,-2.7651,-2.8306,-2.8839,-2.8994,-2.8863,-2.915,-3.0094,-3.0076,-3.0467,-3.1617,-3.1679,-3.1306,-3.053,-3.0609,-3.0513,-3.0152,-2.7868,-2.6755,-2.6974,-2.6043,-2.574,-2.6056,-2.7238,-2.8299,-2.9217,-2.9404,-2.9833,-3.0398,-3.0222,-3.0018,-2.9815,-3.0052,-3.0223,-3.0411,-3.0901,-3.1733,-3.2651,-3.2944,-3.3001,-3.289,-1.6164,-1.6445,-1.6685,-1.6714,-1.6748,-1.6685,-1.6714,-1.6748,-1.6665,-1.6665,-1.6665,-1.6665,-1.6665,-1.7022,-1.7105,-1.6633,-1.6616,-1.7146,-1.8555,-1.8608,-1.8927,-1.9631,-1.9695,-1.9695,-1.9695,-1.9528,-1.9202,-1.8768,-1.9841,-2.0439,-2.049,-2.0557,-2.0074,-1.9177,-1.8405,-1.8076,-1.8008,-1.8076,-1.8596,-1.9299,-1.9431,-1.9944,-2.0726,-2.1063,-2.1579,-2.2299,-2.2627,-2.3226,-2.3904,-2.4531,-2.4776,-2.4738,-2.4698,-2.4657,-2.4537,-2.3833,-2.4032,-2.4471,-2.4511,-2.4692,-2.4692,-2.4,-2.3641,-2.3236,-2.2479,-2.2321,-2.2349,-2.2321,-2.2588,-2.2833,-2.2833,-2.3802,-2.4814,-2.5472,-2.6631,-2.7646,-2.8312,-2.842,-2.8565,-2.897,-2.8658,-2.8898,-3.0094,-2.9784,-2.9565,-2.9692,-2.9529,-2.9243,-2.8879,-3.0127,-2.9734,-2.728,-2.6664,-2.5973,-2.5177,-2.5417,-2.6013,-2.698,-2.8559,-2.9316,-2.9324,-3.0142,-3.0467,-3.0398,-3.0398,-3.0273,-3.0117,-3.0671,-3.0846,-3.0897,-3.2109,-3.2632,-3.2779,-3.3532,-3.3255,-3.2484,-1.6572,-1.666,-1.6836,-1.7168,-1.6953,-1.6846,-1.7178,-1.6943,-1.6665,-1.6665,-1.6665,-1.6665,-1.6665,-1.7359,-1.7818,-1.7849,-1.7578,-1.7468,-1.7852,-1.7841,-1.795,-1.8124,-1.8661,-1.898,-1.898,-1.9442,-1.9664,-1.9527,-1.9997,-1.9936,-1.9349,-2.0169,-1.9759,-1.8337,-1.8787,-1.8586,-1.8008,-1.8721,-1.911,-1.9431,-2.0719,-2.1428,-2.1667,-2.236,-2.3122,-2.3852,-2.3959,-2.4464,-2.5143,-2.5349,-2.5396,-2.5381,-2.5373,-2.5274,-2.5063,-2.4399,-2.4592,-2.5105,-2.5486,-2.5539,-2.5379,-2.5194,-2.4445,-2.3515,-2.2536,-2.2677,-2.2915,-2.2678,-2.3362,-2.3992,-2.3992,-2.5433,-2.6577,-2.6508,-2.7687,-2.8554,-2.8428,-2.8658,-2.8887,-2.8994,-2.8929,-2.9198,-3.0118,-2.9275,-2.9214,-3.0505,-2.9945,-2.9502,-2.9417,-2.9462,-2.8758,-2.7245,-2.6488,-2.6006,-2.5797,-2.5899,-2.6828,-2.8559,-2.9179,-2.9764,-3.0359,-3.0498,-3.0544,-3.0467,-3.0417,-3.0637,-3.099,-3.0916,-3.1522,-3.2422,-3.2557,-3.2981,-3.3532,-3.3733,-3.3255,-3.2484,-1.7031,-1.7187,-1.7393,-1.7627,-1.7471,-1.7393,-1.7637,-1.778,-1.787,-1.787,-1.8245,-1.849,-1.849,-1.9029,-1.9306,-1.916,-1.8769,-1.8542,-1.862,-1.8608,-1.8608,-1.8608,-1.8992,-1.9202,-1.9202,-1.9893,-2.0439,-2.0953,-2.108,-2.0831,-2.0285,-2.0911,-2.0462,-1.9166,-1.9299,-1.9243,-1.9166,-1.9299,-1.9748,-2.059,-2.1491,-2.2359,-2.3027,-2.3471,-2.434,-2.5371,-2.5371,-2.585,-2.6497,-2.6497,-2.669,-2.6853,-2.658,-2.6361,-2.6178,-2.5751,-2.5593,-2.5615,-2.5924,-2.6048,-2.6047,-2.5914,-2.4878,-2.3794,-2.3361,-2.3228,-2.3141,-2.2972,-2.371,-2.4399,-2.4399,-2.6002,-2.7306,-2.7344,-2.8261,-2.8991,-2.8959,-2.8826,-2.8797,-2.8994,-2.8839,-2.898,-2.958,-2.8742,-2.8596,-2.9683,-2.9015,-2.8709,-2.9034,-2.8851,-2.8333,-2.7513,-2.6782,-2.6422,-2.6422,-2.7017,-2.7904,-2.9021,-2.9677,-3.0224,-3.0644,-3.0626,-3.0549,-3.0506,-3.0417,-3.0823,-3.1484,-3.146,-3.2126,-3.3178,-3.316,-3.3421,-3.3807,-3.3807,-3.3255,-3.2484,-1.748,-1.7764,-1.8008,-1.8008,-1.8008,-1.8008,-1.8212,-1.8854,-1.9365,-1.9497,-2.0139,-2.059,-2.059,-2.0827,-2.0795,-2.0274,-1.9933,-1.9799,-1.9784,-1.9798,-1.9798,-1.9798,-1.9798,-1.9798,-1.9798,-2.0376,-2.1167,-2.2184,-2.2272,-2.2122,-2.1758,-2.1842,-2.1428,-2.059,-1.9824,-1.9879,-2.059,-1.9944,-2.0526,-2.1939,-2.2187,-2.3088,-2.4292,-2.4408,-2.5287,-2.651,-2.651,-2.6982,-2.7625,-2.7625,-2.7993,-2.8403,-2.7845,-2.7561,-2.7388,-2.7279,-2.671,-2.612,-2.612,-2.6436,-2.6703,-2.6368,-2.5349,-2.4418,-2.4544,-2.4117,-2.3702,-2.3638,-2.4325,-2.4926,-2.4926,-2.6459,-2.7875,-2.8273,-2.8808,-2.9308,-2.9634,-2.9003,-2.8578,-2.8787,-2.85,-2.8433,-2.8787,-2.8198,-2.7977,-2.8376,-2.7727,-2.7624,-2.835,-2.8337,-2.8221,-2.7989,-2.7372,-2.7046,-2.7084,-2.8307,-2.8987,-2.9113,-3.0128,-3.0618,-3.0605,-3.0607,-3.0579,-3.0525,-3.0583,-3.1102,-3.1904,-3.2177,-3.2806,-3.3614,-3.3753,-3.3807,-3.3788,-3.3734,-3.3196,-3.2484,-1.791,-1.7969,-1.8008,-1.8008,-1.8008,-1.8269,-1.8977,-1.9233,-1.9562,-2.0268,-2.0526,-2.059,-2.059,-2.0827,-2.0795,-2.0274,-2.0391,-2.0307,-1.9836,-1.9798,-1.9798,-1.9798,-1.9798,-1.9798,-1.9798,-2.0376,-2.0978,-2.1619,-2.2083,-2.1913,-2.1139,-2.1663,-2.1428,-2.059,-2.0462,-2.0462,-2.0655,-2.1239,-2.1616,-2.2002,-2.3386,-2.4047,-2.435,-2.5007,-2.5728,-2.651,-2.651,-2.6982,-2.7625,-2.7625,-2.7993,-2.8496,-2.8387,-2.8192,-2.7961,-2.7964,-2.7291,-2.659,-2.659,-2.6889,-2.7113,-2.6775,-2.6694,-2.6455,-2.5618,-2.5762,-2.598,-2.5718,-2.6509,-2.7273,-2.7273,-2.8631,-2.9771,-2.985,-2.9936,-3.0039,-3.01,-2.9399,-2.8672,-2.8062,-2.7926,-2.7926,-2.7989,-2.7592,-2.7605,-2.834,-2.7669,-2.7554,-2.8358,-2.8069,-2.8182,-2.8773,-2.807,-2.774,-2.7904,-2.9004,-2.9715,-3.0003,-3.0412,-3.0632,-3.0683,-3.0626,-3.0599,-3.0621,-3.1237,-3.1968,-3.275,-3.305,-3.3712,-3.4444,-3.3975,-3.3807,-3.3762,-3.3437,-3.2952,-3.2451,-1.8025,-1.7942,-1.7939,-1.7715,-1.7861,-1.8144,-1.8529,-1.8977,-1.9431,-1.9814,-2.0333,-2.049,-2.0284,-2.0346,-2.0081,-1.9368,-1.9441,-1.9242,-1.8643,-1.9371,-1.9798,-1.9798,-2.01,-2.0552,-2.1142,-2.1418,-2.182,-2.2372,-2.2636,-2.232,-2.1509,-2.2201,-2.2125,-2.1302,-2.1302,-2.1542,-2.1928,-2.1939,-2.2421,-2.3267,-2.3989,-2.4794,-2.5508,-2.5837,-2.6443,-2.7086,-2.7086,-2.7306,-2.766,-2.8008,-2.8511,-2.8996,-2.8996,-2.879,-2.8515,-2.819,-2.7576,-2.7019,-2.7019,-2.7334,-2.7619,-2.7656,-2.7428,-2.7121,-2.685,-2.6695,-2.6551,-2.6407,-2.7131,-2.7787,-2.7787,-2.9108,-3.021,-3.021,-3.021,-3.021,-3.021,-2.9512,-2.8705,-2.7897,-2.7787,-2.7622,-2.72,-2.6781,-2.6808,-2.7373,-2.6886,-2.6989,-2.8015,-2.7903,-2.8172,-2.8957,-2.865,-2.8544,-2.8798,-2.9401,-2.9857,-3.019,-3.0465,-3.0646,-3.0697,-3.0628,-3.0862,-3.1321,-3.1571,-3.2429,-3.3596,-3.3466,-3.3919,-3.4632,-3.4055,-3.3807,-3.378,-3.3578,-3.3105,-3.2484,-1.7965,-1.7845,-1.7793,-1.7568,-1.7793,-1.8076,-1.8269,-1.8854,-1.9365,-1.9562,-2.0204,-2.0445,-2.0126,-1.9868,-1.943,-1.8688,-1.8578,-1.8328,-1.7875,-1.9097,-1.9695,-1.9527,-2.0298,-2.1179,-2.2284,-2.2309,-2.2585,-2.3078,-2.3078,-2.2763,-2.2187,-2.2823,-2.2763,-2.2199,-2.2199,-2.2628,-2.3365,-2.2738,-2.3255,-2.4567,-2.4738,-2.5508,-2.651,-2.6669,-2.71,-2.7625,-2.7625,-2.766,-2.786,-2.8319,-2.9012,-2.9629,-2.9629,-2.9436,-2.9121,-2.8489,-2.7912,-2.7439,-2.7439,-2.7648,-2.7992,-2.842,-2.8069,-2.7707,-2.8017,-2.7603,-2.7163,-2.7163,-2.7658,-2.8081,-2.8081,-2.9237,-3.021,-3.021,-3.021,-3.021,-3.021,-2.9512,-2.8631,-2.764,-2.7512,-2.72,-2.6392,-2.6049,-2.615,-2.683,-2.6409,-2.6695,-2.8003,-2.7897,-2.8195,-2.9071,-2.9089,-2.9225,-2.9474,-2.9661,-2.994,-3.0261,-3.0487,-3.0723,-3.0989,-3.093,-3.1357,-3.2173,-3.2244,-3.3006,-3.4172,-3.3845,-3.4089,-3.4632,-3.4055,-3.3807,-3.378,-3.3578,-3.3057,-3.2484,-1.7955,-1.7713,-1.7539,-1.79,-1.7988,-1.8269,-1.911,-1.9243,-1.9562,-2.0398,-2.059,-2.0579,-2.0534,-1.9717,-1.9134,-1.9067,-1.8834,-1.8655,-1.8608,-1.9371,-1.9475,-1.8821,-2.0019,-2.1179,-2.2284,-2.2309,-2.2585,-2.3078,-2.3078,-2.3078,-2.3017,-2.3078,-2.3078,-2.3017,-2.3017,-2.3471,-2.4234,-2.4176,-2.4567,-2.5398,-2.6068,-2.6404,-2.6563,-2.7255,-2.756,-2.7625,-2.7625,-2.7944,-2.8415,-2.8463,-2.9271,-3.0208,-3.0208,-3.0125,-2.9888,-2.9141,-2.8418,-2.7869,-2.7869,-2.7869,-2.8065,-2.8791,-2.8915,-2.8879,-2.8902,-2.8865,-2.881,-2.881,-2.8865,-2.8902,-2.8902,-2.9622,-3.021,-3.021,-3.021,-3.021,-3.021,-2.9512,-2.8407,-2.6869,-2.6686,-2.6374,-2.5586,-2.5474,-2.6059,-2.7603,-2.6995,-2.7248,-2.8828,-2.8209,-2.8286,-2.9353,-2.9372,-2.9455,-2.9678,-2.9877,-3.0161,-3.0482,-3.0552,-3.1036,-3.1816,-3.1802,-3.2212,-3.2961,-3.3699,-3.4083,-3.4211,-3.449,-3.4637,-3.4632,-3.4055,-3.3807,-3.3707,-3.2903,-3.255,-3.2384,-1.793,-1.783,-1.7744,-1.7637,-1.7842,-1.8144,-1.8462,-1.8462,-1.8596,-1.8911,-1.9431,-1.9521,-1.8726,-1.8744,-1.8545,-1.7954,-1.7799,-1.799,-1.8552,-1.9579,-2.0269,-2.0446,-2.1269,-2.2046,-2.2811,-2.2824,-2.2924,-2.3078,-2.3078,-2.3078,-2.3078,-2.3078,-2.3078,-2.3138,-2.359,-2.3721,-2.359,-2.4567,-2.5119,-2.5453,-2.6176,-2.6774,-2.724,-2.7894,-2.814,-2.8189,-2.8591,-2.8857,-2.9134,-2.9496,-2.9935,-3.0318,-3.0583,-3.0569,-3.0299,-2.9325,-2.8491,-2.7954,-2.8156,-2.8386,-2.8651,-2.8929,-2.8994,-2.8994,-2.8994,-2.8994,-2.8994,-2.8994,-2.8994,-2.8994,-2.8994,-2.9659,-3.0044,-2.9549,-2.9879,-3.0026,-2.9549,-2.92,-2.8388,-2.6796,-2.6612,-2.6098,-2.4777,-2.5109,-2.566,-2.6284,-2.6484,-2.709,-2.8209,-2.8606,-2.8994,-2.9373,-2.9643,-2.9813,-2.9893,-2.9969,-3.0194,-3.0564,-3.0595,-3.1072,-3.1969,-3.1911,-3.2613,-3.3813,-3.409,-3.4507,-3.4999,-3.4774,-3.4694,-3.4632,-3.4055,-3.3807,-3.3762,-3.3419,-3.2965,-3.2451,-1.7922,-1.781,-1.7764,-1.7607,-1.7822,-1.8008,-1.8008,-1.8008,-1.8008,-1.8008,-1.8529,-1.8542,-1.7674,-1.7956,-1.7986,-1.7318,-1.7366,-1.7631,-1.8211,-1.9726,-2.1037,-2.1938,-2.2196,-2.2573,-2.3065,-2.3078,-2.3078,-2.3078,-2.3078,-2.3078,-2.3138,-2.3365,-2.3484,-2.3484,-2.406,-2.4279,-2.4195,-2.5063,-2.5673,-2.6162,-2.6654,-2.7152,-2.7675,-2.8286,-2.8511,-2.8559,-2.918,-2.954,-2.9761,-3.0166,-3.0526,-3.0818,-3.1104,-3.1039,-3.0727,-2.9761,-2.8969,-2.846,-2.8507,-2.8832,-2.9112,-2.9017,-2.9067,-2.9134,-2.9134,-2.9163,-2.9228,-2.9228,-2.9228,-2.9228,-2.9228,-2.9672,-2.9857,-2.932,-2.9691,-2.9746,-2.8929,-2.9061,-2.8616,-2.6968,-2.7025,-2.6673,-2.5319,-2.5597,-2.5964,-2.6222,-2.6712,-2.7371,-2.8249,-2.8994,-2.9454,-2.9589,-2.9861,-3.0047,-3.0155,-3.0155,-3.0318,-3.0602,-3.0616,-3.1247,-3.2374,-3.2321,-3.3177,-3.4672,-3.4628,-3.4889,-3.5354,-3.4889,-3.4632,-3.4486,-3.4005,-3.3807,-3.3762,-3.3476,-3.3027,-3.2451,-1.7967,-1.7676,-1.7519,-1.7939,-1.8008,-1.8008,-1.8008,-1.8008,-1.8008,-1.8008,-1.8008,-1.8008,-1.8008,-1.7637,-1.7393,-1.7448,-1.7643,-1.7801,-1.7863,-1.9814,-2.162,-2.3053,-2.2611,-2.2573,-2.3065,-2.3078,-2.3078,-2.3078,-2.3078,-2.3078,-2.3138,-2.3943,-2.4292,-2.4292,-2.4292,-2.5119,-2.6457,-2.5728,-2.6269,-2.7575,-2.7625,-2.7625,-2.7675,-2.8286,-2.8511,-2.8606,-2.918,-2.9805,-3.0293,-3.0293,-3.0993,-3.1789,-3.1808,-3.1636,-3.1253,-3.0429,-2.9926,-2.95,-2.8942,-2.9089,-2.933,-2.9067,-2.9222,-2.9412,-2.9412,-2.957,-2.9696,-2.9696,-2.9696,-2.9696,-2.9696,-2.9696,-2.9696,-2.9696,-2.9696,-2.9394,-2.8527,-2.9149,-2.9074,-2.7412,-2.7975,-2.818,-2.7365,-2.7058,-2.7233,-2.8035,-2.7922,-2.8267,-2.9355,-2.9412,-2.9589,-2.9984,-2.9999,-3.0155,-3.0506,-3.0506,-3.0525,-3.0602,-3.0671,-3.1587,-3.3206,-3.3207,-3.4049,-3.5493,-3.5493,-3.5354,-3.5088,-3.4793,-3.4508,-3.4152,-3.3902,-3.3807,-3.3689,-3.284,-3.2517,-3.2384,-1.7968,-1.791,-1.7861,-1.7988,-1.8008,-1.8008,-1.8008,-1.8008,-1.8008,-1.8008,-1.8529,-1.8654,-1.8076,-1.8419,-1.8843,-1.9082,-1.9087,-1.9677,-2.0902,-2.1896,-2.265,-2.3065,-2.2975,-2.2915,-2.3078,-2.3078,-2.3078,-2.3078,-2.3078,-2.3365,-2.3943,-2.359,-2.3767,-2.4292,-2.4292,-2.4509,-2.5007,-2.5837,-2.6443,-2.6878,-2.7408,-2.7625,-2.7675,-2.8286,-2.8779,-2.9225,-2.9805,-3.0435,-3.0918,-3.0918,-3.1117,-3.1487,-3.2109,-3.2255,-3.2074,-3.1274,-3.0553,-2.9868,-2.9159,-2.9026,-2.9181,-2.9436,-2.9533,-2.9607,-2.9607,-2.9661,-2.9696,-2.9696,-2.9696,-2.9696,-2.9696,-2.9696,-2.9696,-2.9696,-2.9696,-2.9602,-2.9338,-2.9526,-2.9317,-2.824,-2.8179,-2.7885,-2.7098,-2.7342,-2.7687,-2.8071,-2.8727,-2.927,-2.9588,-2.9729,-2.9877,-2.9999,-3.0234,-3.04,-3.0506,-3.0506,-3.0564,-3.0691,-3.1254,-3.2128,-3.3225,-3.374,-3.4524,-3.5493,-3.5493,-3.5354,-3.5088,-3.4793,-3.4508,-3.4152,-3.3902,-3.3807,-3.3734,-3.3196,-3.2777,-3.2417,-1.7959,-1.8008,-1.8008,-1.8008,-1.8008,-1.8008,-1.8008,-1.8008,-1.8008,-1.8008,-1.8462,-1.8721,-1.8529,-1.8977,-1.9436,-1.9698,-1.9538,-1.981,-2.0756,-2.1741,-2.2213,-2.2113,-2.275,-2.3078,-2.3078,-2.3078,-2.3078,-2.3078,-2.3078,-2.3365,-2.3826,-2.3649,-2.3989,-2.4738,-2.4738,-2.5063,-2.5659,-2.6229,-2.6669,-2.6982,-2.7408,-2.776,-2.8042,-2.8638,-2.9225,-2.9848,-3.0435,-3.0878,-3.119,-3.119,-3.1428,-3.1823,-3.255,-3.29,-3.2926,-3.2118,-3.1292,-3.0509,-2.9816,-2.9396,-2.927,-2.9712,-2.9746,-2.9696,-2.9696,-2.9848,-2.9977,-2.9977,-2.9977,-2.9977,-2.9977,-2.9977,-2.9977,-2.9977,-2.9977,-2.9863,-2.9502,-2.9749,-2.9669,-2.8846,-2.8913,-2.8815,-2.8323,-2.8519,-2.8689,-2.8727,-2.9324,-2.975,-2.9893,-3.0003,-3.0128,-3.0226,-3.0426,-3.0717,-3.1095,-3.1095,-3.1133,-3.1222,-3.205,-3.29,-3.3713,-3.4024,-3.4584,-3.5354,-3.5354,-3.5102,-3.4736,-3.4714,-3.4357,-3.3802,-3.3797,-3.3707,-3.3522,-3.3075,-3.2745,-3.2417,-1.7959,-1.7978,-1.8008,-1.8008,-1.8008,-1.8008,-1.8008,-1.8008,-1.8008,-1.8008,-1.8008,-1.8269,-1.911,-1.9177,-1.9306,-1.9563,-1.9232,-1.8956,-1.8829,-2.0216,-2.0976,-2.0824,-2.231,-2.3078,-2.3078,-2.3078,-2.3078,-2.3078,-2.3078,-2.3138,-2.3185,-2.3943,-2.4681,-2.5398,-2.5398,-2.6162,-2.7473,-2.6774,-2.6982,-2.766,-2.766,-2.8042,-2.8654,-2.918,-2.9761,-3.0393,-3.0918,-3.119,-3.1252,-3.1291,-3.186,-3.2648,-3.3075,-3.3494,-3.3642,-3.2852,-3.2082,-3.1366,-3.0779,-3.0062,-2.9587,-2.9896,-2.9845,-2.9731,-2.9765,-3.0099,-3.0398,-3.0398,-3.0398,-3.0398,-3.0398,-3.0398,-3.0398,-3.0398,-3.0398,-3.0121,-2.9333,-2.991,-3.0121,-2.9313,-2.9898,-3.0367,-3.0367,-3.015,-2.9924,-2.9767,-2.9767,-2.9907,-3.0221,-3.0247,-3.0341,-3.0598,-3.0614,-3.1041,-3.1978,-3.2068,-3.2126,-3.2135,-3.2998,-3.3774,-3.4443,-3.4137,-3.4374,-3.5051,-3.5051,-3.4755,-3.4223,-3.4489,-3.4037,-3.3243,-3.355,-3.3447,-3.3075,-3.2616,-3.2451,-3.2316,-1.7519,-1.7783,-1.8008,-1.8008,-1.8008,-1.8008,-1.8008,-1.8008,-1.8008,-1.8008,-1.8008,-1.8076,-1.8269,-1.8269,-1.8405,-1.8829,-1.9368,-2.0081,-2.1105,-2.1513,-2.1944,-2.2555,-2.2884,-2.3078,-2.3078,-2.3078,-2.3078,-2.3078,-2.3078,-2.3424,-2.406,-2.4234,-2.4681,-2.5398,-2.5398,-2.5892,-2.6721,-2.6563,-2.721,-2.8319,-2.8319,-2.8685,-2.9225,-2.9361,-2.9761,-3.0309,-3.0435,-3.101,-3.1733,-3.2074,-3.2583,-3.3075,-3.3184,-3.3494,-3.3642,-3.2852,-3.2485,-3.2077,-3.0928,-3.0472,-3.0238,-2.9847,-2.9845,-2.9984,-3.0202,-3.033,-3.0398,-3.0398,-3.0398,-3.0398,-3.0398,-3.0398,-3.0398,-3.0398,-3.0398,-3.0321,-3.014,-3.0294,-3.0321,-3.014,-3.0094,-3.0089,-3.0089,-3.0028,-3.0026,-3.0086,-3.0228,-3.0388,-3.051,-3.0501,-3.0537,-3.0605,-3.0645,-3.1078,-3.1901,-3.2659,-3.3028,-3.3028,-3.3852,-3.4168,-3.4046,-3.4596,-3.483,-3.4793,-3.4793,-3.4553,-3.4176,-3.3932,-3.3588,-3.3184,-3.2903,-3.2745,-3.2583,-3.2127,-3.1951,-3.1897,-1.7148,-1.7422,-1.7715,-1.7715,-1.7715,-1.7773,-1.7978,-1.8008,-1.8008,-1.8008,-1.8008,-1.8134,-1.8586,-1.8586,-1.8792,-1.9145,-1.9535,-2.0061,-2.0823,-2.1631,-2.2237,-2.2494,-2.2884,-2.3078,-2.3078,-2.2689,-2.2702,-2.3078,-2.3078,-2.3543,-2.4292,-2.4292,-2.4908,-2.5906,-2.5906,-2.6336,-2.7034,-2.7034,-2.758,-2.8511,-2.8511,-2.9042,-2.9805,-2.9805,-3.0327,-3.1033,-3.1033,-3.1514,-3.2161,-3.2417,-3.2809,-3.3214,-3.3214,-3.357,-3.3894,-3.3487,-3.3165,-3.2732,-3.1667,-3.1089,-3.064,-3.0004,-2.9924,-3.0047,-3.0182,-3.0311,-3.0398,-3.0398,-3.0398,-3.0398,-3.0398,-3.0417,-3.0448,-3.0398,-3.0448,-3.0487,-3.0448,-3.0448,-3.0467,-3.0487,-3.0343,-3.0253,-3.0272,-3.0291,-3.0316,-3.0398,-3.0477,-3.0569,-3.0652,-3.0626,-3.0619,-3.0643,-3.1051,-3.1678,-3.2518,-3.3411,-3.4049,-3.4389,-3.482,-3.4854,-3.4527,-3.4793,-3.4754,-3.4445,-3.4445,-3.4288,-3.3993,-3.3703,-3.3291,-3.284,-3.2583,-3.2366,-3.2144,-3.188,-3.1696,-3.147,-1.6885,-1.708,-1.7383,-1.7383,-1.7383,-1.7529,-1.7949,-1.8008,-1.8008,-1.8008,-1.8144,-1.8529,-1.9233,-1.9357,-1.9566,-1.9883,-1.9749,-1.9785,-2.0115,-2.1344,-2.197,-2.1928,-2.2384,-2.2689,-2.2689,-2.2199,-2.2261,-2.2884,-2.2884,-2.3233,-2.393,-2.4279,-2.5119,-2.6336,-2.6563,-2.7034,-2.7625,-2.771,-2.8091,-2.8638,-2.8795,-2.9524,-3.0567,-3.0567,-3.1133,-3.1915,-3.1915,-3.2247,-3.2709,-3.2773,-3.3082,-3.3468,-3.3468,-3.3854,-3.4288,-3.4288,-3.3982,-3.345,-3.2675,-3.1975,-3.1326,-3.0662,-3.0515,-3.0476,-3.0343,-3.0356,-3.0417,-3.0417,-3.0417,-3.0417,-3.0417,-3.0487,-3.0498,-3.0439,-3.054,-3.0575,-3.0516,-3.0516,-3.0543,-3.0583,-3.0552,-3.0546,-3.0584,-3.0604,-3.0606,-3.0608,-3.0607,-3.0619,-3.0681,-3.0623,-3.0696,-3.0902,-3.1554,-3.2377,-3.3375,-3.407,-3.4769,-3.5508,-3.546,-3.5321,-3.5097,-3.4771,-3.4442,-3.4123,-3.4123,-3.4012,-3.3788,-3.3506,-3.3057,-3.2484,-3.235,-3.2039,-3.1696,-3.1696,-3.147,-3.119,-1.6826,-1.708,-1.7383,-1.7383,-1.7383,-1.7529,-1.7949,-1.8008,-1.8008,-1.8008,-1.8664,-1.9177,-1.9299,-1.9639,-2.0035,-2.0456,-2.0099,-2.0377,-2.1537,-2.1123,-2.1158,-2.1877,-2.129,-2.091,-2.091,-2.1553,-2.1939,-2.2063,-2.2063,-2.2125,-2.2237,-2.4297,-2.5342,-2.5618,-2.6864,-2.7524,-2.761,-2.814,-2.8732,-2.9316,-2.9865,-3.0697,-3.1588,-3.1588,-3.1951,-3.2417,-3.2417,-3.2862,-3.3506,-3.385,-3.4204,-3.4508,-3.4508,-3.4551,-3.4632,-3.4632,-3.4579,-3.4395,-3.3745,-3.3492,-3.3271,-3.2659,-3.2596,-3.2494,-3.1738,-3.1001,-3.0487,-3.0487,-3.0525,-3.0564,-3.0564,-3.0583,-3.0584,-3.0559,-3.0588,-3.0595,-3.0586,-3.0587,-3.0587,-3.0598,-3.0595,-3.0587,-3.0607,-3.0607,-3.0608,-3.0593,-3.0601,-3.0605,-3.0606,-3.0594,-3.0948,-3.1705,-3.1845,-3.2608,-3.4148,-3.4047,-3.4387,-3.5157,-3.4926,-3.4793,-3.4752,-3.4401,-3.4117,-3.3868,-3.3868,-3.3842,-3.3734,-3.2978,-3.2598,-3.2417,-3.1657,-3.1329,-3.1291,-3.1291,-3.1269,-3.119,-1.6865,-1.708,-1.7383,-1.7383,-1.7383,-1.7529,-1.7949,-1.8008,-1.8008,-1.8008,-1.8337,-1.8586,-1.8586,-1.851,-1.8676,-1.9135,-1.919,-1.955,-2.0364,-2.0526,-2.0782,-2.1164,-2.0782,-2.0846,-2.1302,-2.1239,-2.1428,-2.1877,-2.2384,-2.3027,-2.3878,-2.4937,-2.5837,-2.6654,-2.7291,-2.7625,-2.7625,-2.7894,-2.8367,-2.895,-2.9794,-3.0597,-3.137,-3.1969,-3.2466,-3.2934,-3.3328,-3.3781,-3.4232,-3.4423,-3.4572,-3.4694,-3.4694,-3.4793,-3.4926,-3.4926,-3.5054,-3.5057,-3.4289,-3.4131,-3.3997,-3.3263,-3.3115,-3.2933,-3.2058,-3.1583,-3.1191,-3.0664,-3.0574,-3.0593,-3.0593,-3.0635,-3.0644,-3.0614,-3.0684,-3.0744,-3.0675,-3.0661,-3.0662,-3.0659,-3.0724,-3.0739,-3.0661,-3.0669,-3.0634,-3.0606,-3.0603,-3.0598,-3.0597,-3.1033,-3.1457,-3.184,-3.256,-3.3287,-3.3995,-3.4242,-3.4529,-3.487,-3.4572,-3.4423,-3.4401,-3.4024,-3.3732,-3.3447,-3.3447,-3.3332,-3.3027,-3.2648,-3.235,-3.2039,-3.1466,-3.1015,-3.0699,-3.0699,-3.0477,-3.0208]}]]